[[{"header":{"parameterUnit":"m.s-1","parameterCategory":1,"la1":30.6,"la2":29.2853,"lo1":-89.7004,"lo2":-87.6739,"dy":0.0162,"dx":0.0183,"nx":112,"ny":82,"refTime":"2026-03-01T12:00:00:Z","depth":0,"parameterNumber":2,"parameterNumberName":"U-component_of_WINDS"},"data":[0.0,0.0,0.0,0.0,0.0,0.0,0.0,0.0,0.0,0.0,0.0,0.0,0.0,0.0,0.0,0.0,0.0,0.0,0.0,0.0,0.0,0.0,0.0,0.0,0.0,0.0,0.0,0.0,0.0,0.0,0.0,0.0,0.0,0.0,0.0,0.0,0.0,0.0,0.0,0.0,0.0,0.0,0.0,0.0,0.0,0.0,0.0,0.0,0.0,0.0,0.0,0.0,0.0,0.0,0.0,0.0,0.0,0.0,0.0,0.0,0.0,0.0,0.0,0.0,0.0,0.0,0.0,0.0,0.0,0.0,0.0,0.0,0.0,0.0,0.0,0.0,0.0,0.0,0.0,0.0,0.0,0.0,0.0,0.0,0.0,0.0,0.0,0.0,0.0,0.0,0.0,-3.024,-3.1746,-3.2525,-3.2132,-3.1967,-3.1008,-2.8856,0.0,0.0,0.0,0.0,0.0,0.0,0.0,0.0,0.0,0.0,0.0,0.0,0.0,0.0,0.0,0.0,0.0,0.0,0.0,0.0,0.0,0.0,0.0,0.0,0.0,0.0,0.0,0.0,0.0,0.0,0.0,0.0,0.0,0.0,0.0,0.0,0.0,0.0,0.0,0.0,0.0,0.0,0.0,0.0,0.0,0.0,0.0,0.0,0.0,0.0,0.0,0.0,0.0,0.0,0.0,0.0,0.0,0.0,0.0,0.0,0.0,0.0,0.0,0.0,0.0,0.0,0.0,0.0,0.0,0.0,0.0,0.0,0.0,0.0,0.0,0.0,0.0,0.0,0.0,0.0,0.0,0.0,0.0,0.0,0.0,0.0,0.0,0.0,0.0,0.0,0.0,0.0,0.0,0.0,0.0,0.0,0.0,0.0,0.0,0.0,0.0,0.0,0.0,0.0,-2.906,-3.1415,-3.2292,-3.2649,-3.2566,-3.1919,-3.0822,-2.929,0.0,0.0,0.0,0.0,0.0,0.0,0.0,0.0,0.0,0.0,0.0,0.0,0.0,0.0,0.0,0.0,0.0,0.0,0.0,0.0,0.0,0.0,0.0,0.0,0.0,0.0,0.0,0.0,0.0,0.0,0.0,0.0,0.0,0.0,0.0,0.0,0.0,0.0,0.0,0.0,0.0,0.0,0.0,0.0,0.0,0.0,0.0,0.0,0.0,0.0,0.0,0.0,0.0,0.0,0.0,0.0,0.0,0.0,0.0,0.0,0.0,0.0,0.0,0.0,0.0,0.0,0.0,0.0,0.0,0.0,0.0,0.0,0.0,0.0,0.0,0.0,0.0,0.0,0.0,0.0,0.0,0.0,0.0,0.0,0.0,0.0,0.0,0.0,0.0,0.0,0.0,0.0,0.0,0.0,0.0,0.0,0.0,0.0,0.0,0.0,0.0,0.0,0.0,-2.8421,-2.9539,-3.174,-3.2401,-3.2669,-3.2669,-3.1899,-3.0884,-2.9746,-2.8338,0.0,0.0,0.0,0.0,0.0,0.0,0.0,0.0,0.0,0.0,0.0,0.0,0.0,0.0,0.0,0.0,0.0,0.0,0.0,0.0,0.0,0.0,0.0,0.0,0.0,0.0,0.0,0.0,0.0,0.0,0.0,0.0,0.0,0.0,0.0,0.0,0.0,0.0,0.0,0.0,0.0,0.0,0.0,0.0,0.0,0.0,0.0,0.0,0.0,0.0,0.0,0.0,0.0,0.0,0.0,0.0,0.0,0.0,0.0,0.0,0.0,0.0,0.0,0.0,0.0,0.0,0.0,0.0,0.0,0.0,0.0,0.0,0.0,0.0,0.0,0.0,0.0,0.0,0.0,0.0,0.0,0.0,0.0,0.0,0.0,0.0,0.0,0.0,0.0,0.0,0.0,0.0,0.0,0.0,0.0,0.0,0.0,0.0,0.0,0.0,0.0,0.0,-2.9787,-3.0677,-3.2188,-3.2664,-3.2851,-3.2747,-3.1692,-3.0739,-3.0036,-2.8069,0.0,0.0,0.0,0.0,0.0,0.0,0.0,0.0,0.0,0.0,0.0,0.0,0.0,0.0,0.0,0.0,0.0,0.0,0.0,0.0,0.0,0.0,0.0,0.0,0.0,0.0,0.0,0.0,0.0,0.0,0.0,0.0,0.0,0.0,0.0,0.0,0.0,0.0,0.0,0.0,0.0,0.0,0.0,0.0,0.0,0.0,0.0,0.0,0.0,0.0,0.0,0.0,0.0,0.0,0.0,0.0,0.0,0.0,0.0,0.0,0.0,0.0,0.0,0.0,0.0,0.0,0.0,0.0,0.0,0.0,0.0,0.0,0.0,0.0,0.0,0.0,0.0,0.0,0.0,0.0,0.0,0.0,0.0,0.0,0.0,0.0,0.0,0.0,0.0,0.0,0.0,0.0,0.0,0.0,0.0,0.0,0.0,0.0,0.0,0.0,0.0,0.0,-3.1174,-3.2685,-3.3223,-3.3306,-3.3161,-3.2768,-3.1112,-3.0056,-2.9994,-2.7469,0.0,0.0,0.0,0.0,0.0,0.0,0.0,0.0,0.0,0.0,0.0,0.0,0.0,0.0,0.0,0.0,0.0,0.0,0.0,0.0,0.0,0.0,0.0,0.0,0.0,0.0,0.0,0.0,0.0,0.0,0.0,0.0,0.0,0.0,0.0,0.0,0.0,0.0,0.0,0.0,0.0,0.0,0.0,0.0,0.0,0.0,0.0,0.0,0.0,0.0,0.0,0.0,0.0,0.0,0.0,0.0,0.0,0.0,0.0,0.0,0.0,0.0,0.0,0.0,0.0,0.0,0.0,0.0,0.0,0.0,0.0,0.0,0.0,0.0,0.0,0.0,0.0,0.0,0.0,0.0,0.0,0.0,0.0,0.0,0.0,0.0,0.0,0.0,0.0,0.0,0.0,0.0,0.0,0.0,0.0,0.0,0.0,0.0,0.0,0.0,0.0,0.0,-3.0822,-3.2271,0.0,-3.3368,-3.3203,-3.2711,-3.1588,-3.0491,-2.9622,0.0,0.0,0.0,0.0,0.0,0.0,0.0,0.0,0.0,0.0,0.0,0.0,0.0,0.0,0.0,0.0,0.0,0.0,0.0,0.0,0.0,0.0,0.0,0.0,0.0,0.0,0.0,0.0,0.0,0.0,0.0,0.0,0.0,0.0,0.0,0.0,0.0,0.0,0.0,0.0,0.0,0.0,0.0,0.0,0.0,0.0,0.0,0.0,0.0,0.0,0.0,0.0,0.0,0.0,0.0,0.0,0.0,0.0,0.0,0.0,0.0,0.0,0.0,0.0,0.0,0.0,0.0,0.0,0.0,0.0,0.0,0.0,0.0,0.0,0.0,0.0,0.0,0.0,0.0,0.0,0.0,0.0,0.0,0.0,0.0,0.0,0.0,0.0,0.0,0.0,0.0,0.0,0.0,0.0,0.0,0.0,0.0,0.0,0.0,0.0,0.0,0.0,-2.852,-3.0253,-3.1744,0.0,-3.3128,-3.3179,-3.2834,-3.1228,-3.0012,-2.9373,0.0,0.0,0.0,0.0,0.0,0.0,0.0,0.0,0.0,0.0,0.0,0.0,0.0,0.0,0.0,0.0,0.0,0.0,0.0,0.0,0.0,0.0,0.0,0.0,0.0,0.0,0.0,0.0,0.0,0.0,0.0,0.0,0.0,0.0,0.0,0.0,0.0,0.0,0.0,0.0,0.0,0.0,0.0,0.0,0.0,0.0,0.0,0.0,0.0,0.0,0.0,0.0,0.0,0.0,0.0,0.0,0.0,0.0,0.0,0.0,0.0,0.0,0.0,0.0,0.0,0.0,0.0,0.0,0.0,0.0,0.0,0.0,0.0,0.0,0.0,0.0,0.0,0.0,0.0,0.0,0.0,0.0,0.0,0.0,0.0,0.0,0.0,0.0,0.0,0.0,0.0,0.0,0.0,0.0,0.0,0.0,0.0,0.0,0.0,0.0,0.0,0.0,-2.7286,-2.962,-3.1328,-3.1664,-3.2485,-3.3035,-3.3035,-2.9832,-2.8276,0.0,0.0,0.0,0.0,0.0,0.0,0.0,0.0,0.0,0.0,0.0,0.0,0.0,0.0,0.0,0.0,0.0,0.0,0.0,0.0,0.0,0.0,0.0,0.0,0.0,0.0,0.0,0.0,0.0,0.0,0.0,0.0,0.0,0.0,0.0,0.0,0.0,0.0,0.0,0.0,0.0,0.0,0.0,0.0,0.0,0.0,0.0,0.0,0.0,0.0,0.0,0.0,0.0,0.0,0.0,0.0,0.0,0.0,0.0,0.0,0.0,0.0,0.0,0.0,0.0,0.0,0.0,0.0,0.0,0.0,0.0,0.0,0.0,0.0,0.0,0.0,0.0,0.0,0.0,0.0,0.0,0.0,0.0,0.0,0.0,0.0,0.0,0.0,0.0,0.0,0.0,0.0,0.0,0.0,0.0,0.0,0.0,0.0,0.0,0.0,0.0,0.0,0.0,-2.6118,-2.8432,-3.0131,-3.0239,-3.027,-3.0168,-2.9812,-2.9154,-2.7957,-2.6027,0.0,0.0,0.0,0.0,0.0,0.0,0.0,0.0,0.0,0.0,0.0,0.0,0.0,0.0,0.0,0.0,0.0,0.0,0.0,0.0,0.0,0.0,0.0,0.0,0.0,0.0,0.0,0.0,0.0,0.0,0.0,0.0,0.0,0.0,0.0,0.0,0.0,0.0,0.0,0.0,0.0,0.0,0.0,0.0,0.0,0.0,0.0,0.0,0.0,0.0,0.0,0.0,0.0,0.0,0.0,0.0,0.0,0.0,0.0,0.0,0.0,0.0,0.0,0.0,0.0,0.0,0.0,0.0,0.0,0.0,0.0,0.0,0.0,0.0,0.0,0.0,0.0,0.0,0.0,0.0,0.0,0.0,0.0,0.0,0.0,0.0,0.0,0.0,0.0,0.0,0.0,0.0,0.0,0.0,0.0,0.0,0.0,0.0,0.0,0.0,0.0,0.0,-2.4603,-2.6857,-2.8476,-2.8612,-2.8801,-2.8857,-2.8724,-2.8131,-2.6946,-2.5019,0.0,0.0,0.0,0.0,0.0,0.0,0.0,0.0,0.0,0.0,0.0,0.0,0.0,0.0,0.0,0.0,0.0,0.0,0.0,0.0,0.0,0.0,0.0,0.0,0.0,0.0,0.0,0.0,0.0,0.0,0.0,0.0,0.0,0.0,0.0,0.0,0.0,0.0,0.0,0.0,0.0,0.0,0.0,0.0,0.0,0.0,0.0,0.0,0.0,0.0,0.0,0.0,0.0,0.0,0.0,0.0,0.0,0.0,0.0,0.0,0.0,0.0,0.0,0.0,0.0,0.0,0.0,0.0,0.0,0.0,0.0,0.0,0.0,0.0,0.0,0.0,0.0,0.0,0.0,0.0,0.0,0.0,0.0,0.0,0.0,0.0,0.0,0.0,0.0,0.0,0.0,0.0,0.0,0.0,0.0,0.0,0.0,0.0,0.0,0.0,0.0,0.0,-2.283,-2.5043,-2.6606,-2.6922,-2.7671,-2.8367,-2.8704,-2.6776,-2.5436,-2.5281,0.0,0.0,0.0,0.0,0.0,0.0,0.0,0.0,0.0,0.0,0.0,0.0,0.0,0.0,0.0,0.0,0.0,0.0,0.0,0.0,0.0,0.0,0.0,0.0,0.0,0.0,0.0,0.0,0.0,0.0,0.0,0.0,0.0,0.0,0.0,0.0,0.0,0.0,0.0,0.0,0.0,0.0,0.0,0.0,0.0,0.0,0.0,0.0,0.0,0.0,0.0,0.0,0.0,0.0,0.0,0.0,0.0,0.0,0.0,0.0,-2.5818,0.0,0.0,0.0,0.0,0.0,0.0,0.0,0.0,0.0,0.0,0.0,0.0,0.0,0.0,0.0,0.0,0.0,0.0,0.0,0.0,0.0,0.0,0.0,0.0,0.0,0.0,0.0,0.0,0.0,0.0,0.0,0.0,0.0,0.0,0.0,0.0,0.0,0.0,0.0,0.0,0.0,-2.2047,-2.3989,-2.5435,-2.551,-2.5478,-2.5495,-2.5571,-2.5778,-2.4922,-2.2638,-2.3269,0.0,0.0,0.0,0.0,0.0,0.0,0.0,0.0,0.0,0.0,0.0,0.0,0.0,0.0,0.0,0.0,0.0,0.0,0.0,0.0,0.0,0.0,0.0,0.0,0.0,0.0,0.0,0.0,0.0,0.0,0.0,0.0,0.0,0.0,0.0,0.0,0.0,0.0,0.0,0.0,0.0,0.0,0.0,0.0,0.0,0.0,0.0,0.0,0.0,0.0,0.0,0.0,0.0,0.0,0.0,0.0,0.0,0.0,0.0,0.0,-2.5887,0.0,0.0,0.0,0.0,0.0,0.0,0.0,0.0,0.0,0.0,0.0,0.0,0.0,0.0,0.0,0.0,0.0,0.0,0.0,0.0,0.0,0.0,0.0,0.0,0.0,0.0,0.0,0.0,0.0,0.0,0.0,0.0,0.0,0.0,0.0,0.0,0.0,0.0,0.0,0.0,-2.1686,-2.3662,-2.5119,-2.5119,-2.4973,-2.487,-2.487,-2.5156,-2.4513,-2.2742,-2.2794,0.0,0.0,0.0,0.0,0.0,0.0,0.0,0.0,0.0,0.0,0.0,0.0,0.0,0.0,0.0,0.0,0.0,0.0,0.0,0.0,0.0,0.0,0.0,0.0,0.0,0.0,0.0,0.0,0.0,0.0,0.0,0.0,0.0,0.0,0.0,0.0,0.0,0.0,0.0,0.0,0.0,0.0,0.0,0.0,0.0,0.0,0.0,0.0,0.0,0.0,0.0,0.0,0.0,-2.5802,-2.5816,-2.6404,-2.5948,-2.5666,-2.5555,-2.6325,-2.5989,-2.4891,-2.5867,0.0,0.0,0.0,0.0,0.0,0.0,0.0,0.0,0.0,0.0,0.0,0.0,0.0,0.0,0.0,0.0,0.0,0.0,0.0,0.0,0.0,0.0,0.0,0.0,-2.302,-2.3089,-2.2863,0.0,0.0,0.0,0.0,0.0,0.0,0.0,0.0,0.0,0.0,0.0,-2.1774,-2.3735,-2.5119,-2.5119,-2.5119,-2.5119,-2.5119,-2.487,-2.4379,-2.372,-2.2579,-2.1963,0.0,0.0,0.0,0.0,0.0,0.0,0.0,0.0,0.0,0.0,0.0,0.0,0.0,0.0,0.0,0.0,0.0,0.0,0.0,0.0,0.0,0.0,0.0,0.0,0.0,0.0,0.0,0.0,0.0,0.0,0.0,0.0,-2.8425,-2.711,0.0,0.0,0.0,0.0,0.0,0.0,0.0,0.0,0.0,0.0,0.0,0.0,0.0,-2.6161,-2.585,-2.6609,-2.6579,-2.5621,-2.6387,-2.6803,-2.6892,-2.6836,-2.6925,-2.7218,-2.7332,0.0,-2.4722,-2.6168,0.0,0.0,0.0,0.0,0.0,0.0,0.0,0.0,0.0,0.0,0.0,0.0,0.0,0.0,0.0,0.0,0.0,0.0,0.0,0.0,0.0,0.0,-2.4116,-2.3795,-2.3557,-2.3384,0.0,-2.1741,-2.0342,-2.018,-1.9464,0.0,0.0,0.0,0.0,0.0,0.0,0.0,-2.2389,-2.3998,-2.5119,-2.5119,-2.5119,-2.5119,-2.5119,-2.509,-2.4782,-2.4057,-2.3325,-2.2581,-2.1773,-2.06,0.0,0.0,0.0,0.0,0.0,0.0,0.0,0.0,0.0,0.0,0.0,0.0,0.0,0.0,0.0,0.0,0.0,0.0,0.0,0.0,0.0,0.0,0.0,0.0,0.0,0.0,0.0,0.0,0.0,-2.8276,-2.7889,-2.6018,-2.631,-2.6131,0.0,0.0,0.0,0.0,0.0,0.0,0.0,0.0,0.0,-2.4959,-2.4955,-2.5255,-2.5765,-2.619,-2.6213,-2.5912,-2.6569,-2.694,-2.7112,-2.7297,-2.744,-2.7583,-2.7583,-2.7012,-2.6085,-2.6305,-2.5831,-2.4989,0.0,0.0,0.0,0.0,-2.3165,-2.2964,-2.3505,-2.3691,-2.3662,-2.3577,0.0,0.0,0.0,0.0,0.0,0.0,0.0,0.0,0.0,0.0,-2.4624,-2.4665,-2.4693,-2.4638,-2.4289,-2.3046,-2.1793,0.0,-2.0644,-2.0051,-1.893,0.0,0.0,0.0,0.0,-2.2286,-2.3062,-2.4276,-2.5119,-2.5119,-2.5119,-2.5119,-2.5119,-2.5119,-2.5002,-2.4642,-2.4013,-2.3471,-2.3062,-2.1935,-2.09,0.0,0.0,0.0,0.0,0.0,0.0,0.0,0.0,0.0,0.0,0.0,0.0,0.0,0.0,0.0,0.0,0.0,0.0,0.0,0.0,0.0,0.0,0.0,0.0,0.0,0.0,0.0,0.0,-2.7464,-2.7048,-2.4928,-2.555,-2.5473,0.0,0.0,0.0,0.0,0.0,0.0,-2.3422,-2.3491,-2.3818,-2.4372,-2.4414,-2.4901,-2.5964,-2.6047,-2.6215,-2.6438,-2.6808,-2.7074,-2.7311,-2.7535,-2.7633,-2.7633,-2.7633,-2.7507,-2.7277,-2.6485,-2.5838,-2.5146,-2.4313,-2.3908,-2.3771,-2.3518,-2.3537,-2.3843,-2.4609,-2.4889,-2.4791,-2.4651,-2.4247,-2.344,-2.1825,0.0,0.0,0.0,0.0,-2.2185,-2.288,-2.3873,-2.4729,-2.5019,-2.534,-2.5354,-2.4828,-2.4067,-2.3206,0.0,-2.1765,-2.1168,-1.9722,0.0,0.0,0.0,0.0,-2.2678,-2.3377,-2.4231,-2.4849,-2.4849,-2.4849,-2.4849,-2.4849,-2.4849,-2.4849,-2.4849,-2.4405,-2.4115,-2.3956,-2.3044,-2.2008,-2.1041,0.0,0.0,0.0,0.0,0.0,0.0,0.0,0.0,0.0,0.0,0.0,0.0,0.0,0.0,0.0,0.0,0.0,0.0,0.0,0.0,0.0,0.0,0.0,0.0,0.0,0.0,0.0,0.0,0.0,-2.3462,-2.4029,0.0,0.0,0.0,0.0,-2.1709,-2.2286,-2.3093,-2.4163,-2.4568,-2.5098,-2.6061,-2.6089,-2.6257,-2.6668,-2.6962,-2.7116,-2.7144,-2.7451,-2.7605,-2.7605,-2.7619,-2.7633,-2.7633,-2.7633,-2.7619,-2.7563,-2.6892,-2.6262,-2.5615,-2.5294,-2.4986,-2.4735,-2.4735,-2.4749,-2.4734,-2.5068,-2.4985,-2.4986,-2.6206,-2.5712,-2.4582,-2.3537,-2.2813,0.0,0.0,-2.2561,-2.3256,-2.3249,-2.3785,-2.4321,-2.4543,-2.4623,-2.4556,-2.4321,-2.3985,-2.3626,0.0,-2.2181,-2.1567,-2.1469,0.0,-2.0753,-2.1385,-2.1804,-2.2264,-2.293,-2.3627,-2.4034,-2.4034,-2.4034,-2.4034,-2.4034,-2.4034,-2.4034,-2.4034,-2.4273,-2.4146,-2.3557,-2.3406,-2.2879,-2.1923,-2.0785,0.0,0.0,0.0,0.0,0.0,0.0,0.0,0.0,0.0,0.0,0.0,0.0,0.0,0.0,0.0,0.0,0.0,0.0,0.0,0.0,0.0,0.0,0.0,0.0,0.0,0.0,0.0,0.0,-2.3551,-2.4136,0.0,-2.2588,-2.2516,-2.2623,-2.2665,-2.3323,-2.3967,-2.4761,-2.4924,-2.5303,-2.6085,-2.6099,-2.6248,-2.6534,-2.6643,-2.6697,-2.6697,-2.6806,-2.686,-2.686,-2.686,-2.686,-2.686,-2.686,-2.686,-2.6847,-2.6629,-2.6611,-2.6564,-2.5852,-2.5442,-2.5332,-2.4834,-2.4815,-2.4991,-2.51,-2.5059,-2.4978,-2.5092,-2.4698,-2.4029,-2.3513,-2.3066,-2.2714,-2.2781,-2.3198,-2.3655,-2.3808,-2.4329,-2.4743,-2.4649,-2.4636,-2.4502,-2.4022,-2.3678,-2.3375,-2.2984,-2.2517,-2.2043,-2.1595,-2.1727,-2.1845,-2.1867,-2.2502,-2.3154,-2.3574,-2.3826,-2.4034,-2.4034,-2.4034,-2.4034,-2.4034,-2.4034,-2.4034,-2.4034,-2.4064,-2.4022,-2.3798,-2.3784,-2.3315,-2.2332,-2.1713,-2.0552,0.0,0.0,0.0,0.0,0.0,0.0,0.0,0.0,0.0,0.0,0.0,0.0,0.0,0.0,0.0,0.0,0.0,0.0,0.0,0.0,0.0,0.0,0.0,0.0,0.0,0.0,-2.5187,-2.3908,-2.4596,-2.4677,-2.3513,-2.3543,-2.3707,-2.3728,-2.4215,-2.485,-2.5331,-2.5371,-2.5598,-2.6092,-2.6106,-2.6199,-2.6386,-2.6386,-2.6386,-2.6386,-2.6386,-2.6386,-2.6386,-2.6386,-2.6386,-2.6386,-2.6386,-2.6386,-2.6386,-2.6386,-2.6527,-2.6757,-2.6066,-2.584,-2.5724,-2.5112,-2.4997,-2.5064,-2.497,-2.5064,-2.513,-2.4543,-2.4289,-2.4155,-2.3861,-2.3621,-2.35,-2.3714,-2.3915,-2.4102,-2.4302,-2.4636,-2.4877,-2.469,-2.4636,-2.4476,-2.3901,-2.3621,-2.3354,-2.2939,-2.2755,-2.2483,-2.2038,-2.2361,-2.2549,-2.235,-2.2869,-2.339,-2.3597,-2.3611,-2.3611,-2.3611,-2.3611,-2.3611,-2.3611,-2.3528,-2.3459,-2.3459,-2.3459,-2.3418,-2.3321,-2.3308,-2.294,-2.2236,-2.1638,-2.0429,-1.8637,0.0,0.0,0.0,0.0,0.0,0.0,0.0,0.0,0.0,0.0,0.0,0.0,0.0,0.0,0.0,0.0,0.0,0.0,0.0,0.0,0.0,0.0,0.0,-2.3992,-2.4847,-2.507,-2.4414,-2.5112,-2.5335,-2.4416,-2.4291,-2.4369,-2.4649,-2.4943,-2.5358,-2.601,-2.605,-2.6092,-2.6386,-2.6386,-2.6386,-2.6386,-2.6386,-2.6386,-2.6386,-2.6386,-2.6386,-2.6386,-2.6386,-2.6386,-2.6386,-2.6386,-2.6386,-2.6373,-2.6373,-2.6199,-2.5945,-2.5945,-2.601,-2.5892,-2.5598,-2.5304,-2.5024,-2.473,-2.501,-2.5398,-2.4823,-2.4836,-2.5024,-2.473,-2.4636,-2.4636,-2.4636,-2.4636,-2.4636,-2.4636,-2.4636,-2.4636,-2.4636,-2.4549,-2.4476,-2.3901,-2.3768,-2.3581,-2.3062,-2.2941,-2.2928,-2.2928,-2.2928,-2.2928,-2.2928,-2.2928,0.0,-2.2928,-2.2928,-2.2928,-2.2928,-2.2928,-2.2928,-2.2928,-2.2592,-2.2418,-2.2418,-2.2405,-2.2271,-2.1991,-2.1991,-2.1857,-2.1641,-2.0428,-1.9546,-1.8958,0.0,0.0,0.0,0.0,0.0,0.0,0.0,0.0,0.0,0.0,0.0,0.0,0.0,0.0,0.0,0.0,0.0,0.0,0.0,0.0,0.0,-2.1672,-2.2724,-2.3241,-2.3983,-2.4709,-2.519,-2.5439,-2.5523,-2.5509,-2.5313,-2.5277,-2.5571,-2.5665,-2.5879,-2.6253,-2.6266,-2.6306,-2.6386,-2.6386,-2.6386,-2.6386,-2.6386,-2.6386,-2.6386,-2.6386,-2.6386,-2.6386,-2.6386,-2.6386,-2.6386,-2.6386,-2.6266,-2.6079,-2.6079,-2.5905,-2.5638,-2.5638,-2.5504,-2.5291,-2.4983,-2.4823,-2.4743,-2.4663,-2.4877,-2.513,-2.4756,-2.4836,-2.5024,-2.473,-2.4636,-2.4636,-2.4636,-2.4636,-2.4636,-2.4636,-2.4636,-2.4636,-2.4636,-2.4476,-2.4275,-2.4115,-2.3754,-2.3394,-2.3233,-2.302,-2.2928,-2.2928,-2.2928,-2.2928,-2.2928,-2.2928,0.0,-2.2928,-2.2928,-2.2928,-2.2928,-2.2928,-2.2928,-2.2928,-2.2592,-2.2418,-2.2418,-2.2218,-2.2071,-2.1991,-2.1991,-2.1951,-2.1871,-2.0922,-2.0254,0.0,0.0,0.0,0.0,0.0,0.0,0.0,0.0,0.0,0.0,0.0,0.0,0.0,0.0,0.0,0.0,0.0,0.0,0.0,0.0,0.0,0.0,-2.2469,-2.3554,-2.3761,-2.4449,-2.5161,-2.5688,-2.5859,-2.5945,-2.6119,-2.5985,-2.5959,-2.6119,-2.6132,-2.6213,-2.6386,-2.6386,-2.6386,-2.6386,-2.6386,-2.6386,-2.6386,-2.6386,-2.6386,-2.6386,-2.6386,-2.6386,-2.6386,-2.6386,-2.6319,-2.6213,-2.6213,-2.6039,-2.5772,-2.5772,-2.5598,0.0,0.0,0.0,0.0,0.0,-2.4636,-2.4636,-2.4636,-2.4756,-2.4863,-2.469,-2.4756,-2.4863,-2.469,-2.4636,-2.4636,-2.4636,-2.4636,-2.4636,-2.4636,-2.4636,-2.4636,-2.4636,-2.4502,-2.4356,-2.4222,-2.3941,-2.3661,-2.3541,-2.326,0.0,-2.306,-2.2953,-2.2928,-2.2928,-2.2928,-2.2928,-2.2928,-2.2928,-2.2928,-2.2928,-2.2928,-2.2928,-2.2928,-2.2592,0.0,0.0,0.0,-2.1697,-2.1443,-2.1443,0.0,0.0,0.0,0.0,0.0,0.0,0.0,0.0,-2.0334,-2.0361,0.0,0.0,0.0,0.0,0.0,0.0,0.0,0.0,0.0,0.0,0.0,0.0,0.0,0.0,0.0,0.0,-2.3278,-2.4476,-2.509,-2.5651,-2.609,-2.609,-2.6239,-2.6386,-2.6386,-2.6386,-2.6386,-2.6386,-2.6386,-2.6386,-2.6386,0.0,0.0,0.0,0.0,-2.6319,-2.6293,-2.6293,-2.6293,-2.6293,-2.6293,-2.6293,-2.6293,-2.6293,-2.6146,-2.5905,-2.5905,-2.5745,-2.5464,-2.5464,-2.5291,-2.5024,-2.5024,-2.5024,-2.4997,-2.473,-2.4636,-2.4636,-2.4636,0.0,0.0,-2.4636,-2.4636,-2.4636,-2.4636,-2.4636,-2.4636,-2.4636,-2.4636,-2.4636,-2.4636,-2.4636,-2.4636,-2.4636,-2.4636,-2.4569,-2.4302,-2.4222,-2.4128,-2.3875,-2.3581,-2.338,-2.338,-2.3086,-2.2928,-2.2928,-2.2928,-2.2928,-2.2928,-2.2928,-2.2928,-2.2928,0.0,0.0,-2.2928,-2.2592,-2.2311,-2.2044,-2.1764,-2.1427,-2.0842,-2.0855,-2.0855,-2.0828,-2.0882,-2.1162,-2.1722,-2.2205,-2.2498,-2.2525,-2.0975,-2.0949,0.0,0.0,0.0,0.0,0.0,0.0,0.0,0.0,0.0,0.0,0.0,0.0,0.0,0.0,0.0,-2.2566,-2.3772,-2.4836,-2.5665,-2.6079,-2.6306,-2.6306,-2.636,-2.6386,-2.6386,-2.6386,-2.6386,-2.6386,-2.6386,-2.6386,-2.6386,-2.6386,-2.6279,-2.6052,-2.6117,-2.5919,-2.5678,-2.5678,-2.5678,-2.5678,0.0,0.0,-2.5678,-2.5678,-2.5651,-2.5598,-2.5598,-2.5438,-2.5157,-2.5157,-2.4983,-2.4716,-2.4716,-2.4716,-2.4716,-2.4589,-2.4636,-2.4636,-2.4636,-2.4636,-2.4636,-2.4636,-2.4636,-2.4636,-2.4636,-2.4636,0.0,-2.4636,-2.4636,-2.4636,-2.4636,-2.4636,-2.4636,-2.4636,-2.4636,-2.4623,-2.4569,-2.4369,-2.4182,-2.4128,-2.3888,-2.3688,-2.3688,-2.3233,-2.2928,-2.2928,-2.2928,-2.2928,-2.2928,-2.2928,-2.2928,-2.2928,-2.2928,-2.2928,-2.2928,-2.2592,-2.2392,-2.2338,-2.2058,-2.1857,-2.1737,-2.1964,-2.1977,-2.1737,-2.2205,-2.2378,-2.2258,-2.2605,-2.3033,-2.35,-2.3166,-2.3153,0.0,0.0,0.0,0.0,0.0,0.0,0.0,0.0,0.0,0.0,0.0,-2.0468,-2.0645,0.0,-2.2525,-2.3437,-2.4396,-2.5277,-2.5879,-2.6199,-2.6386,-2.6386,-2.6386,-2.6386,-2.6386,-2.6386,-2.6386,-2.6386,-2.6386,-2.6386,-2.6386,-2.6386,-2.6253,-2.605,-2.6037,-2.5812,-2.5518,-2.5518,-2.5518,-2.5518,-2.5518,-2.5518,-2.5518,-2.5518,-2.5438,-2.5291,-2.5291,-2.513,-2.4863,-2.4863,-2.4863,-2.4863,-2.4863,-2.477,-2.4649,-2.4796,-2.477,-2.4589,-2.481,-2.4756,-2.4636,-2.4636,-2.4636,-2.4636,-2.4636,-2.4636,-2.4636,-2.4636,-2.4636,-2.4636,-2.4636,-2.4636,-2.4636,-2.4636,-2.4636,-2.4636,-2.4636,-2.4516,-2.4422,-2.4422,-2.4182,-2.3981,-2.3981,-2.3621,-2.326,-2.3113,-2.31,-2.3033,-2.2954,-2.2993,-2.31,-2.31,-2.3233,-2.3313,-2.3313,-2.3046,-2.2873,-2.2873,-2.2592,-2.2418,-2.2418,-2.2565,-2.2645,-2.2659,-2.2939,-2.31,-2.31,-2.3541,-2.3901,-2.4209,-2.4502,-2.4569,0.0,0.0,0.0,0.0,0.0,0.0,0.0,0.0,-1.9901,-2.0455,-2.0617,-2.0962,-2.1735,-2.2525,-2.3394,-2.4235,-2.5064,-2.5705,-2.5999,-2.6239,-2.6386,-2.6386,-2.6386,-2.6386,-2.6386,-2.6386,-2.6386,-2.6386,-2.6386,-2.6386,-2.6386,-2.6386,-2.6226,-2.5879,-2.5865,-2.5705,-2.5344,-2.5344,-2.5344,-2.5344,-2.5344,-2.5344,-2.5344,-2.5344,-2.5211,-2.4997,-2.4997,-2.4863,-2.4636,-2.4636,-2.481,-2.5077,-2.5077,-2.497,-2.4836,-2.5077,-2.501,-2.4836,-2.5077,-2.497,-2.4716,-2.4716,-2.469,-2.4636,-2.4636,-2.4636,-2.4636,-2.4636,-2.4636,-2.4636,-2.4636,-2.4636,-2.4636,-2.4636,-2.4636,-2.4636,-2.4636,-2.4636,-2.4636,-2.4636,-2.4449,-2.4289,-2.4289,-2.4102,-2.3821,-2.346,-2.3407,-2.3327,-2.3073,-2.326,-2.3407,-2.3407,-2.3621,-2.3768,-2.3768,-2.3554,-2.3407,-2.3407,-2.318,-2.3046,-2.3046,-2.3046,-2.3153,-2.3407,-2.3527,-2.3701,-2.3941,-2.4529,-2.4836,-2.4903,-2.5384,-2.5478,-2.0881,-2.041,-2.023,-2.0516,-2.0386,-2.0475,0.0,0.0,-2.133,-2.1746,-2.2244,-2.2605,-2.2767,-2.3447,-2.4262,-2.4877,-2.5504,-2.6012,-2.6306,-2.6373,-2.6386,-2.6386,-2.6386,-2.6386,-2.6386,-2.6386,-2.6386,-2.6386,-2.6386,-2.6386,-2.6386,-2.6386,-2.6132,-2.5585,-2.5558,-2.5291,-2.4743,-2.473,-2.473,-2.473,-2.473,-2.473,-2.473,-2.473,-2.4716,-2.469,-2.469,-2.4663,-2.4636,-2.4636,-2.481,-2.5077,-2.5077,-2.5211,-2.5411,-2.5451,-2.5438,-2.5411,-2.5451,-2.5277,-2.5037,-2.5037,-2.485,-2.4636,-2.4636,-2.4636,-2.4636,-2.4636,-2.4636,-2.4636,-2.4636,-2.4636,-2.4636,-2.4636,-2.4636,-2.4636,-2.4636,-2.4636,-2.4636,-2.4636,-2.4609,-2.4596,-2.4596,-2.4556,-2.4356,-2.3808,-2.3728,-2.3714,-2.3674,-2.3701,-2.3728,-2.3728,-2.3754,-2.3768,-2.3768,-2.3741,-2.3728,-2.3728,-2.3688,-2.3674,-2.3674,-2.3674,-2.3688,-2.3714,-2.4222,-2.4502,-2.4543,-2.513,-2.5545,-2.5889,-2.5879,-2.597,-2.1437,-2.1017,-2.0829,0.0,-2.0967,-2.1183,-2.19,-2.1892,-2.1961,-2.2605,-2.31,-2.3447,-2.3607,-2.4088,-2.4649,0.0,-2.5531,-2.5865,-2.6319,-2.6239,-2.6132,-2.6132,-2.5985,-2.6012,-2.636,-2.6386,-2.6386,-2.6386,-2.6386,-2.6319,-2.6146,-2.6132,-2.5865,-2.5277,-2.5264,-2.5064,-2.4562,-2.4636,-2.4636,-2.4636,-2.4636,-2.4636,-2.4636,-2.4636,-2.4636,-2.4636,-2.4636,-2.4636,-2.4636,-2.4636,-2.4917,-2.5331,-2.5331,-2.5611,-2.5999,-2.5838,-2.5665,-2.5545,-2.5718,-2.5571,-2.5331,-2.5331,-2.5251,-2.5144,-2.5144,-2.5144,-2.5144,-2.5144,-2.5144,-2.5144,-2.5144,-2.5144,-2.5104,-2.493,-2.489,-2.485,-2.4676,-2.4636,-2.4636,-2.4636,-2.4636,-2.4636,-2.4636,-2.4636,-2.4556,-2.4315,-2.4128,-2.3968,-2.3794,-2.3915,-2.4088,-2.4262,-2.4275,-2.4275,-2.4275,-2.4275,-2.4275,-2.4275,-2.4275,-2.4275,-2.4275,-2.4275,-2.4356,-2.4529,-2.477,-2.4983,-2.5144,-2.5571,-2.5838,-2.6037,-2.6306,-2.6466,-2.145,-2.1315,0.0,-2.1176,-2.1447,-2.1927,-2.2177,-2.2298,-2.2592,-2.3407,-2.3741,-2.3981,-2.4262,-2.4556,-2.4903,-2.5331,-2.5531,-2.5758,-2.6106,-2.5972,-2.5798,-2.5718,-2.5451,-2.5464,-2.5972,-2.6172,-2.6266,-2.6266,-2.6266,-2.6172,-2.605,-2.5879,-2.5598,-2.509,-2.5077,-2.493,-2.4562,-2.4636,-2.4636,-2.4636,-2.4636,-2.4636,-2.4636,-2.4636,-2.4636,-2.4636,-2.4636,-2.4636,-2.4636,-2.4636,-2.493,-2.5398,-2.5398,-2.5705,-2.6132,-2.5999,-2.5865,-2.5785,-2.5999,-2.5879,-2.5638,-2.5638,-2.5585,-2.5518,-2.5518,-2.5518,-2.5518,-2.5518,-2.5518,-2.5518,-2.5518,-2.5518,-2.5464,-2.5251,-2.5197,-2.5117,-2.4823,-2.4756,-2.473,-2.4649,-2.4636,-2.4636,-2.4636,-2.4636,-2.4636,-2.4636,-2.4449,-2.4249,-2.4035,-2.4195,-2.4396,-2.4609,-2.4636,-2.4636,-2.4636,-2.4636,-2.4636,-2.4636,-2.4636,-2.4676,-2.4756,-2.4756,-2.4903,-2.5197,-2.5277,-2.5424,-2.5638,-2.5932,-2.6079,-2.6092,-2.6587,-2.6867,0.0,0.0,-2.1505,-2.1211,-2.1717,-2.2458,-2.2766,-2.3073,-2.346,-2.4048,-2.4182,-2.4275,-2.4569,-2.4863,-2.5077,-2.509,-2.5571,-2.5852,-2.5585,-2.5531,-2.5424,-2.5144,-2.4836,-2.4783,0.0,-2.5638,-2.605,-2.605,-2.605,-2.605,-2.6037,-2.5678,-2.5384,-2.509,-2.5077,-2.493,-2.4562,-2.4636,-2.4636,-2.4636,-2.4636,-2.4636,-2.4636,-2.4636,-2.4636,-2.4636,-2.4636,-2.4636,-2.4636,-2.4636,-2.4823,-2.509,-2.509,-2.5277,-2.5571,-2.5852,-2.6132,-2.636,-2.6373,-2.6186,-2.5945,-2.5945,-2.5745,-2.5518,-2.5518,-2.5518,-2.5518,-2.5518,-2.5518,-2.5518,-2.5518,-2.5518,-2.5504,-2.5504,-2.5504,-2.5424,-2.513,-2.5064,-2.4983,-2.469,-2.4636,-2.4636,-2.4636,-2.4636,-2.4636,-2.4636,-2.4549,-2.4549,-2.4609,-2.4549,-2.4623,-2.4636,-2.4636,-2.4636,-2.4636,-2.4636,-2.4636,-2.4636,-2.4636,-2.477,-2.505,-2.5064,-2.5197,-2.5491,-2.5785,-2.601,-2.6023,-2.6239,-2.6373,-2.6386,-2.668,-2.6974,-2.0753,0.0,-2.1458,-2.2133,-2.2485,-2.2899,-2.3594,-2.3834,-2.3968,-2.4168,-2.4048,-2.3888,-2.3781,-2.3848,-2.4048,-2.4436,-2.4823,-2.5184,-2.5478,-2.5344,-2.5117,-2.4823,-2.4529,0.0,0.0,0.0,0.0,-2.5651,-2.5665,-2.5571,-2.5384,-2.5277,-2.509,-2.4796,-2.4783,-2.473,-2.4636,-2.4636,-2.4636,-2.4636,-2.4636,-2.4636,-2.4636,-2.4636,-2.4636,-2.4636,-2.4636,-2.4636,-2.4636,-2.4636,-2.481,-2.5077,-2.5077,-2.5251,-2.5545,-2.5852,-2.609,-2.6132,-2.6319,-2.6319,-2.6239,-2.6239,-2.6172,-2.6092,-2.6092,-2.6092,-2.6092,-2.6092,-2.6092,-2.6092,-2.6092,-2.6092,-2.6052,-2.5852,-2.5812,-2.5732,-2.5424,-2.5371,-2.5277,-2.4983,-2.493,-2.4863,-2.4676,-2.4636,-2.4636,-2.4636,-2.4636,-2.4636,-2.4636,-2.4636,-2.4636,-2.4636,-2.4636,-2.4636,-2.4636,-2.4636,-2.4716,-2.4917,-2.493,-2.5064,-2.5358,-2.5371,-2.5504,-2.5798,-2.5905,-2.613,-2.6239,-2.6346,-2.6493,-2.668,-2.6974,-2.7268,-2.0978,-2.1415,-2.1937,-2.2741,-2.31,-2.3487,-2.4075,-2.4209,-2.4168,-2.4075,-2.3728,-2.3394,-2.3193,-2.2993,-2.3113,-2.3915,-2.4209,-2.4529,-2.5117,-2.4957,-2.4649,-2.4369,-2.4062,-2.3928,0.0,0.0,0.0,-2.5317,-2.5358,-2.5277,-2.509,-2.4983,-2.4836,-2.4649,-2.4636,-2.4636,-2.4636,-2.4636,-2.4636,-2.4636,-2.4636,-2.4636,-2.4636,-2.4636,-2.4636,-2.4636,-2.4636,-2.4636,-2.4636,-2.4636,-2.4743,-2.4917,-2.4917,-2.5037,-2.5251,-2.5651,-2.5798,-2.5852,-2.6253,-2.6386,-2.6386,-2.6386,-2.6386,-2.6386,-2.6386,-2.6386,-2.6386,-2.6386,-2.6386,-2.6386,-2.6386,-2.6386,-2.6346,-2.6159,-2.6106,-2.6026,-2.5732,-2.5678,-2.5585,-2.5291,-2.5237,-2.517,-2.4983,-2.4943,-2.4943,-2.4943,-2.4943,-2.4877,-2.4663,-2.4636,-2.4636,-2.4636,-2.473,-2.4796,-2.4796,-2.489,-2.5037,-2.5224,-2.5237,-2.5371,-2.5665,-2.5678,-2.5812,-2.6106,-2.6106,-2.6199,-2.6386,-2.6493,-2.664,-2.6827,-2.7228,-2.7522,-2.1149,-2.2042,-2.2876,-2.2996,-2.3567,-2.4209,-2.4209,-2.4195,-2.4102,-2.3794,-2.3233,-2.2861,0.0,0.0,-2.2352,-2.3514,-2.3741,-2.3968,-2.4556,-2.4396,-2.4115,0.0,0.0,0.0,0.0,0.0,0.0,-2.497,0.0,-2.5024,-2.5037,-2.477,-2.4623,-2.4636,-2.4636,-2.4636,-2.4636,-2.4636,-2.4636,-2.4636,-2.4636,-2.4636,-2.4636,-2.4636,-2.4636,-2.4636,-2.4636,-2.4636,-2.4636,-2.4636,-2.4636,-2.4636,-2.4636,-2.4636,-2.4703,-2.5291,-2.5518,-2.5598,-2.6186,-2.6386,-2.6386,-2.6386,-2.6386,-2.6386,-2.6386,-2.6386,-2.6386,-2.6386,-2.6386,-2.6386,-2.6386,-2.6386,-2.6386,-2.6386,-2.6386,-2.6319,-2.6117,-2.605,-2.5892,-2.5598,-2.5518,-2.5518,-2.5518,-2.5518,-2.5518,-2.5518,-2.5518,-2.5317,-2.4756,-2.4676,-2.4676,-2.4676,-2.493,-2.5104,-2.5104,-2.5358,-2.5518,-2.5531,-2.5531,-2.5665,-2.605,-2.605,-2.6106,-2.6386,-2.6386,-2.64,-2.6413,-2.6694,-2.6841,-2.6881,-2.7442,-2.7709,-2.1851,-2.2485,-2.3077,-2.3674,-2.4035,-2.4209,-2.4209,-2.4035,-2.3728,-2.3276,-2.2512,-2.1882,0.0,0.0,0.0,-2.2645,-2.3327,0.0,-2.4556,-2.4569,0.0,-2.4128,0.0,-2.4008,-2.4088,-2.4088,0.0,0.0,-2.4222,-2.4195,-2.4409,-2.4356,-2.4409,-2.4549,-2.4636,-2.4636,-2.4636,-2.4636,-2.4636,-2.4636,-2.4636,-2.4636,-2.4636,-2.4636,-2.4636,-2.4636,-2.4636,-2.4636,-2.4636,-2.4636,-2.4636,-2.4636,-2.4636,-2.4636,-2.4703,-2.5291,-2.5518,-2.5598,-2.6186,-2.6386,-2.6386,-2.6386,-2.6386,-2.6386,-2.6386,-2.6386,-2.6386,-2.6386,-2.6386,-2.6386,-2.6386,-2.6386,-2.6386,-2.6386,-2.6386,-2.6373,-2.6293,-2.6279,-2.6199,-2.5905,-2.5665,-2.5518,-2.5518,-2.5518,-2.5518,-2.5518,-2.5518,-2.5451,-2.5304,-2.5291,-2.5291,-2.5291,-2.5358,-2.5398,-2.5398,-2.5464,-2.5611,-2.5825,-2.5838,-2.5972,-2.6266,-2.6279,-2.6319,-2.6386,-2.6386,-2.6493,-2.6707,-2.6787,-2.7054,-2.7482,-2.7629,-2.7816,-2.2418,-2.302,-2.3567,-2.4075,-2.4209,-2.4142,-2.3875,-2.3487,-2.2939,-2.2084,-2.1403,0.0,-2.0588,-2.0775,0.0,0.0,0.0,0.0,-2.4342,-2.4449,-2.4382,0.0,-2.4209,0.0,-2.4209,-2.4088,-2.4062,0.0,-2.4168,-2.4168,-2.4195,-2.4329,-2.4462,-2.4636,-2.4636,-2.4636,-2.4636,-2.4636,-2.4636,-2.4636,-2.4636,-2.4636,-2.4636,-2.4636,-2.4636,-2.4636,0.0,-2.4636,-2.4636,-2.4636,-2.4636,-2.4636,-2.4636,-2.4636,-2.4703,-2.5291,-2.5518,-2.5598,-2.6186,-2.6386,-2.6386,-2.6386,-2.6386,-2.6386,-2.6386,-2.6386,-2.6386,-2.6386,-2.6386,-2.6386,-2.6386,-2.6386,-2.6386,-2.6386,-2.6386,-2.6386,-2.6386,-2.6386,-2.6346,-2.6172,-2.6012,-2.5892,-2.5892,-2.5892,-2.5892,-2.5892,-2.5892,-2.5892,-2.5892,-2.5678,-2.5518,-2.5518,-2.5625,-2.5705,-2.5705,-2.5825,-2.5972,-2.6132,-2.6146,-2.6226,-2.6386,-2.6386,-2.6453,-2.6573,-2.6587,-2.672,-2.7014,-2.7148,-2.7375,-2.7696,-2.7829,-2.7989,-2.2886,-2.3581,-2.4209,-2.4209,-2.4168,-2.3981,-2.3354,-2.2712,-2.1937,-2.0842,0.0,-1.9987,-1.9786,-2.0013,-2.0601,-2.175,0.0,-2.318,-2.4075,-2.4209,-2.4222,-2.4262,-2.4262,-2.4262,-2.4262,-2.3995,-2.3915,-2.4128,-2.4382,-2.4422,-2.4209,-2.4409,-2.4556,-2.4636,-2.4636,-2.4636,-2.4636,-2.4636,-2.4636,-2.4636,-2.4636,-2.4636,-2.4636,-2.4636,-2.4636,-2.4636,-2.4636,-2.4636,-2.4636,-2.4636,-2.4636,-2.4636,-2.4636,-2.4636,-2.4703,-2.5291,-2.5518,-2.5598,-2.6186,-2.6386,-2.6386,-2.6386,-2.6386,-2.6386,-2.6386,-2.6386,-2.6386,-2.6386,-2.6386,-2.6386,-2.6386,-2.6386,-2.6386,-2.6386,-2.6386,-2.6386,-2.6386,-2.6386,-2.6386,-2.6386,-2.6386,-2.6386,-2.6386,-2.6386,-2.6386,-2.6386,-2.6386,-2.6386,-2.6386,-2.5945,-2.5625,-2.5625,-2.5865,-2.6012,-2.6012,-2.6239,-2.6386,-2.6386,-2.6386,-2.6386,-2.6386,-2.6426,-2.656,-2.6814,-2.6854,-2.7028,-2.7321,-2.7575,-2.7722,-2.7762,-2.8016,-2.8221,-2.346,-2.3901,-2.4209,-2.4209,-2.4022,-2.3621,-2.2766,-2.1937,0.0,0.0,-1.9693,-1.9212,-1.9412,-1.988,-2.0535,-2.1534,-2.2392,-2.318,-2.4075,-2.4209,-2.4289,0.0,-2.4556,-2.4556,-2.4556,-2.4302,0.0,0.0,-2.3888,-2.4008,-2.4195,-2.4022,-2.4142,-2.4623,-2.4636,-2.4636,-2.4636,-2.4636,-2.4636,-2.4636,-2.4636,-2.4636,-2.4636,-2.4636,-2.4636,-2.4636,-2.4636,0.0,-2.4636,-2.4636,-2.4636,-2.4636,-2.4636,-2.4636,-2.4703,-2.5291,-2.5518,-2.5598,-2.6186,-2.6386,-2.6386,-2.6386,-2.6386,-2.6386,-2.6386,-2.6386,-2.6386,-2.6386,-2.6386,-2.6386,-2.6386,-2.6386,-2.6386,-2.6386,-2.6386,-2.6386,-2.6386,-2.6386,-2.6386,-2.6386,-2.6386,-2.6386,-2.6386,-2.6386,-2.6386,-2.6386,-2.6386,-2.6386,-2.6386,-2.6306,-2.6239,-2.6239,-2.6279,-2.6319,-2.6319,-2.636,-2.6386,-2.6386,-2.6386,-2.6386,-2.6386,-2.6613,-2.6774,-2.6827,-2.7068,-2.7335,-2.7629,-2.7669,-2.7829,-2.8154,-2.8207,-2.8221,-2.3758,-2.4088,-2.4396,-2.4235,-2.3875,-2.322,-2.2017,0.0,0.0,0.0,-1.8878,-1.8691,-1.8677,-1.9279,0.0,-2.0548,-2.1376,-2.2311,-2.3354,-2.3647,0.0,-2.4569,-2.4636,-2.4636,0.0,-2.4235,-2.3981,-2.3995,-2.3567,-2.3434,-2.3728,-2.3901,-2.4128,-2.4396,-2.4556,-2.4636,-2.4636,-2.4636,-2.4636,-2.4636,-2.4636,-2.4636,-2.4636,-2.4636,-2.4636,-2.4636,-2.4636,-2.4636,-2.4636,-2.4636,-2.4636,-2.4636,-2.4636,-2.4636,-2.4703,-2.5291,-2.5518,-2.5598,-2.6186,-2.6386,-2.6386,-2.6386,-2.6386,-2.6386,-2.6386,-2.6386,-2.6386,-2.6386,-2.6386,-2.6386,-2.6386,-2.6386,-2.6386,-2.6386,-2.6386,-2.6386,-2.6386,-2.6386,-2.6386,-2.6386,-2.6386,-2.6386,-2.6386,-2.6386,-2.6386,-2.6386,-2.6386,-2.6386,-2.6386,-2.6386,-2.6386,-2.6386,-2.6386,-2.6386,-2.6386,-2.6386,-2.6453,-2.66,-2.6613,-2.668,-2.6841,-2.6974,-2.7121,-2.7281,-2.7415,-2.7642,-2.7923,-2.7923,-2.8003,-2.8221,-2.8221,-2.823,-2.3897,-2.4155,-2.4476,-2.4182,-2.3621,-2.2766,-2.1336,-2.0508,0.0,0.0,-1.8183,-1.825,-1.8022,0.0,-1.9319,0.0,-2.0481,-2.143,-2.2605,-2.3086,-2.3634,0.0,0.0,0.0,-2.4636,-2.4168,0.0,-2.4102,-2.334,-2.2993,-2.3313,-2.3821,-2.4115,-2.4115,-2.4396,-2.4543,-2.4543,-2.4609,-2.4636,-2.4636,-2.4636,-2.4636,-2.4636,-2.4636,-2.4636,-2.4636,-2.4636,-2.4636,-2.4636,-2.4636,-2.4636,-2.4636,-2.4636,-2.4636,-2.4703,-2.5224,-2.5464,-2.5585,-2.6106,-2.6333,-2.6386,-2.6386,-2.6386,-2.6386,-2.6386,-2.6386,-2.6386,-2.6386,-2.6386,-2.6386,-2.6386,-2.6386,-2.6386,-2.6386,-2.6386,-2.6386,-2.6386,-2.6386,-2.6386,-2.6386,-2.6386,-2.6386,-2.6386,-2.6386,-2.6386,-2.6386,-2.644,-2.648,-2.648,-2.6533,-2.6573,-2.6573,-2.6466,-2.6413,-2.648,-2.648,-2.66,-2.6894,-2.6921,-2.7028,-2.7255,-2.7321,-2.7468,-2.7696,-2.7762,-2.7909,-2.8221,-2.8221,-2.8221,-2.8221,-2.8301,-2.8377,-2.3843,-2.3995,-2.4168,-2.3888,-2.3153,-2.2191,-2.0989,0.0,0.0,-1.8182,-1.7849,-1.7742,-1.7942,-1.833,0.0,0.0,0.0,-2.1122,-2.2298,-2.2966,-2.3554,-2.4168,0.0,0.0,-2.4636,-2.4356,-2.4062,-2.3834,-2.322,-2.2993,-2.3313,-2.3634,-2.3808,-2.3808,-2.4088,-2.4249,-2.4249,-2.4502,-2.4636,-2.4636,-2.4636,-2.4636,-2.4636,-2.4636,-2.4636,-2.4636,-2.4636,-2.4636,0.0,-2.4636,-2.4636,-2.4636,-2.4636,-2.4636,-2.4676,-2.4997,-2.5291,-2.5558,-2.5879,-2.6172,-2.6386,-2.6386,-2.6386,-2.6386,-2.6386,-2.6386,-2.6386,-2.6386,-2.6386,-2.6386,-2.6386,-2.6386,-2.6386,-2.6386,-2.6386,-2.6386,-2.6386,-2.6386,-2.6386,-2.6386,-2.6386,-2.6386,-2.6386,-2.6386,-2.6386,-2.6386,-2.6613,-2.6787,-2.6787,-2.7014,-2.7188,-2.7188,-2.6707,-2.6493,-2.676,-2.6787,-2.6907,-2.7201,-2.7228,-2.7241,-2.7268,-2.7522,-2.7669,-2.7696,-2.7963,-2.8207,-2.8221,-2.8221,-2.8221,-2.8234,-2.843,-2.8577,-2.4059,-2.4125,-2.4142,-2.3848,-2.3086,-2.2071,-2.0722,0.0,-1.9065,-1.7983,-1.7662,-1.7622,-1.7742,-1.7862,-1.8116,0.0,0.0,0.0,-2.0909,-2.147,-2.2218,-2.3527,-2.3941,0.0,0.0,0.0,-2.3741,-2.326,-2.3075,-2.2913,-2.3046,-2.334,-2.35,-2.35,-2.3794,-2.4022,-2.4209,-2.4315,-2.4462,-2.4636,-2.4636,-2.4636,-2.4636,-2.4636,-2.4636,-2.4636,-2.4636,-2.4636,0.0,-2.4636,-2.4636,-2.4636,-2.4636,-2.4636,-2.4676,-2.497,-2.5157,-2.5317,-2.5798,-2.6039,-2.6159,-2.6333,-2.6386,-2.6386,-2.6386,-2.6386,-2.6386,-2.6386,-2.6386,-2.6386,-2.6386,-2.6386,-2.6386,-2.6386,-2.6386,-2.6386,-2.6386,-2.6386,-2.6386,-2.6386,-2.6386,-2.644,-2.6613,-2.6653,-2.6707,-2.6894,-2.7014,-2.7094,-2.7094,-2.7188,-2.7268,-2.7268,-2.7054,-2.6961,-2.7081,-2.7094,-2.7215,-2.7509,-2.7522,-2.7602,-2.7872,-2.7909,-2.7963,-2.7963,-2.8167,-2.8221,-2.8221,-2.8221,-2.8221,-2.8234,-2.8457,-2.8698,-2.3925,-2.4008,-2.3888,-2.3688,-2.2899,-2.1817,0.0,-1.972,-1.8918,-1.7809,-1.7582,-1.7582,-1.7582,-1.7582,-1.7689,-1.7942,0.0,-1.8701,-1.9993,-2.0561,-2.1336,0.0,0.0,-2.3487,0.0,-2.3701,-2.346,-2.3033,-2.2913,-2.2928,-2.2928,-2.3073,-2.3193,-2.3193,-2.3487,-2.3741,-2.3941,-2.4035,-2.4222,-2.4516,-2.4516,-2.4556,-2.4636,-2.4636,-2.4636,-2.4636,-2.4636,0.0,0.0,-2.4636,-2.4636,-2.4636,-2.4636,-2.4636,-2.4663,-2.4877,-2.501,-2.5157,-2.5651,-2.5879,-2.5999,-2.6293,-2.6386,-2.6386,-2.6386,-2.6386,-2.6386,-2.6386,-2.6386,-2.6386,-2.6386,-2.6386,-2.6386,-2.6386,-2.6386,-2.6386,-2.6386,-2.6386,-2.6413,-2.6507,-2.652,-2.6613,-2.6907,-2.6947,-2.7028,-2.7228,-2.7335,-2.7388,-2.7388,-2.7468,-2.7604,-2.7604,-2.7604,-2.7495,-2.7402,-2.7388,-2.7522,-2.7816,-2.7829,-2.7923,-2.8221,-2.8221,-2.8221,-2.8221,-2.8221,-2.8221,-2.8221,-2.8315,-2.8283,-2.8283,-2.8684,-2.9018,-2.3157,-2.334,-2.334,-2.3327,-2.2445,-2.1323,0.0,-1.9559,-1.8677,-1.7769,-1.7582,-1.7582,-1.7582,-1.7582,-1.7689,-1.7942,-1.8475,0.0,-2.0107,-2.0735,-2.1323,0.0,0.0,-2.2552,-2.2846,-2.3153,-2.3327,-2.3327,-2.3033,0.0,-2.2928,-2.2928,-2.2928,-2.2928,-2.3166,-2.334,-2.334,-2.3621,-2.3928,-2.4209,-2.4209,-2.4356,-2.4636,-2.4636,-2.4636,-2.4636,0.0,0.0,0.0,-2.4636,-2.4636,-2.4636,-2.4636,-2.4636,-2.4636,-2.4562,-2.4823,-2.5117,-2.5411,-2.5705,-2.5999,-2.6293,-2.6386,-2.6386,-2.6386,-2.6386,-2.6386,-2.6386,-2.6386,-2.6386,-2.6386,-2.6386,-2.6386,-2.6386,-2.6386,-2.6386,-2.6386,-2.6386,-2.648,-2.676,-2.6814,-2.6907,-2.7215,-2.7268,-2.7268,-2.7268,-2.7509,-2.7696,-2.7696,-2.7949,-2.8221,-2.8221,-2.8221,-2.81,-2.7722,-2.7696,-2.7816,-2.8207,-2.8221,-2.8221,-2.8221,-2.8221,-2.8221,-2.8221,-2.8221,-2.8221,-2.8221,-2.8457,-2.8604,-2.8617,-2.9205,-2.9633,-2.2175,-2.2161,-2.2017,-2.1617,-2.0935,-2.0174,-1.9492,-1.8971,-1.8424,-1.7729,-1.7582,-1.7582,-1.7582,-1.7582,-1.7756,-1.8263,-1.8504,0.0,0.0,0.0,0.0,-2.1655,-2.2485,-2.3073,0.0,0.0,-2.3006,-2.3006,-2.2926,-2.2928,-2.2928,-2.2928,-2.2928,-2.2928,-2.2953,-2.3113,-2.3327,-2.342,-2.3621,-2.3915,-2.3915,-2.4062,-2.4342,-2.4342,-2.4449,0.0,0.0,0.0,0.0,-2.4636,-2.4636,-2.4636,-2.4636,-2.4636,-2.4636,-2.4636,-2.469,-2.4823,-2.5117,-2.5411,-2.5705,-2.5999,-2.6226,-2.6386,-2.6386,-2.6386,-2.6386,-2.6386,-2.6386,-2.6386,-2.6386,-2.6386,-2.6386,-2.6386,-2.6386,-2.6386,-2.6386,-2.6547,-2.6707,-2.68,-2.6987,-2.7215,-2.7509,-2.7562,-2.7629,-2.7913,-2.8033,-2.8003,-2.8003,-2.8167,-2.8221,-2.8221,-2.8221,-2.8194,-2.8003,-2.8003,-2.8127,-2.8221,-2.8221,-2.8221,-2.8221,-2.8221,-2.8221,-2.8221,-2.835,-2.8457,-2.8457,-2.8764,-2.9005,-2.9205,-2.9392,-2.9539,-2.1047,-2.111,-2.0962,-2.0601,-2.0067,-1.9519,-1.9038,-1.8611,-1.8183,-1.7689,-1.7582,-1.7582,-1.7582,-1.7582,-1.7702,-1.809,-1.8343,0.0,0.0,0.0,0.0,-2.1283,0.0,0.0,0.0,-2.2913,-2.2928,-2.2928,-2.2928,-2.2928,-2.2928,-2.2928,-2.2928,-2.2928,-2.2928,-2.2953,-2.3153,-2.3153,-2.33,-2.3607,-2.3607,-2.3754,-2.4035,-2.4035,-2.4195,0.0,0.0,0.0,0.0,-2.4636,-2.4636,-2.4636,-2.4636,-2.4636,-2.4636,-2.4636,-2.4636,-2.4676,-2.497,-2.5277,-2.5558,-2.5865,-2.6146,-2.6386,-2.6386,-2.6386,-2.6386,-2.6386,-2.6386,-2.6386,-2.6386,-2.6386,-2.6386,-2.6386,-2.6386,-2.6386,-2.6386,-2.6613,-2.6854,-2.6961,-2.7228,-2.7522,-2.7816,-2.7869,-2.7923,-2.8194,-2.8221,-2.8221,-2.8221,-2.8221,-2.8221,-2.8221,-2.8221,-2.8221,-2.8221,-2.8221,-2.8221,-2.8221,-2.8221,-2.8221,-2.8221,-2.8341,-2.8323,-2.8323,-2.8617,-2.8764,-2.8764,-2.9058,-2.9366,-2.9646,-2.9646,-2.9593,0.0,-2.008,-2.0094,-2.0054,-1.9639,-1.9172,-1.8891,-1.8355,0.0,-1.7649,-1.7582,-1.7582,-1.7582,-1.7569,-1.7569,-1.7609,-1.8103,0.0,0.0,-1.9653,0.0,0.0,-2.171,0.0,-2.2418,-2.2699,-2.2928,-2.2928,-2.2928,-2.2928,-2.2928,-2.2928,-2.2928,-2.2928,-2.2928,-2.2928,-2.2928,-2.2928,-2.3006,-2.33,-2.33,-2.3447,-2.3741,-2.3741,-2.3901,0.0,0.0,0.0,0.0,-2.4549,-2.4636,-2.4636,-2.4636,-2.4636,-2.4636,-2.4636,-2.4636,-2.4676,-2.4957,-2.5237,-2.5531,-2.5852,-2.6146,-2.6386,-2.6386,-2.6386,-2.6386,-2.6386,-2.6386,-2.6386,-2.6386,-2.6386,-2.6386,-2.6386,-2.6386,-2.6386,-2.6386,-2.664,-2.6934,-2.7215,-2.7522,-2.7816,-2.8181,-2.8221,-2.8221,-2.8221,-2.8221,-2.8221,-2.8221,-2.8221,-2.8221,-2.8221,-2.8221,-2.8221,-2.8221,-2.8221,-2.8221,-2.8221,-2.8221,-2.8234,-2.8261,-2.8457,-2.8617,-2.8631,-2.8925,-2.9085,-2.9098,-2.9379,-2.9659,-2.9913,-2.99,-2.9726,-1.8238,0.0,-1.8784,-1.8317,-1.8103,-1.7983,0.0,-1.7796,-1.7675,-1.7595,-1.7582,-1.7582,-1.7582,-1.7447,-1.7447,-1.7862,0.0,0.0,-1.8971,0.0,0.0,-2.2004,-2.2432,-2.2686,-2.2752,-2.2819,-2.2928,-2.2928,-2.2928,-2.2928,-2.2928,-2.2928,-2.2928,-2.2928,-2.2928,-2.2928,-2.2928,-2.2928,-2.2899,-2.2966,-2.2966,-2.3126,-2.3434,-2.3434,-2.3594,0.0,0.0,0.0,-2.4329,-2.4543,-2.4636,-2.4636,-2.4636,-2.4636,-2.4636,-2.4636,-2.4636,-2.4649,-2.4716,-2.493,-2.5264,-2.5785,-2.6146,-2.6386,-2.6386,-2.6386,-2.6386,-2.6386,-2.6386,-2.6386,-2.6386,-2.6386,-2.6386,-2.6386,-2.6386,-2.6386,-2.6386,-2.68,-2.7188,-2.7255,-2.7682,-2.814,-2.8221,-2.8221,-2.8221,-2.8221,-2.8221,-2.8221,-2.8221,-2.8221,-2.8221,-2.8221,-2.8221,-2.8221,-2.8221,-2.8221,-2.8221,-2.8221,-2.8221,-2.8243,-2.8484,-2.8564,-2.8711,-2.8938,-2.9232,-2.9486,-2.9713,-2.978,-2.9847,-2.9913,-2.9686,-2.9432,-1.7687,-1.7822,-1.7996,-1.7662,-1.7582,-1.7582,-1.7582,-1.7582,-1.7542,-1.746,-1.7434,-1.7393,-1.7208,-1.7219,-1.7353,0.0,-1.8196,0.0,0.0,0.0,-2.159,-2.2325,-2.2686,-2.2928,0.0,-2.2928,-2.2928,-2.2928,-2.2928,-2.2928,-2.2928,-2.2928,-2.2928,-2.2928,-2.2928,-2.2928,-2.2928,-2.2928,-2.2928,-2.2928,-2.2928,-2.2953,-2.3113,-2.3113,-2.3273,0.0,0.0,0.0,-2.4209,-2.4369,-2.4516,-2.4636,-2.4636,-2.4636,-2.4636,-2.4636,-2.4636,-2.4636,-2.4636,-2.4917,-2.5358,-2.5812,-2.6146,-2.6386,-2.6386,-2.6386,-2.6386,-2.6386,-2.6386,-2.6386,-2.6386,-2.6386,-2.6386,-2.6386,-2.6386,-2.6426,-2.656,-2.6947,-2.7308,-2.7442,-2.7829,-2.8221,-2.8221,-2.8221,-2.8221,-2.8221,-2.8221,-2.8221,-2.8221,-2.8221,-2.8221,-2.8221,-2.8221,-2.8221,-2.8221,-2.8221,-2.8221,-2.8221,-2.8283,-2.843,-2.8604,-2.8871,-2.9152,-2.9432,-2.9606,-2.9753,-2.9913,-2.9913,-2.9847,-2.9713,-2.9553,-2.9325,-1.7702,-1.7649,-1.7649,-1.7595,-1.7582,-1.7582,-1.7582,-1.7542,-1.7448,-1.7246,0.0,0.0,0.0,-1.7021,0.0,0.0,0.0,0.0,-2.0615,-2.1283,-2.183,-2.2418,-2.2712,0.0,-2.2928,-2.2928,-2.2928,-2.2928,-2.2928,-2.2928,-2.2928,-2.2928,-2.2928,-2.2928,-2.2928,-2.2928,-2.2928,-2.2928,-2.2928,-2.2928,-2.2928,-2.2928,-2.2928,-2.2928,-2.3006,-2.326,0.0,0.0,-2.4075,-2.4168,-2.4342,-2.4569,-2.4549,-2.4636,-2.4636,-2.4636,-2.4636,-2.4636,-2.4636,-2.5024,-2.5558,-2.5812,-2.6119,-2.6386,-2.6386,-2.6386,-2.6386,-2.6386,-2.6386,-2.6386,-2.6386,-2.6386,-2.6386,-2.6386,-2.6426,-2.652,-2.6774,-2.7094,-2.7402,-2.7655,-2.7936,-2.8221,-2.8221,-2.8221,-2.8221,-2.8221,-2.8221,-2.8221,-2.8221,-2.8221,-2.8221,-2.8221,-2.8221,-2.8221,-2.8221,-2.8274,-2.8301,-2.8301,-2.8457,-2.8644,-2.8738,-2.9259,-2.9659,-2.9913,-2.9913,-2.9913,-2.9913,-2.9913,-2.9766,-2.9486,-2.9432,-2.9285,-1.7903,-1.7916,-1.7862,-1.7649,-1.7582,-1.7582,-1.7582,-1.7447,-1.7259,0.0,0.0,0.0,0.0,-1.7367,-1.7622,0.0,0.0,-2.0027,0.0,0.0,-2.2138,-2.2726,0.0,-2.2928,-2.2928,-2.2928,-2.2928,-2.2928,-2.2928,-2.2928,-2.2928,-2.2928,-2.2928,-2.2928,-2.2928,-2.2928,-2.2928,-2.2928,-2.2928,-2.2928,-2.2928,-2.2928,-2.2928,-2.2928,-2.2886,-2.2953,0.0,-2.338,-2.35,-2.3995,-2.4222,-2.4289,-2.4543,-2.4636,-2.4636,-2.4636,-2.4636,-2.4636,-2.4636,-2.5024,-2.5518,-2.5558,-2.5945,-2.6386,-2.6386,-2.6386,-2.6386,-2.6386,-2.6386,-2.6386,-2.6386,-2.6386,-2.6386,-2.6386,-2.6573,-2.6774,-2.6814,-2.7255,-2.7642,-2.7696,-2.7936,-2.8221,-2.8221,-2.8221,-2.8221,-2.8221,-2.8221,-2.8221,-2.8221,-2.8221,-2.8221,-2.8221,-2.8221,-2.8221,-2.8221,-2.839,-2.8537,-2.8537,-2.8577,-2.8831,-2.9325,-2.9673,-2.9873,-2.9913,-2.9913,-2.9913,-2.9913,-2.9913,-2.9766,-2.9472,-2.9219,-2.9085,-1.7528,-1.7569,-1.7649,-1.7983,-1.7956,-1.7796,-1.7622,-1.7475,-1.7393,0.0,0.0,0.0,0.0,0.0,-1.8143,-1.9021,0.0,-2.0748,-2.1521,-2.1804,-2.2151,0.0,0.0,-2.2928,-2.2928,-2.2928,-2.2928,-2.2928,-2.2928,-2.2928,-2.2928,-2.2928,-2.2928,-2.2928,-2.2928,-2.2928,-2.2928,-2.2928,-2.2928,-2.2928,-2.2928,-2.2928,-2.2928,-2.2928,-2.2928,-2.2941,0.0,-2.3166,-2.3354,-2.3621,-2.3915,-2.4222,-2.4356,-2.4502,-2.4636,-2.4636,-2.4636,-2.4636,-2.4636,-2.5024,-2.5518,-2.5518,-2.5905,-2.6386,-2.6386,-2.6386,-2.6386,-2.6386,-2.6386,-2.6386,-2.6386,-2.6386,-2.6386,-2.6386,-2.6613,-2.6867,-2.7028,-2.7402,-2.7749,-2.7909,-2.8043,-2.8221,-2.8221,-2.8221,-2.8221,-2.8221,-2.8221,-2.8221,-2.8221,-2.8221,-2.8221,-2.8221,-2.8221,-2.8221,-2.8221,-2.827,-2.8564,-2.9045,-2.9085,-2.9205,-2.9472,-2.9766,-2.9847,-2.9686,-2.9833,-2.9913,-2.9913,-2.9753,-2.9526,-2.9245,-2.9098,-2.9045,-1.7286,-1.7246,-1.738,-1.809,-1.8103,-1.7943,-1.7983,-1.7782,-1.7555,-1.7527,0.0,0.0,0.0,-1.8009,0.0,-2.0167,-2.0989,-2.147,-2.1695,-2.1964,-2.2245,-2.2405,-2.2686,-2.2928,-2.2928,-2.2928,-2.2928,-2.2928,-2.2928,-2.2928,-2.2928,-2.2928,-2.2928,-2.2928,-2.2928,-2.2928,-2.2928,-2.2928,-2.2928,-2.2928,-2.2928,-2.2928,-2.2928,-2.2928,-2.2928,-2.2928,-2.2928,-2.2993,-2.322,-2.33,-2.3634,-2.4115,-2.4182,-2.4382,-2.4636,-2.4636,-2.4636,-2.4636,-2.4636,-2.5024,-2.5518,-2.5518,-2.5905,-2.6386,-2.6386,-2.6386,-2.6386,-2.6386,-2.6386,-2.6386,-2.6386,-2.6386,-2.6413,-2.648,-2.672,-2.7001,-2.7308,-2.7602,-2.7869,-2.8181,-2.8221,-2.8221,-2.8221,-2.8221,-2.8221,-2.8221,-2.8221,-2.8221,-2.8221,-2.8221,-2.8221,-2.8221,-2.8221,-2.8261,-2.8328,-2.8243,-2.8577,-2.9339,-2.9379,-2.9379,-2.9379,-2.9593,-2.9646,-2.9486,-2.97,-2.982,-2.982,-2.9593,-2.9325,-2.9045,-2.9045,-2.9072,-1.7475,-1.7407,-1.7286,-1.7569,-1.7635,-1.7903,-1.8998,-1.8384,-1.7729,-1.8277,0.0,0.0,0.0,-1.9074,-2.0294,-2.0935,-2.1764,-2.2231,-2.1991,0.0,-2.2699,-2.2445,-2.2686,-2.2928,-2.2928,-2.2928,-2.2928,-2.2928,-2.2928,-2.2928,-2.2928,-2.2928,-2.2928,-2.2928,-2.2928,-2.2928,-2.2928,-2.2928,-2.2928,-2.2928,-2.2928,-2.2928,-2.2928,-2.2928,-2.2928,-2.2928,-2.2928,-2.2873,-2.2926,-2.3207,-2.3514,-2.3834,-2.4102,-2.4382,-2.4636,-2.4636,-2.4636,-2.4636,-2.4636,-2.5024,-2.5518,-2.5518,-2.5905,-2.6386,-2.6386,-2.6386,-2.6386,-2.6386,-2.6386,-2.6386,-2.6386,-2.6386,-2.6453,-2.6734,-2.7014,-2.7308,-2.7602,-2.7896,-2.8207,-2.8221,-2.8221,-2.8221,-2.8221,-2.8221,-2.8221,-2.8221,-2.8221,-2.8221,-2.8221,-2.8221,-2.8221,-2.8221,-2.8221,-2.8257,-2.8551,-2.8577,-2.8711,-2.9045,-2.9072,-2.9072,-2.9072,-2.9085,-2.9219,-2.9486,-2.9499,-2.9513,-2.9513,-2.9499,-2.9325,-2.9045,-2.9045,-2.9192,-1.7007,-1.6954,-1.7074,-1.7929,-1.8009,-1.8036,-1.8677,-1.8611,-1.8531,-1.8945,-1.8851,0.0,0.0,0.0,-2.0695,-2.1283,-2.1964,-2.2378,-2.2271,-2.2605,-2.2686,-2.2205,-2.2405,-2.2579,-2.2579,-2.2579,-2.2579,-2.2579,-2.2752,-2.2779,-2.2592,-2.2766,-2.2928,-2.2928,-2.2928,-2.2928,-2.2928,-2.2928,-2.2928,-2.2928,-2.2928,-2.2928,-2.2928,-2.2928,-2.2928,-2.2928,-2.2928,-2.2928,-2.2941,-2.2993,-2.3327,-2.3821,-2.4289,-2.4543,-2.4636,-2.4636,-2.4636,-2.4636,-2.4636,-2.5024,-2.5518,-2.5518,-2.5905,-2.6386,-2.6386,-2.6386,-2.6386,-2.6386,-2.6386,-2.6386,-2.6386,-2.652,-2.668,-2.68,-2.7188,-2.7562,-2.7669,-2.7936,-2.8221,-2.8221,-2.8221,-2.8221,-2.8221,-2.8221,-2.8221,-2.8221,-2.8221,-2.8221,-2.8221,-2.8221,-2.8221,-2.8221,-2.8221,-2.8274,-2.831,-2.8323,-2.8364,-2.847,-2.8831,-2.8965,-2.8778,-2.8938,-2.9005,-2.8938,-2.9112,-2.9205,-2.9205,-2.9205,-2.9152,-2.9045,-2.9232,-2.9379,-1.6567,-1.65,-1.6673,-1.7675,-1.7916,-1.805,-1.8637,-1.8918,-1.9199,-1.9679,-1.9626,-1.9586,-1.988,0.0,0.0,0.0,-2.2044,-2.2418,-2.2418,-2.2672,-2.2713,-2.2058,-2.2245,-2.2378,-2.2298,-2.2285,-2.2325,-2.2405,-2.2605,-2.2672,-2.2565,-2.2752,-2.2928,-2.2928,-2.2928,-2.2928,-2.2928,-2.2928,-2.2928,-2.2928,-2.2928,-2.2928,-2.2928,-2.2928,-2.2928,-2.2928,-2.2928,-2.2928,-2.2928,-2.2928,-2.3289,-2.3834,-2.4409,-2.4636,-2.4636,-2.4636,-2.4636,-2.4636,-2.4636,-2.5024,-2.5518,-2.5518,-2.5905,-2.6386,-2.6386,-2.6386,-2.6386,-2.6386,-2.6386,-2.6386,-2.6386,-2.66,-2.6841,-2.6934,-2.7335,-2.7722,-2.7816,-2.8003,-2.8221,-2.8221,-2.8221,-2.8221,-2.8221,-2.8221,-2.8221,-2.8221,-2.8221,-2.8221,-2.8221,-2.8221,-2.8221,-2.8221,-2.8221,-2.8221,-2.8221,-2.8221,-2.8221,-2.8221,-2.8524,-2.8671,-2.847,-2.8657,-2.8711,-2.8604,-2.8804,-2.8898,-2.8898,-2.8991,-2.9045,-2.9045,-2.9352,-2.9539,-1.6321,-1.6059,-1.5931,-1.6567,-1.7154,-1.7903,-1.9105,-1.943,-1.9626,-2.0508,-2.0214,-1.9893,-2.0187,-2.0481,0.0,-2.1521,-2.2044,-2.2418,-2.2418,-2.2672,-2.2645,-2.2058,-2.2245,-2.2298,-2.2017,-2.1991,-2.2111,-2.2392,-2.2418,-2.2552,-2.2914,-2.2928,-2.2928,-2.2928,-2.2928,-2.2928,-2.2928,-2.2928,-2.2928,-2.2928,-2.2928,-2.2928,-2.2928,-2.2928,-2.2928,-2.2928,-2.2928,-2.2928,-2.2928,-2.2928,-2.322,-2.3834,-2.4409,-2.4636,-2.4636,-2.4636,-2.4636,-2.4636,-2.4636,-2.5024,-2.5504,-2.5518,-2.5905,-2.6386,-2.6386,-2.6386,-2.6386,-2.6386,-2.6386,-2.6386,-2.6386,-2.66,-2.6894,-2.7201,-2.7495,-2.7789,-2.8167,-2.8221,-2.8221,-2.8221,-2.8221,-2.8221,-2.8221,-2.8221,-2.8221,-2.8221,-2.8221,-2.8221,-2.8221,-2.8221,-2.8221,-2.8221,-2.8221,-2.8221,-2.8221,-2.8221,-2.8221,-2.8221,-2.8221,-2.8221,-2.8221,-2.8221,-2.8283,-2.8591,-2.8604,-2.8604,-2.8604,-2.8898,-2.9045,-2.9045,-2.9352,-2.9646,-1.6326,-1.6353,-1.658,-1.7181,0.0,0.0,0.0,-1.9973,0.0,0.0,-2.0681,-2.0441,-2.0535,0.0,0.0,-2.1561,-2.2044,-2.2485,-2.2699,-2.2806,-2.2726,-2.2338,-2.2191,-2.2084,-2.1991,-2.1991,-2.2017,-2.2111,-2.2498,-2.2672,-2.2552,-2.2752,-2.2928,-2.2928,-2.2659,-2.2645,-2.2928,-2.2659,-2.2659,-2.2928,-2.2928,-2.2928,-2.2928,-2.2928,-2.2928,-2.2928,-2.2928,-2.2928,-2.2886,-2.31,-2.342,-2.3808,-2.4182,-2.4449,-2.4636,-2.4636,-2.4636,-2.4636,-2.4636,-2.489,-2.5237,-2.5451,-2.5772,-2.6119,-2.6333,-2.6386,-2.6386,-2.6386,-2.6386,-2.6386,-2.6386,-2.66,-2.6894,-2.7201,-2.7642,-2.8114,-2.8207,-2.8221,-2.8221,-2.8221,-2.8221,-2.8221,-2.8221,-2.8221,-2.8221,-2.8221,-2.8221,-2.8221,-2.8221,-2.8221,-2.8221,-2.8221,-2.8221,-2.8221,-2.8221,-2.8221,-2.8221,-2.8221,-2.8221,-2.8221,-2.8221,-2.8221,-2.8274,-2.8283,-2.8283,-2.8283,-2.8283,-2.8791,-2.9045,-2.9045,-2.9553,-2.9833,-1.6656,-1.6804,-1.7021,-1.7622,-1.8343,-1.9185,-2.0187,0.0,0.0,0.0,-2.0882,-2.0708,-2.0828,-2.0895,0.0,-2.1547,-2.1844,-2.2178,-2.2472,-2.2512,-2.2445,-2.2271,-2.2098,-2.1991,-2.1991,-2.1991,-2.2031,-2.2151,-2.2485,-2.2659,-2.2605,-2.2645,-2.2686,-2.2686,-2.2405,-2.2338,-2.2512,-2.2338,-2.2392,-2.2686,-2.2686,-2.2752,-2.2928,-2.2928,-2.2928,-2.2928,-2.2928,-2.2928,-2.2886,-2.3193,-2.35,-2.3794,-2.4088,-2.4382,-2.4636,-2.4636,-2.4636,-2.4636,-2.4636,-2.4836,-2.513,-2.5424,-2.5718,-2.609,-2.6306,-2.6386,-2.6386,-2.6386,-2.6386,-2.6386,-2.6386,-2.66,-2.6894,-2.7201,-2.7629,-2.8003,-2.8207,-2.8221,-2.8221,-2.8221,-2.8221,-2.8221,-2.8221,-2.8221,-2.8221,-2.8221,-2.8221,-2.8221,-2.8221,-2.8221,-2.8221,-2.8221,-2.8221,-2.8221,-2.8221,-2.8221,-2.8221,-2.8221,-2.8221,-2.8221,-2.8221,-2.8221,-2.8221,-2.8221,-2.8221,-2.8221,-2.8221,-2.8751,-2.9045,-2.8971,-2.9646,-2.9913,-1.7018,-1.7206,-1.7393,-1.7916,-1.8555,0.0,-2.0468,-2.0922,-2.1109,-2.1109,0.0,-2.0802,-2.1069,-2.0922,-2.0935,-2.1534,-2.1641,-2.1748,-2.1951,-2.1991,-2.1991,-2.1991,-2.1964,-2.1951,-2.1977,-2.1991,-2.2111,-2.2392,-2.2445,0.0,-2.2806,-2.2565,-2.2405,-2.2378,-2.2098,-2.1964,-2.1991,-2.1964,-2.2111,-2.2418,-2.2418,-2.2579,-2.2928,-2.2928,-2.2928,-2.2928,-2.2928,-2.2928,-2.2954,-2.3166,-2.346,-2.3754,-2.4048,-2.4342,-2.4596,-2.4623,-2.4636,-2.4636,-2.4636,-2.481,-2.509,-2.5384,-2.5678,-2.605,-2.6266,-2.6373,-2.6386,-2.6386,-2.6386,-2.6386,-2.6386,-2.6587,-2.6867,-2.7188,-2.7482,-2.7776,-2.8167,-2.8221,-2.8221,-2.8221,-2.8221,-2.8221,-2.8221,-2.8221,-2.8221,-2.8221,-2.8221,-2.8221,-2.8221,-2.8221,-2.8221,-2.8221,-2.8221,-2.8221,-2.8221,-2.8221,-2.8221,-2.8221,-2.8221,-2.8221,-2.8221,-2.8221,-2.8221,-2.8221,-2.8221,-2.8221,-2.8221,-2.8751,-2.9045,-2.8971,-2.9646,-2.9913,-1.6767,-1.7141,-1.7689,-1.8531,-1.9519,-2.0428,-2.0909,-2.1069,-2.1109,-2.1109,-2.1056,-2.1029,-2.1096,-2.1243,-2.1467,-2.1601,-2.1815,-2.1911,-2.1977,-2.1991,-2.1991,-2.1991,-2.1777,-2.1802,-2.1964,-2.1991,-2.2111,0.0,0.0,0.0,-2.2525,-2.2458,-2.2311,-2.2084,-2.1804,-2.1815,-2.1977,-2.1764,-2.1911,0.0,-2.2418,-2.2579,-2.2928,-2.2928,-2.2928,-2.2928,-2.2928,-2.2928,-2.2928,-2.2939,-2.314,-2.3447,-2.3741,-2.4035,-2.4329,-2.4556,-2.4636,-2.4636,-2.4636,-2.4676,-2.4783,-2.5077,-2.5371,-2.5665,-2.5959,-2.6213,-2.6386,-2.6386,-2.6386,-2.6386,-2.6386,-2.644,-2.6613,-2.7148,-2.7482,-2.7776,-2.8167,-2.8221,-2.8221,-2.8221,-2.8221,-2.8221,-2.8221,-2.8221,-2.8221,-2.8221,-2.8221,-2.8221,-2.8221,-2.8221,-2.8221,-2.8221,-2.8221,-2.8221,-2.8221,-2.8221,-2.8221,-2.8221,-2.8221,-2.8221,-2.8221,-2.8221,-2.8221,-2.8221,-2.8221,-2.8221,-2.8221,-2.8751,-2.9045,-2.8971,-2.9646,-2.9913,-1.7194,-1.7569,0.0,-1.9252,0.0,-2.0748,-2.1042,-2.1109,-2.1109,-2.1109,-2.1109,-2.1109,-2.1109,-2.1229,-2.1336,-2.1336,-2.147,-2.1563,-2.1563,-2.1563,-2.1617,-2.1764,-2.1708,-2.1735,-2.1951,-2.1991,0.0,0.0,0.0,-2.2378,-2.2218,-2.2084,-2.1937,-2.1777,-2.1496,-2.1416,-2.1563,-2.1416,-2.1563,-2.2004,-2.2151,-2.2445,-2.2928,-2.2928,-2.2928,-2.2928,-2.2928,-2.2928,-2.2928,-2.2928,-2.3046,-2.3354,-2.3661,-2.3941,-2.4235,-2.4529,-2.4636,-2.4636,-2.4636,-2.4636,-2.469,-2.4983,-2.5277,-2.5571,-2.5865,-2.6159,-2.6386,-2.6386,-2.6386,-2.6386,-2.6386,-2.6386,-2.6533,-2.7121,-2.7375,-2.7615,-2.8127,-2.8221,-2.8221,-2.8221,-2.8221,-2.8221,-2.8221,-2.8221,-2.8221,-2.8221,-2.8221,-2.8221,-2.8221,-2.8221,-2.8221,-2.8221,-2.8221,-2.8221,-2.8221,-2.8221,-2.8221,-2.8221,-2.8221,-2.8221,-2.8221,-2.8221,-2.8221,-2.8221,-2.8221,-2.8221,-2.8221,-2.8751,-2.9045,-2.8971,-2.9646,-2.9913,-1.7594,-1.7955,-1.8475,-1.9834,-2.0454,0.0,-2.1042,-2.1109,-2.1109,-2.1109,-2.1109,-2.1109,-2.1109,-2.1109,-2.1109,-2.1109,-2.1109,-2.1109,-2.1109,-2.1109,-2.1203,-2.1507,-2.1534,-2.159,-2.1884,0.0,0.0,0.0,0.0,-2.1964,-2.1911,-2.1748,-2.1601,-2.1547,-2.1243,-2.1109,-2.1109,-2.1109,-2.1256,-2.1614,-2.1897,-2.2338,-2.2928,-2.2928,-2.2928,-2.2928,-2.2928,-2.2928,-2.2928,-2.2928,-2.3006,-2.3273,-2.3581,-2.3875,-2.4168,-2.4449,-2.4596,-2.4636,-2.4636,-2.4636,-2.4676,-2.493,-2.5237,-2.5558,-2.5798,-2.6119,-2.6386,-2.6386,-2.6386,-2.6386,-2.6386,-2.6386,-2.6533,-2.7121,-2.7228,-2.7348,-2.7936,-2.8194,-2.8207,-2.8154,-2.8194,-2.8221,-2.8221,-2.8221,-2.8221,-2.8221,-2.8221,-2.8221,-2.8221,-2.8221,-2.8221,-2.8221,-2.8221,-2.8221,-2.8221,-2.8221,-2.8221,-2.8221,-2.8221,-2.8221,-2.8221,-2.8221,-2.8221,-2.8221,-2.8221,-2.8248,-2.8315,-2.8778,-2.9072,-2.9125,-2.9673,-2.9913,-1.6831,0.0,-1.9038,0.0,-2.0454,-2.0748,0.0,0.0,-2.1109,0.0,-2.1109,-2.1109,-2.1109,-2.1109,-2.1109,-2.1109,-2.1109,-2.1109,-2.1109,-2.1109,-2.1122,-2.1162,-2.1162,-2.1283,0.0,0.0,0.0,0.0,-2.1991,-2.1884,-2.1695,-2.1641,-2.1494,-2.1176,-2.1136,-2.1109,-2.1109,-2.1109,-2.1256,-2.1628,-2.2098,-2.2539,-2.2928,-2.2928,-2.2928,-2.2928,-2.2928,-2.2928,-2.2928,-2.2928,-2.2886,-2.2953,-2.326,-2.3567,-2.3861,-2.4155,-2.4422,-2.4636,-2.4636,-2.4636,-2.4649,-2.469,-2.5064,-2.5518,-2.5558,-2.5959,-2.6386,-2.6386,-2.6386,-2.6386,-2.6386,-2.6386,-2.6533,-2.7121,-2.7068,-2.7041,-2.7629,-2.7963,-2.8154,-2.7802,-2.7963,-2.8221,-2.8221,-2.8221,-2.8221,-2.8221,-2.8221,-2.8221,-2.8221,-2.8221,-2.8221,-2.8221,-2.8221,-2.8221,-2.8221,-2.8221,-2.8221,-2.8221,-2.8221,-2.8221,-2.8221,-2.8221,-2.8221,-2.8221,-2.8221,-2.827,-2.8551,-2.8871,-2.9179,-2.9432,-2.9766,-2.9913,-1.7042,-1.8036,-1.9092,0.0,-2.0334,-2.0708,-2.0842,0.0,-2.1109,-2.1109,-2.1109,-2.1109,-2.1109,-2.1109,-2.1109,-2.1109,-2.1109,-2.1109,-2.1109,-2.1109,-2.1109,-2.1109,-2.1109,0.0,0.0,0.0,0.0,0.0,-2.1496,-2.1443,-2.1309,-2.1309,-2.1243,-2.1109,-2.1109,-2.1109,-2.1109,-2.1109,-2.1256,-2.1614,-2.1817,-2.2178,-2.2619,-2.2619,-2.2699,-2.2928,-2.2928,-2.2928,-2.2928,-2.2928,-2.2928,-2.2968,-2.3207,-2.3514,-2.3808,-2.4102,-2.4382,-2.4636,-2.4636,-2.4636,-2.4636,-2.4636,-2.4917,-2.5304,-2.5464,-2.5812,-2.6186,-2.6346,-2.6386,-2.6386,-2.6386,-2.6386,-2.6493,-2.6921,-2.6921,-2.6934,-2.7362,-2.7682,-2.7909,-2.7936,-2.814,-2.8221,-2.8221,-2.8221,-2.8221,-2.8221,-2.8221,-2.8221,-2.8221,-2.8221,-2.8221,-2.8221,-2.8221,-2.8221,-2.8221,-2.8221,-2.8221,-2.8221,-2.8221,-2.8221,-2.8221,-2.8221,-2.8221,-2.8221,-2.831,-2.847,-2.8604,-2.9072,-2.9352,-2.9486,-2.978,-2.9913,0.0,0.0,-1.8557,-1.9372,-1.996,-2.0401,0.0,0.0,-2.1015,0.0,-2.1109,-2.1109,-2.1109,-2.1109,-2.1109,-2.1109,-2.1109,-2.1109,-2.1109,-2.1109,-2.1109,-2.1109,0.0,0.0,0.0,0.0,0.0,0.0,-2.1109,-2.1109,-2.1109,-2.1109,-2.1109,-2.1109,-2.1109,-2.1109,-2.1109,-2.1109,-2.1256,-2.1614,-2.1695,-2.1924,-2.2418,-2.2498,-2.2645,-2.2928,-2.2928,-2.2928,-2.2928,-2.2928,-2.2928,-2.2954,-2.3113,-2.3434,-2.3794,-2.4008,-2.4329,-2.4636,-2.4636,-2.4636,-2.4636,-2.4636,-2.4836,-2.513,-2.5424,-2.5718,-2.609,-2.6306,-2.6386,-2.6386,-2.6386,-2.6386,-2.6466,-2.6747,-2.6827,-2.6921,-2.7295,-2.7549,-2.7789,-2.8167,-2.8221,-2.8221,-2.8221,-2.8221,-2.8221,-2.8221,-2.8221,-2.8221,-2.8221,-2.8221,-2.8221,-2.8221,-2.8221,-2.8221,-2.8221,-2.8221,-2.8221,-2.8221,-2.8221,-2.8221,-2.8221,-2.8301,-2.8257,-2.8257,-2.8631,-2.8791,-2.8724,-2.9232,-2.9526,-2.9606,-2.982,-2.9913,0.0,-1.6729,0.0,-1.8611,-1.9199,0.0,0.0,0.0,-2.0775,-2.1056,-2.1109,-2.1109,-2.1109,-2.1109,-2.1109,-2.1109,-2.1109,-2.1109,-2.1109,-2.1109,-2.1109,0.0,0.0,0.0,0.0,0.0,0.0,0.0,-2.1109,-2.1109,-2.1109,-2.1109,-2.1109,-2.1109,-2.1109,-2.1109,-2.1109,-2.1109,-2.1256,-2.1614,-2.183,-2.2124,-2.2432,-2.2712,-2.2846,-2.2928,-2.2928,-2.2928,-2.2928,-2.2928,-2.2928,-2.2928,-2.2954,-2.3247,-2.3768,-2.3794,-2.4155,-2.4636,-2.4636,-2.4636,-2.4636,-2.4636,-2.4836,-2.513,-2.5424,-2.5718,-2.609,-2.6306,-2.6386,-2.6386,-2.6386,-2.6386,-2.6466,-2.6747,-2.6827,-2.6974,-2.7549,-2.7682,-2.7789,-2.8167,-2.8221,-2.8221,-2.8221,-2.8221,-2.8221,-2.8221,-2.8221,-2.8221,-2.8221,-2.8221,-2.8221,-2.8221,-2.8221,-2.8221,-2.8221,-2.8221,-2.8221,-2.8221,-2.8221,-2.8221,-2.8221,-2.843,-2.8577,-2.8577,-2.9138,-2.9299,-2.9018,-2.9325,-2.9619,-2.99,-2.9913,-2.9913,0.0,0.0,0.0,-1.7661,-1.8437,-1.9172,-1.9479,-1.9987,-2.0481,-2.0775,-2.0828,-2.0895,-2.1069,-2.1109,-2.1109,-2.1109,-2.1109,-2.1109,-2.1109,-2.1109,0.0,0.0,0.0,0.0,0.0,0.0,0.0,0.0,0.0,-2.1109,-2.1109,-2.1109,-2.1109,-2.1109,-2.1109,-2.1109,-2.1109,-2.1109,-2.1162,-2.1269,-2.1563,-2.1764,-2.1871,-2.2164,-2.2405,-2.2579,-2.2579,-2.2686,-2.2928,-2.2928,-2.2928,-2.2928,-2.2928,-2.3303,-2.3768,-2.3768,-2.4142,-2.4636,-2.4636,-2.4636,-2.4636,-2.4636,-2.4836,-2.513,-2.5424,-2.5718,-2.609,-2.6306,-2.6386,-2.6386,-2.6386,-2.6386,-2.6466,-2.6747,-2.7108,-2.7442,-2.7655,-2.7856,-2.81,-2.8207,-2.8221,-2.8221,-2.8221,-2.8221,-2.8167,-2.7883,-2.8016,-2.8154,-2.7883,-2.8114,-2.8221,-2.8221,-2.8221,-2.8221,-2.8221,-2.8221,-2.8221,-2.8221,-2.8323,-2.8444,-2.8444,-2.8724,-2.8885,-2.8885,-2.9272,-2.9432,-2.9325,-2.9619,-2.982,-2.9913,-2.9913,-2.9913,-1.5923,0.0,0.0,0.0,0.0,-1.849,-1.9078,0.0,-2.0054,-2.0454,-2.0601,-2.0735,-2.0922,-2.1042,-2.1109,-2.1109,-2.1109,-2.1109,-2.1109,0.0,0.0,0.0,0.0,0.0,0.0,0.0,0.0,0.0,0.0,0.0,-2.1109,-2.1109,-2.1109,-2.1109,-2.1109,-2.1109,-2.1109,-2.1109,-2.1162,-2.1256,-2.1563,-2.1762,-2.1775,-2.2098,-2.2325,-2.2432,-2.2525,-2.2686,-2.2928,-2.2928,-2.2928,-2.2928,-2.2928,-2.3303,-2.3768,-2.3768,-2.4142,-2.4636,-2.4636,-2.4636,-2.4649,-2.4756,-2.4917,-2.5157,-2.5545,-2.5798,-2.609,-2.6306,-2.6386,-2.6386,-2.6386,-2.6466,-2.6627,-2.7028,-2.7415,-2.7722,-2.7829,-2.8003,-2.8221,-2.8221,-2.8221,-2.8221,-2.8221,-2.8221,-2.8154,-2.7883,-2.81,-2.8154,-2.7869,-2.8016,-2.8221,-2.8221,-2.8221,-2.8221,-2.8221,-2.8221,-2.8274,-2.8297,-2.8497,-2.8644,-2.8751,-2.9032,-2.9192,-2.9192,-2.9472,-2.9633,-2.9633,-2.982,-2.9913,-2.9913,-2.9913,-2.9913,0.0,0.0,0.0,0.0,0.0,0.0,-1.9305,0.0,-1.9479,-2.0067,-2.0428,-2.0628,-2.0655,-2.0895,-2.1096,-2.1096,-2.1096,-2.1109,-2.1109,0.0,0.0,0.0,0.0,0.0,0.0,0.0,0.0,0.0,-2.1109,-2.1109,-2.1109,-2.1109,-2.1109,-2.1109,-2.1109,-2.1109,-2.1109,-2.1109,-2.1256,-2.1614,-2.1844,-2.1977,-2.1991,-2.2565,-2.2672,-2.2418,-2.2712,-2.2846,-2.2928,-2.2928,-2.2928,-2.2928,-2.2928,-2.3303,-2.3768,-2.3768,-2.4142,-2.4636,-2.4636,-2.4636,-2.469,-2.4983,-2.509,-2.5197,-2.5785,-2.6037,-2.6104,-2.6306,-2.6386,-2.6386,-2.64,-2.6627,-2.6987,-2.7562,-2.7709,-2.7789,-2.8167,-2.8221,-2.8221,-2.8221,-2.8221,-2.8221,-2.8221,-2.8221,-2.8221,-2.8221,-2.8207,-2.8207,-2.8207,-2.8207,-2.8221,-2.8221,-2.8221,-2.8221,-2.8221,-2.8234,-2.8283,-2.8591,-2.8617,-2.8764,-2.9045,-2.9339,-2.9499,-2.9499,-2.9766,-2.9913,-2.9913,-2.9913,-2.9913,-2.9913,-2.9913,-2.9913,-1.5605,0.0,0.0,0.0,0.0,0.0,0.0,0.0,-1.8303,-1.9118,-1.9345,-1.9599,-2.0241,-2.0601,-2.0802,-2.0802,-2.0975,-2.1109,0.0,0.0,0.0,0.0,0.0,0.0,0.0,0.0,0.0,0.0,-2.1109,-2.1109,-2.1109,-2.1109,-2.1109,-2.1109,-2.1109,-2.1109,-2.1109,-2.1109,-2.1256,-2.1614,-2.1695,-2.1735,-2.1748,-2.1909,-2.1977,-2.2111,-2.2191,-2.2472,-2.2928,-2.2928,-2.2928,-2.2928,-2.2928,-2.3303,-2.3768,-2.3768,-2.4142,-2.4636,-2.4636,-2.4636,-2.469,-2.4983,-2.5224,-2.5464,-2.5838,-2.6106,-2.6279,-2.6373,-2.6386,-2.644,-2.6653,-2.7081,-2.7495,-2.7655,-2.7856,-2.8127,-2.8207,-2.8221,-2.8221,-2.8221,-2.8221,-2.8221,-2.8221,-2.8221,-2.8154,-2.7856,-2.7816,-2.7816,-2.7816,-2.7816,-2.7896,-2.8207,-2.8221,-2.8221,-2.8221,-2.835,-2.8511,-2.8604,-2.9005,-2.9272,-2.9352,-2.9646,-2.9793,-2.9793,-2.9873,-2.9913,-2.9913,-2.9913,-2.9913,-2.9913,-2.9913,-2.9913,-1.5807,0.0,0.0,0.0,0.0,0.0,0.0,-1.7565,0.0,0.0,-1.9118,-1.9439,-1.996,-2.0294,-2.0535,-2.0655,-2.0815,0.0,0.0,0.0,0.0,0.0,0.0,0.0,0.0,-2.1109,-2.1109,-2.1109,-2.1109,-2.1109,-2.1109,-2.1109,-2.1109,-2.1109,-2.1109,-2.1109,-2.1109,-2.1109,-2.1256,-2.1614,-2.1614,-2.1681,-2.1802,-2.1802,-2.1897,-2.2164,-2.2164,-2.2432,-2.2928,-2.2928,-2.2928,-2.2873,-2.3006,-2.3354,-2.3781,-2.3915,-2.4249,-2.4636,-2.4636,-2.4716,-2.4863,-2.517,-2.5451,-2.5758,-2.6052,-2.6253,-2.6386,-2.6386,-2.648,-2.6667,-2.7081,-2.7442,-2.7722,-2.7856,-2.81,-2.8221,-2.8221,-2.8221,-2.8221,-2.8221,-2.8221,-2.8221,-2.8221,-2.8221,-2.8167,-2.7909,-2.7883,-2.7883,-2.7883,-2.7883,-2.7949,-2.8207,-2.8221,-2.8221,-2.8221,-2.843,-2.8657,-2.8778,-2.9232,-2.9539,-2.9659,-2.982,-2.9913,-2.9913,-2.9913,-2.9913,-2.9913,-2.9913,-2.9913,-2.9913,-2.9913,-2.9913,-1.6155,-1.6226,0.0,0.0,0.0,0.0,-1.7918,-1.8208,-1.8319,0.0,-1.9149,-1.9537,-1.9546,-1.9826,-2.012,-2.0388,-2.0548,0.0,0.0,0.0,0.0,0.0,0.0,0.0,-2.1109,-2.1109,-2.1109,-2.1109,-2.1109,-2.1109,-2.1109,-2.1109,-2.1109,-2.1109,-2.1109,-2.1109,-2.1109,-2.1149,-2.1296,-2.1614,-2.1655,-2.1802,-2.1991,-2.1991,-2.2151,-2.2418,-2.2418,-2.2592,-2.2928,-2.2928,-2.2928,-2.2968,-2.3207,-2.3514,-2.3808,-2.4102,-2.4382,-2.4636,-2.4636,-2.4836,-2.513,-2.5424,-2.5718,-2.609,-2.6306,-2.6386,-2.64,-2.6426,-2.664,-2.7001,-2.7562,-2.7722,-2.7816,-2.8167,-2.8221,-2.8221,-2.8221,-2.8221,-2.8221,-2.8221,-2.8221,-2.8221,-2.8221,-2.8221,-2.8221,-2.8221,-2.8194,-2.8194,-2.8221,-2.8194,-2.8194,-2.8221,-2.8221,-2.8221,-2.8221,-2.8457,-2.8764,-2.9018,-2.9352,-2.9646,-2.99,-2.9913,-2.9913,-2.9913,-2.9913,-2.9913,-2.9913,-2.9913,-2.9913,-2.9913,-2.9913,-2.9913,-1.6683,-1.6579,-1.6475,-1.6639,0.0,0.0,-1.6597,-1.6953,-1.7363,0.0,-1.7544,-1.7723,-1.7983,-1.8464,-1.8851,-1.8905,0.0,0.0,0.0,0.0,0.0,0.0,0.0,0.0,-2.1109,-2.1109,-2.1109,-2.1109,-2.1109,-2.1109,-2.1109,-2.1109,-2.1109,-2.1109,-2.1109,-2.1109,-2.1109,-2.1349,-2.1561,-2.1614,-2.179,-2.1937,-2.1991,-2.1991,-2.2151,-2.2418,-2.2418,-2.2592,-2.2928,-2.2928,-2.2928,-2.2968,-2.3207,-2.3514,-2.3808,-2.4102,-2.4382,-2.4636,-2.4636,-2.4836,-2.513,-2.5424,-2.5718,-2.609,-2.6306,-2.6386,-2.644,-2.6667,-2.6947,-2.7255,-2.7602,-2.7883,-2.8154,-2.8207,-2.8221,-2.8221,-2.8221,-2.8221,-2.8221,-2.8221,-2.8221,-2.8221,-2.8221,-2.8221,-2.8221,-2.8221,-2.7936,-2.7869,-2.8194,-2.7936,-2.7883,-2.8207,-2.8221,-2.8221,-2.8221,-2.8644,-2.8978,-2.9032,-2.9539,-2.986,-2.9913,-2.9913,-2.9913,-2.9913,-2.9913,-2.9913,-2.9913,-2.9913,-2.9913,-2.9913,-2.9913,-2.9913,-1.6697,-1.6653,-1.6726,-1.7083,0.0,0.0,0.0,0.0,-1.7471,-1.7465,-1.7608,0.0,0.0,0.0,-1.8415,0.0,0.0,0.0,0.0,0.0,0.0,0.0,0.0,0.0,-2.1109,-2.1109,-2.1109,-2.1109,-2.1109,-2.1109,-2.1109,-2.1109,-2.1109,-2.1109,-2.1256,-2.1336,-2.1336,-2.1617,-2.1764,-2.1764,-2.1924,-2.1991,-2.1991,-2.1991,-2.2151,-2.2418,-2.2418,-2.2592,-2.2928,-2.2928,-2.2953,-2.3126,-2.3434,-2.3634,-2.3821,-2.4262,-2.4516,-2.4636,-2.4636,-2.493,-2.5317,-2.5464,-2.5812,-2.6199,-2.6346,-2.6493,-2.6667,-2.6961,-2.7255,-2.7549,-2.7843,-2.803,-2.8221,-2.8221,-2.8221,-2.8221,-2.8221,-2.8221,-2.8221,-2.8221,-2.8221,-2.8221,-2.8221,-2.8221,-2.8221,-2.8221,-2.81,-2.7976,-2.8207,-2.8016,-2.7976,-2.8207,-2.8221,-2.8221,-2.8221,-2.8698,-2.9045,-2.9045,-2.9593,-2.9913,-2.9913,-2.9913,-2.9913,-2.9913,-2.9913,-2.9913,-2.9913,-2.9913,-2.9913,-2.9913,-2.9913,-2.9913,0.0,0.0,0.0,0.0,0.0,-1.7523,0.0,0.0,0.0,0.0,0.0,0.0,0.0,0.0,0.0,0.0,0.0,0.0,0.0,0.0,0.0,0.0,0.0,0.0,-2.1015,-2.0975,-2.0989,-2.1096,-2.1002,-2.0989,-2.1096,-2.1162,-2.1189,-2.1189,-2.1483,-2.1695,-2.1695,-2.1924,-2.2044,-2.1991,-2.2044,-2.2044,-2.1991,-2.2044,-2.2205,-2.2418,-2.2472,-2.2645,-2.2928,-2.2928,-2.3046,-2.3354,-2.3661,-2.3808,-2.3915,-2.4436,-2.4636,-2.4649,-2.4703,-2.5064,-2.5518,-2.5585,-2.5959,-2.6386,-2.6386,-2.6587,-2.6961,-2.7581,-2.7715,-2.7846,-2.856,-2.8473,-2.8221,-2.8221,-2.8221,-2.8221,-2.8221,-2.8221,-2.8221,-2.8221,-2.8221,-2.8221,-2.8221,-2.8221,-2.8221,-2.8221,-2.8221,-2.8221,-2.8221,-2.8221,-2.8221,-2.8221,-2.8221,-2.8248,-2.823,-2.8724,-2.9072,-2.9125,-2.9619,-2.9913,-2.9913,-2.9913,-2.9913,-2.9913,-2.9913,-2.9913,-2.9913,-2.9913,-2.9913,-2.9913,-2.9913,-2.9913,0.0,0.0,0.0,0.0,-1.7999,0.0,0.0,0.0,0.0,0.0,0.0,0.0,0.0,0.0,0.0,0.0,0.0,0.0,0.0,0.0,0.0,0.0,0.0,0.0,0.0,-2.0481,-2.0548,-2.1069,-2.0628,-2.0561,-2.1082,-2.1363,-2.1561,-2.1561,-2.1777,-2.1937,-2.1937,-2.2218,-2.2245,-2.1991,-2.2245,-2.2231,-2.1991,-2.2258,-2.2392,-2.2432,-2.2699,-2.2832,-2.2928,-2.2928,-2.3046,-2.3354,-2.3661,-2.3928,-2.4195,-2.4516,-2.4636,-2.4676,-2.4943,-2.5237,-2.5558,-2.5825,-2.6119,-2.6386,-2.6386,-2.6587,-2.7203,-2.9105,-2.8686,-2.8095,-3.005,-2.9384,-2.8221,-2.8221,-2.8221,-2.8221,-2.8221,-2.8221,-2.8221,-2.8221,-2.8221,-2.8221,-2.8221,-2.8221,-2.8221,-2.8221,-2.8221,-2.8221,-2.8221,-2.8221,-2.8221,-2.8221,-2.8221,-2.8341,-2.8537,-2.8858,-2.9152,-2.9419,-2.974,-2.9913,-2.9913,-2.9913,-2.9913,-2.9913,-2.9913,-2.9913,-2.9913,-2.9913,-2.9913,-2.9913,-2.9913,-2.9913,0.0,0.0,0.0,0.0,0.0,0.0,-1.7677,0.0,-1.7454,0.0,0.0,0.0,0.0,0.0,0.0,0.0,0.0,0.0,0.0,0.0,0.0,0.0,0.0,0.0,0.0,0.0,0.0,0.0,-2.0468,-2.0414,-2.0828,-2.1136,-2.1376,-2.1614,-2.183,-2.2071,-2.2231,-2.2525,-2.2525,-2.2231,-2.2365,-2.2178,-2.175,-2.2205,-2.2325,-2.2191,-2.2659,-2.2928,-2.2928,-2.2928,-2.3153,-2.3594,-2.3728,-2.3941,-2.4235,-2.4529,-2.4636,-2.4676,-2.497,-2.5277,-2.5585,-2.6052,-2.6293,-2.6386,-2.6386,-2.7426,-2.8778,-2.9632,-2.9713,-2.9715,-3.0592,-2.9551,-2.8221,-2.8221,-2.8221,-2.8221,-2.8221,-2.8221,-2.8221,-2.8221,-2.8221,-2.8221,-2.8221,-2.8221,-2.8221,-2.8221,-2.8221,-2.8221,-2.8221,-2.8221,-2.8221,-2.8221,-2.8221,-2.827,-2.8577,-2.8871,-2.9165,-2.9459,-2.9753,-2.9913,-2.9913,-2.9913,-2.9913,-2.9913,-2.9913,-2.9913,-2.9913,-2.9913,-2.9913,-2.9913,-2.9913,-2.9913,-1.8335,0.0,0.0,0.0,0.0,0.0,0.0,0.0,0.0,0.0,0.0,0.0,0.0,0.0,0.0,0.0,0.0,0.0,0.0,0.0,0.0,0.0,0.0,0.0,0.0,0.0,0.0,0.0,0.0,-2.0107,-2.0641,-2.1029,-2.1363,-2.1722,-2.2031,-2.2325,-2.2539,-2.2672,-2.2632,-2.2418,-2.2258,-2.2004,-2.1748,-2.2111,-2.2231,-2.2138,-2.2645,-2.2928,-2.2941,-2.342,-2.3705,-2.3852,-2.4347,-2.4696,-2.4984,-2.513,-2.5046,-2.4871,-2.5616,-2.5818,-2.5825,-2.6253,-2.6386,-2.6479,-2.7114,-2.8523,-3.0013,-3.057,-3.0758,-3.0788,-3.0788,-2.9551,-2.8221,-2.8221,-2.8221,-2.8221,-2.8221,-2.8221,-2.8221,-2.8221,-2.8221,-2.8221,-2.8221,-2.8221,-2.8221,-2.8221,-2.8221,-2.8221,-2.8221,-2.8221,-2.8221,-2.8221,-2.8301,-2.839,-2.8698,-2.8991,-2.9285,-2.9579,-2.9806,-2.9913,-2.9913,-2.9913,-2.9913,-2.9913,-2.9913,-2.9913,-2.9913,-2.9913,-2.9913,-2.9913,-2.9913,-2.9913,0.0,0.0,0.0,-1.854,0.0,0.0,0.0,0.0,-1.7794,0.0,0.0,0.0,0.0,0.0,0.0,0.0,0.0,0.0,0.0,0.0,0.0,0.0,0.0,0.0,0.0,0.0,0.0,0.0,-1.9408,0.0,-2.0615,-2.1293,-2.1735,-2.1964,-2.2539,-2.2914,-2.2846,-2.2565,-2.2432,-2.2405,-2.1844,-2.1724,-2.1977,-2.1991,-2.2151,-2.2418,-2.2726,-2.2928,-2.3023,-2.4796,-2.4847,-2.3937,-2.5741,-2.656,-2.6779,-2.6794,-2.6055,-2.5329,-2.7112,-2.7088,-2.636,-2.6386,-2.6386,-2.6756,-2.8777,-2.9653,-3.0298,-3.2375,-3.1905,-3.0788,-3.0788,-2.9551,-2.8221,-2.8221,-2.8221,-2.8221,-2.8221,-2.8221,-2.8221,-2.8221,-2.8221,-2.8221,-2.8221,-2.8221,-2.8221,-2.8221,-2.8221,-2.8221,-2.8221,-2.8221,-2.8221,-2.8221,-2.8417,-2.8711,-2.9005,-2.9299,-2.9593,-2.9887,-2.9913,-2.9913,-2.9913,-2.9913,-2.9913,-2.9913,-2.9913,-2.9913,-2.9913,-2.9913,-2.9913,-2.9913,-2.9913,-2.9913,0.0,0.0,-1.9886,-1.914,0.0,0.0,0.0,0.0,0.0,0.0,0.0,0.0,0.0,0.0,0.0,0.0,0.0,0.0,0.0,0.0,0.0,0.0,0.0,0.0,0.0,0.0,0.0,0.0,-1.9715,0.0,-2.0347,-2.0762,-2.1283,-2.1964,-2.2178,-2.2472,-2.2928,-2.2565,-2.2325,-2.2124,-2.1802,-2.1668,-2.1775,-2.1897,-2.2151,-2.2432,-2.2726,-2.3393,-2.436,-2.5208,-2.5473,-2.5384,-2.7302,-2.7564,-2.6794,-2.5712,-2.5908,-2.6766,-2.781,-2.7424,-2.6781,-2.892,-2.892,-2.8446,-3.0495,-3.2094,-3.3299,-3.3338,-3.3224,-3.3019,-3.3019,-3.1685,-3.0289,-2.9955,-2.9886,-2.9635,-2.8473,-2.8221,-2.8221,-2.8221,-2.8221,-2.8221,-2.8221,-2.8221,-2.8221,-2.8221,-2.8221,-2.8221,-2.8221,-2.8221,-2.8221,-2.8221,-2.8417,-2.8724,-2.9018,-2.9486,-2.9806,-2.9913,-2.9913,-2.9913,-2.9913,-2.9913,-2.9913,-2.9913,-2.9913,-2.9913,-2.9913,-2.9913,-2.9913,-2.9927,-3.0114,-3.0207,-2.0241,-2.027,0.0,-1.9755,-1.9462,0.0,-1.8482,0.0,0.0,0.0,0.0,0.0,0.0,0.0,0.0,0.0,0.0,0.0,0.0,0.0,0.0,0.0,0.0,0.0,0.0,0.0,-1.9757,-2.0354,-1.9555,0.0,0.0,0.0,-2.1082,-2.1951,-2.2084,-2.2378,-2.2928,-2.2929,-2.2629,-2.1977,-2.2203,-2.2107,-2.1789,-2.2531,-2.2832,-2.266,-2.384,-2.4602,-2.5105,-2.6694,-2.7085,-2.6913,-2.8975,-2.9241,-2.846,-2.7552,-2.819,-2.9477,-2.9412,-2.8913,-2.8466,-3.0608,-3.0608,-3.0175,-3.2511,-3.4149,-3.5158,-3.5004,-3.4922,-3.488,-3.4229,-3.3085,-3.1918,-3.1037,-3.0871,-3.0538,-2.881,-2.8558,-2.8642,-2.8473,-2.8403,-2.8403,-2.8221,-2.8221,-2.8221,-2.8221,-2.8221,-2.8221,-2.8221,-2.8221,-2.8274,-2.8297,-2.8577,-2.8925,-2.9312,-2.97,-2.9913,-2.9913,-2.9913,-2.9913,-2.9913,-2.9913,-2.9913,-2.9913,-2.9913,-2.9913,-2.9913,-2.9913,-2.9913,-2.9927,-3.0221,-3.0421]},{"header":{"parameterUnit":"m.s-1","parameterCategory":1,"la1":30.6,"la2":29.2853,"lo1":-89.7004,"lo2":-87.6739,"dy":0.0162,"dx":0.0183,"nx":112,"ny":82,"refTime":"2026-03-01T12:00:00:Z","depth":0,"parameterNumber":3,"parameterNumberName":"V-component_of_WINDS"},"data":[0.0,0.0,0.0,0.0,0.0,0.0,0.0,0.0,0.0,0.0,0.0,0.0,0.0,0.0,0.0,0.0,0.0,0.0,0.0,0.0,0.0,0.0,0.0,0.0,0.0,0.0,0.0,0.0,0.0,0.0,0.0,0.0,0.0,0.0,0.0,0.0,0.0,0.0,0.0,0.0,0.0,0.0,0.0,0.0,0.0,0.0,0.0,0.0,0.0,0.0,0.0,0.0,0.0,0.0,0.0,0.0,0.0,0.0,0.0,0.0,0.0,0.0,0.0,0.0,0.0,0.0,0.0,0.0,0.0,0.0,0.0,0.0,0.0,0.0,0.0,0.0,0.0,0.0,0.0,0.0,0.0,0.0,0.0,0.0,0.0,0.0,0.0,0.0,0.0,0.0,0.0,4.7013,5.0314,5.2177,5.1547,5.1282,4.9624,4.6179,0.0,0.0,0.0,0.0,0.0,0.0,0.0,0.0,0.0,0.0,0.0,0.0,0.0,0.0,0.0,0.0,0.0,0.0,0.0,0.0,0.0,0.0,0.0,0.0,0.0,0.0,0.0,0.0,0.0,0.0,0.0,0.0,0.0,0.0,0.0,0.0,0.0,0.0,0.0,0.0,0.0,0.0,0.0,0.0,0.0,0.0,0.0,0.0,0.0,0.0,0.0,0.0,0.0,0.0,0.0,0.0,0.0,0.0,0.0,0.0,0.0,0.0,0.0,0.0,0.0,0.0,0.0,0.0,0.0,0.0,0.0,0.0,0.0,0.0,0.0,0.0,0.0,0.0,0.0,0.0,0.0,0.0,0.0,0.0,0.0,0.0,0.0,0.0,0.0,0.0,0.0,0.0,0.0,0.0,0.0,0.0,0.0,0.0,0.0,0.0,0.0,0.0,0.0,0.0,4.6281,5.0153,5.1678,5.2376,5.2243,5.1082,4.9326,4.6874,0.0,0.0,0.0,0.0,0.0,0.0,0.0,0.0,0.0,0.0,0.0,0.0,0.0,0.0,0.0,0.0,0.0,0.0,0.0,0.0,0.0,0.0,0.0,0.0,0.0,0.0,0.0,0.0,0.0,0.0,0.0,0.0,0.0,0.0,0.0,0.0,0.0,0.0,0.0,0.0,0.0,0.0,0.0,0.0,0.0,0.0,0.0,0.0,0.0,0.0,0.0,0.0,0.0,0.0,0.0,0.0,0.0,0.0,0.0,0.0,0.0,0.0,0.0,0.0,0.0,0.0,0.0,0.0,0.0,0.0,0.0,0.0,0.0,0.0,0.0,0.0,0.0,0.0,0.0,0.0,0.0,0.0,0.0,0.0,0.0,0.0,0.0,0.0,0.0,0.0,0.0,0.0,0.0,0.0,0.0,0.0,0.0,0.0,0.0,0.0,0.0,0.0,0.0,4.5483,4.7272,5.0917,5.1978,5.2409,5.2409,5.1048,4.9425,4.7603,4.5351,0.0,0.0,0.0,0.0,0.0,0.0,0.0,0.0,0.0,0.0,0.0,0.0,0.0,0.0,0.0,0.0,0.0,0.0,0.0,0.0,0.0,0.0,0.0,0.0,0.0,0.0,0.0,0.0,0.0,0.0,0.0,0.0,0.0,0.0,0.0,0.0,0.0,0.0,0.0,0.0,0.0,0.0,0.0,0.0,0.0,0.0,0.0,0.0,0.0,0.0,0.0,0.0,0.0,0.0,0.0,0.0,0.0,0.0,0.0,0.0,0.0,0.0,0.0,0.0,0.0,0.0,0.0,0.0,0.0,0.0,0.0,0.0,0.0,0.0,0.0,0.0,0.0,0.0,0.0,0.0,0.0,0.0,0.0,0.0,0.0,0.0,0.0,0.0,0.0,0.0,0.0,0.0,0.0,0.0,0.0,0.0,0.0,0.0,0.0,0.0,0.0,0.0,4.7669,4.9094,5.1512,5.2274,5.2572,5.2407,5.0717,4.9193,4.8067,4.492,0.0,0.0,0.0,0.0,0.0,0.0,0.0,0.0,0.0,0.0,0.0,0.0,0.0,0.0,0.0,0.0,0.0,0.0,0.0,0.0,0.0,0.0,0.0,0.0,0.0,0.0,0.0,0.0,0.0,0.0,0.0,0.0,0.0,0.0,0.0,0.0,0.0,0.0,0.0,0.0,0.0,0.0,0.0,0.0,0.0,0.0,0.0,0.0,0.0,0.0,0.0,0.0,0.0,0.0,0.0,0.0,0.0,0.0,0.0,0.0,0.0,0.0,0.0,0.0,0.0,0.0,0.0,0.0,0.0,0.0,0.0,0.0,0.0,0.0,0.0,0.0,0.0,0.0,0.0,0.0,0.0,0.0,0.0,0.0,0.0,0.0,0.0,0.0,0.0,0.0,0.0,0.0,0.0,0.0,0.0,0.0,0.0,0.0,0.0,0.0,0.0,0.0,4.9889,5.2307,5.3169,5.3301,5.3069,5.244,4.979,4.81,4.8001,4.3959,0.0,0.0,0.0,0.0,0.0,0.0,0.0,0.0,0.0,0.0,0.0,0.0,0.0,0.0,0.0,0.0,0.0,0.0,0.0,0.0,0.0,0.0,0.0,0.0,0.0,0.0,0.0,0.0,0.0,0.0,0.0,0.0,0.0,0.0,0.0,0.0,0.0,0.0,0.0,0.0,0.0,0.0,0.0,0.0,0.0,0.0,0.0,0.0,0.0,0.0,0.0,0.0,0.0,0.0,0.0,0.0,0.0,0.0,0.0,0.0,0.0,0.0,0.0,0.0,0.0,0.0,0.0,0.0,0.0,0.0,0.0,0.0,0.0,0.0,0.0,0.0,0.0,0.0,0.0,0.0,0.0,0.0,0.0,0.0,0.0,0.0,0.0,0.0,0.0,0.0,0.0,0.0,0.0,0.0,0.0,0.0,0.0,0.0,0.0,0.0,0.0,0.0,4.9326,5.1645,0.0,5.34,5.3135,5.2475,5.0551,4.8796,4.7404,0.0,0.0,0.0,0.0,0.0,0.0,0.0,0.0,0.0,0.0,0.0,0.0,0.0,0.0,0.0,0.0,0.0,0.0,0.0,0.0,0.0,0.0,0.0,0.0,0.0,0.0,0.0,0.0,0.0,0.0,0.0,0.0,0.0,0.0,0.0,0.0,0.0,0.0,0.0,0.0,0.0,0.0,0.0,0.0,0.0,0.0,0.0,0.0,0.0,0.0,0.0,0.0,0.0,0.0,0.0,0.0,0.0,0.0,0.0,0.0,0.0,0.0,0.0,0.0,0.0,0.0,0.0,0.0,0.0,0.0,0.0,0.0,0.0,0.0,0.0,0.0,0.0,0.0,0.0,0.0,0.0,0.0,0.0,0.0,0.0,0.0,0.0,0.0,0.0,0.0,0.0,0.0,0.0,0.0,0.0,0.0,0.0,0.0,0.0,0.0,0.0,0.0,4.7347,5.0225,5.2701,0.0,5.4192,5.3748,5.3318,5.1462,4.9458,4.7467,0.0,0.0,0.0,0.0,0.0,0.0,0.0,0.0,0.0,0.0,0.0,0.0,0.0,0.0,0.0,0.0,0.0,0.0,0.0,0.0,0.0,0.0,0.0,0.0,0.0,0.0,0.0,0.0,0.0,0.0,0.0,0.0,0.0,0.0,0.0,0.0,0.0,0.0,0.0,0.0,0.0,0.0,0.0,0.0,0.0,0.0,0.0,0.0,0.0,0.0,0.0,0.0,0.0,0.0,0.0,0.0,0.0,0.0,0.0,0.0,0.0,0.0,0.0,0.0,0.0,0.0,0.0,0.0,0.0,0.0,0.0,0.0,0.0,0.0,0.0,0.0,0.0,0.0,0.0,0.0,0.0,0.0,0.0,0.0,0.0,0.0,0.0,0.0,0.0,0.0,0.0,0.0,0.0,0.0,0.0,0.0,0.0,0.0,0.0,0.0,0.0,0.0,4.9099,5.3299,5.6372,5.7123,5.5984,5.5116,5.5116,5.2328,4.9977,0.0,0.0,0.0,0.0,0.0,0.0,0.0,0.0,0.0,0.0,0.0,0.0,0.0,0.0,0.0,0.0,0.0,0.0,0.0,0.0,0.0,0.0,0.0,0.0,0.0,0.0,0.0,0.0,0.0,0.0,0.0,0.0,0.0,0.0,0.0,0.0,0.0,0.0,0.0,0.0,0.0,0.0,0.0,0.0,0.0,0.0,0.0,0.0,0.0,0.0,0.0,0.0,0.0,0.0,0.0,0.0,0.0,0.0,0.0,0.0,0.0,0.0,0.0,0.0,0.0,0.0,0.0,0.0,0.0,0.0,0.0,0.0,0.0,0.0,0.0,0.0,0.0,0.0,0.0,0.0,0.0,0.0,0.0,0.0,0.0,0.0,0.0,0.0,0.0,0.0,0.0,0.0,0.0,0.0,0.0,0.0,0.0,0.0,0.0,0.0,0.0,0.0,0.0,4.9774,5.4472,5.7727,5.7934,5.708,5.6293,5.5775,5.3555,5.096,4.8186,0.0,0.0,0.0,0.0,0.0,0.0,0.0,0.0,0.0,0.0,0.0,0.0,0.0,0.0,0.0,0.0,0.0,0.0,0.0,0.0,0.0,0.0,0.0,0.0,0.0,0.0,0.0,0.0,0.0,0.0,0.0,0.0,0.0,0.0,0.0,0.0,0.0,0.0,0.0,0.0,0.0,0.0,0.0,0.0,0.0,0.0,0.0,0.0,0.0,0.0,0.0,0.0,0.0,0.0,0.0,0.0,0.0,0.0,0.0,0.0,0.0,0.0,0.0,0.0,0.0,0.0,0.0,0.0,0.0,0.0,0.0,0.0,0.0,0.0,0.0,0.0,0.0,0.0,0.0,0.0,0.0,0.0,0.0,0.0,0.0,0.0,0.0,0.0,0.0,0.0,0.0,0.0,0.0,0.0,0.0,0.0,0.0,0.0,0.0,0.0,0.0,0.0,5.0584,5.5525,5.9038,5.9319,5.8402,5.772,5.7611,5.5811,5.3171,4.9637,0.0,0.0,0.0,0.0,0.0,0.0,0.0,0.0,0.0,0.0,0.0,0.0,0.0,0.0,0.0,0.0,0.0,0.0,0.0,0.0,0.0,0.0,0.0,0.0,0.0,0.0,0.0,0.0,0.0,0.0,0.0,0.0,0.0,0.0,0.0,0.0,0.0,0.0,0.0,0.0,0.0,0.0,0.0,0.0,0.0,0.0,0.0,0.0,0.0,0.0,0.0,0.0,0.0,0.0,0.0,0.0,0.0,0.0,0.0,0.0,0.0,0.0,0.0,0.0,0.0,0.0,0.0,0.0,0.0,0.0,0.0,0.0,0.0,0.0,0.0,0.0,0.0,0.0,0.0,0.0,0.0,0.0,0.0,0.0,0.0,0.0,0.0,0.0,0.0,0.0,0.0,0.0,0.0,0.0,0.0,0.0,0.0,0.0,0.0,0.0,0.0,0.0,5.1579,5.658,6.0288,6.1003,5.985,5.9307,6.0012,5.8585,5.5976,5.2122,0.0,0.0,0.0,0.0,0.0,0.0,0.0,0.0,0.0,0.0,0.0,0.0,0.0,0.0,0.0,0.0,0.0,0.0,0.0,0.0,0.0,0.0,0.0,0.0,0.0,0.0,0.0,0.0,0.0,0.0,0.0,0.0,0.0,0.0,0.0,0.0,0.0,0.0,0.0,0.0,0.0,0.0,0.0,0.0,0.0,0.0,0.0,0.0,0.0,0.0,0.0,0.0,0.0,0.0,0.0,0.0,0.0,0.0,0.0,0.0,5.2642,0.0,0.0,0.0,0.0,0.0,0.0,0.0,0.0,0.0,0.0,0.0,0.0,0.0,0.0,0.0,0.0,0.0,0.0,0.0,0.0,0.0,0.0,0.0,0.0,0.0,0.0,0.0,0.0,0.0,0.0,0.0,0.0,0.0,0.0,0.0,0.0,0.0,0.0,0.0,0.0,0.0,5.3063,5.8093,6.1596,6.1776,6.0943,6.0428,6.0608,5.9286,5.6975,5.3493,5.0911,0.0,0.0,0.0,0.0,0.0,0.0,0.0,0.0,0.0,0.0,0.0,0.0,0.0,0.0,0.0,0.0,0.0,0.0,0.0,0.0,0.0,0.0,0.0,0.0,0.0,0.0,0.0,0.0,0.0,0.0,0.0,0.0,0.0,0.0,0.0,0.0,0.0,0.0,0.0,0.0,0.0,0.0,0.0,0.0,0.0,0.0,0.0,0.0,0.0,0.0,0.0,0.0,0.0,0.0,0.0,0.0,0.0,0.0,0.0,0.0,5.3521,0.0,0.0,0.0,0.0,0.0,0.0,0.0,0.0,0.0,0.0,0.0,0.0,0.0,0.0,0.0,0.0,0.0,0.0,0.0,0.0,0.0,0.0,0.0,0.0,0.0,0.0,0.0,0.0,0.0,0.0,0.0,0.0,0.0,0.0,0.0,0.0,0.0,0.0,0.0,0.0,5.3507,5.8565,6.1978,6.1978,6.1616,6.1362,6.1362,6.0358,5.8637,5.6113,5.3214,0.0,0.0,0.0,0.0,0.0,0.0,0.0,0.0,0.0,0.0,0.0,0.0,0.0,0.0,0.0,0.0,0.0,0.0,0.0,0.0,0.0,0.0,0.0,0.0,0.0,0.0,0.0,0.0,0.0,0.0,0.0,0.0,0.0,0.0,0.0,0.0,0.0,0.0,0.0,0.0,0.0,0.0,0.0,0.0,0.0,0.0,0.0,0.0,0.0,0.0,0.0,0.0,0.0,5.8466,5.9909,6.1272,6.3032,6.3526,6.2855,5.9302,5.7527,5.7074,5.595,0.0,0.0,0.0,0.0,0.0,0.0,0.0,0.0,0.0,0.0,0.0,0.0,0.0,0.0,0.0,0.0,0.0,0.0,0.0,0.0,0.0,0.0,0.0,0.0,5.7517,5.6436,5.1052,0.0,0.0,0.0,0.0,0.0,0.0,0.0,0.0,0.0,0.0,0.0,5.3892,5.8746,6.1978,6.1978,6.1978,6.1978,6.1978,6.1362,6.0339,5.8709,5.5884,5.3351,0.0,0.0,0.0,0.0,0.0,0.0,0.0,0.0,0.0,0.0,0.0,0.0,0.0,0.0,0.0,0.0,0.0,0.0,0.0,0.0,0.0,0.0,0.0,0.0,0.0,0.0,0.0,0.0,0.0,0.0,0.0,0.0,5.2217,5.2077,0.0,0.0,0.0,0.0,0.0,0.0,0.0,0.0,0.0,0.0,0.0,0.0,0.0,5.5943,5.806,6.0117,6.1494,6.2237,6.4498,6.5721,6.5938,6.6214,6.6641,6.7155,6.6602,0.0,6.0242,6.0182,0.0,0.0,0.0,0.0,0.0,0.0,0.0,0.0,0.0,0.0,0.0,0.0,0.0,0.0,0.0,0.0,0.0,0.0,0.0,0.0,0.0,0.0,6.2417,6.1787,6.1167,6.0522,0.0,5.4495,4.9878,4.948,4.7874,0.0,0.0,0.0,0.0,0.0,0.0,0.0,5.5414,5.9398,6.1978,6.1978,6.1978,6.1978,6.1978,6.1906,6.1145,5.9542,5.7732,5.5715,5.3387,5.0828,0.0,0.0,0.0,0.0,0.0,0.0,0.0,0.0,0.0,0.0,0.0,0.0,0.0,0.0,0.0,0.0,0.0,0.0,0.0,0.0,0.0,0.0,0.0,0.0,0.0,0.0,0.0,0.0,0.0,5.1943,5.3433,5.2326,5.3794,5.3576,0.0,0.0,0.0,0.0,0.0,0.0,0.0,0.0,0.0,5.9339,5.9511,6.0782,6.3571,6.4621,6.5496,6.6203,6.7666,6.8611,6.9048,6.952,6.9884,7.0247,7.0247,6.8793,6.6219,6.3899,6.16,5.9411,0.0,0.0,0.0,0.0,5.788,5.8674,6.0056,6.0529,6.0456,6.0238,0.0,0.0,0.0,0.0,0.0,0.0,0.0,0.0,0.0,0.0,6.4356,6.4466,6.4539,6.4393,6.3481,5.9648,5.586,0.0,5.2409,5.0417,4.7752,0.0,0.0,0.0,0.0,5.516,5.708,6.0086,6.1978,6.1978,6.1978,6.1978,6.1978,6.1978,6.1688,6.0991,5.9434,5.8094,5.708,5.4291,5.2055,0.0,0.0,0.0,0.0,0.0,0.0,0.0,0.0,0.0,0.0,0.0,0.0,0.0,0.0,0.0,0.0,0.0,0.0,0.0,0.0,0.0,0.0,0.0,0.0,0.0,0.0,0.0,0.0,5.4047,5.5302,5.3458,5.5581,5.5573,0.0,0.0,0.0,0.0,0.0,0.0,5.7608,5.7959,5.9891,6.3909,6.4018,6.5296,6.7859,6.8078,6.8515,6.9099,6.9836,7.0529,7.1149,7.1732,7.1988,7.1988,7.1988,7.1659,7.0827,6.7237,6.4763,6.323,6.1921,6.1282,6.1126,6.1266,6.1719,6.2522,6.4529,6.5049,6.4794,6.4429,6.3371,6.1463,5.7229,0.0,0.0,0.0,0.0,5.8555,6.0589,6.3221,6.5486,6.6254,6.6884,6.692,6.5532,6.3523,6.1051,0.0,5.6332,5.4259,5.0714,0.0,0.0,0.0,0.0,5.7023,5.8595,6.0735,6.2087,6.2087,6.2087,6.2087,6.2087,6.2087,6.2087,6.2087,6.1171,6.0445,6.0046,5.776,5.5692,5.3931,0.0,0.0,0.0,0.0,0.0,0.0,0.0,0.0,0.0,0.0,0.0,0.0,0.0,0.0,0.0,0.0,0.0,0.0,0.0,0.0,0.0,0.0,0.0,0.0,0.0,0.0,0.0,0.0,0.0,5.717,5.9849,0.0,0.0,0.0,0.0,5.6186,5.768,5.9965,6.3152,6.4001,6.5597,6.8114,6.8187,6.8625,6.9471,7.0237,7.0638,7.0711,7.1514,7.1915,7.1915,7.1951,7.1988,7.1988,7.1988,7.1951,7.1805,7.0055,6.8414,6.6947,6.6107,6.5305,6.4648,6.4648,6.4685,6.4858,6.5734,6.5515,6.5305,6.8268,6.7202,6.4247,6.1719,5.9821,0.0,0.0,6.0542,6.2618,6.3661,6.5128,6.6596,6.743,6.765,6.7467,6.6596,6.5014,6.298,0.0,5.7972,5.6366,5.6111,0.0,5.4419,5.5892,5.6987,5.8191,5.9734,6.135,6.2407,6.2407,6.2407,6.2407,6.2407,6.2407,6.2407,6.2407,6.3027,6.2698,6.1167,6.0974,5.9796,5.7485,5.4323,0.0,0.0,0.0,0.0,0.0,0.0,0.0,0.0,0.0,0.0,0.0,0.0,0.0,0.0,0.0,0.0,0.0,0.0,0.0,0.0,0.0,0.0,0.0,0.0,0.0,0.0,0.0,0.0,5.903,6.1865,0.0,5.8652,5.8847,5.9517,6.042,6.1967,6.4103,6.6892,6.7332,6.8358,7.0234,7.0271,7.0674,7.1443,7.1736,7.1882,7.1882,7.2175,7.2321,7.2321,7.2321,7.2321,7.2321,7.2321,7.2321,7.2285,7.1699,7.0705,6.9427,6.8235,6.7597,6.7305,6.6865,6.7039,6.7515,6.7808,6.7698,6.7478,6.7561,6.6499,6.4914,6.3522,6.2313,6.1569,6.2168,6.3305,6.4552,6.5411,6.6843,6.7981,6.7724,6.7687,6.732,6.5999,6.4835,6.3573,6.2093,6.0225,5.8567,5.7567,5.7726,5.7849,5.7339,5.8811,6.0318,6.1412,6.2068,6.2407,6.2407,6.2407,6.2407,6.2407,6.2407,6.2407,6.2407,6.2688,6.2579,6.1995,6.1959,6.1135,5.9335,5.769,5.4787,0.0,0.0,0.0,0.0,0.0,0.0,0.0,0.0,0.0,0.0,0.0,0.0,0.0,0.0,0.0,0.0,0.0,0.0,0.0,0.0,0.0,0.0,0.0,0.0,0.0,0.0,6.195,6.1282,6.4074,6.4921,6.2062,6.2552,6.3408,6.4317,6.5637,6.7359,6.9596,6.9706,7.033,7.1688,7.1725,7.1982,7.2496,7.2496,7.2496,7.2496,7.2496,7.2496,7.2496,7.2496,7.2496,7.2496,7.2496,7.2496,7.2496,7.2496,7.1903,7.0858,6.9949,6.9575,6.9493,6.8761,6.8678,6.8862,6.8605,6.8862,6.9045,6.743,6.6733,6.6366,6.5558,6.4897,6.4567,6.5154,6.5705,6.6219,6.6769,6.7687,6.8348,6.7834,6.7687,6.7247,6.5668,6.4897,6.4163,6.3025,6.1887,6.0738,5.9736,6.0408,6.0713,5.9579,6.0761,6.1942,6.249,6.2526,6.2526,6.2526,6.2526,6.2526,6.2526,6.2307,6.2124,6.2124,6.2124,6.2015,6.1759,6.1722,6.1151,5.9871,5.826,5.5375,5.1206,0.0,0.0,0.0,0.0,0.0,0.0,0.0,0.0,0.0,0.0,0.0,0.0,0.0,0.0,0.0,0.0,0.0,0.0,0.0,0.0,0.0,0.0,0.0,5.7923,6.2676,6.5524,6.4018,6.672,6.7762,6.552,6.6066,6.6953,6.7724,6.8531,6.9669,7.1219,7.1329,7.1688,7.2496,7.2496,7.2496,7.2496,7.2496,7.2496,7.2496,7.2496,7.2496,7.2496,7.2496,7.2496,7.2496,7.2496,7.2496,7.2459,7.2459,7.1982,7.1284,7.1284,7.1219,7.1138,7.033,6.9522,6.8752,6.7944,6.8715,6.9779,6.8201,6.8238,6.8752,6.7944,6.7687,6.7687,6.7687,6.7687,6.7687,6.7687,6.7687,6.7687,6.7687,6.7677,6.7247,6.5668,6.5301,6.4787,6.3147,6.2817,6.278,6.278,6.278,6.278,6.278,6.278,0.0,6.278,6.278,6.278,6.278,6.278,6.278,6.278,6.2071,6.1594,6.1594,6.1557,6.119,6.0419,6.0419,6.0052,5.9258,5.6124,5.3702,5.2087,0.0,0.0,0.0,0.0,0.0,0.0,0.0,0.0,0.0,0.0,0.0,0.0,0.0,0.0,0.0,0.0,0.0,0.0,0.0,0.0,0.0,5.758,5.998,5.9572,6.2887,6.5869,6.7149,6.8724,6.965,6.9614,6.9311,6.9449,7.0257,7.0513,7.1101,7.2129,7.2165,7.2275,7.2496,7.2496,7.2496,7.2496,7.2496,7.2496,7.2496,7.2496,7.2496,7.2496,7.2496,7.2496,7.2496,7.2496,7.2165,7.1651,7.1651,7.1174,7.044,7.044,7.0073,6.9486,6.8641,6.8201,6.7981,6.776,6.8348,6.9045,6.8017,6.8238,6.8752,6.7944,6.7687,6.7687,6.7687,6.7687,6.7687,6.7687,6.7687,6.7687,6.7687,6.7247,6.6696,6.6256,6.5264,6.4273,6.3833,6.3246,6.278,6.278,6.278,6.278,6.278,6.278,0.0,6.278,6.278,6.278,6.278,6.278,6.278,6.278,6.2071,6.1594,6.1594,6.1043,6.0639,6.0419,6.0419,6.0309,6.0089,5.7483,5.5647,0.0,0.0,0.0,0.0,0.0,0.0,0.0,0.0,0.0,0.0,0.0,0.0,0.0,0.0,0.0,0.0,0.0,0.0,0.0,0.0,0.0,0.0,6.0701,6.3632,6.3763,6.605,6.8202,6.9631,7.0567,7.1284,7.1762,7.1394,7.1321,7.1762,7.1798,7.2018,7.2496,7.2496,7.2496,7.2496,7.2496,7.2496,7.2496,7.2496,7.2496,7.2496,7.2496,7.2496,7.2496,7.2496,7.2312,7.2018,7.2018,7.1541,7.0807,7.0807,7.033,0.0,0.0,0.0,0.0,0.0,6.7687,6.7687,6.7687,6.8017,6.8311,6.7834,6.8017,6.8311,6.7834,6.7687,6.7687,6.7687,6.7687,6.7687,6.7687,6.7687,6.7687,6.7687,6.732,6.6916,6.6549,6.5778,6.5007,6.4677,6.3906,0.0,6.3356,6.3062,6.278,6.278,6.278,6.278,6.278,6.278,6.278,6.278,6.278,6.278,6.278,6.2071,0.0,0.0,0.0,5.9612,5.8914,5.8914,0.0,0.0,0.0,0.0,0.0,0.0,0.0,0.0,5.5868,5.5941,0.0,0.0,0.0,0.0,0.0,0.0,0.0,0.0,0.0,0.0,0.0,0.0,0.0,0.0,0.0,0.0,6.3525,6.7247,6.8935,7.0477,7.1439,7.1439,7.2092,7.2496,7.2496,7.2496,7.2496,7.2496,7.2496,7.2496,7.2496,0.0,0.0,0.0,0.0,7.2312,7.2239,7.2239,7.2239,7.2239,7.2239,7.2239,7.2239,7.2239,7.1835,7.1174,7.1174,7.0734,6.9963,6.9963,6.9486,6.8752,6.8752,6.8752,6.8678,6.7944,6.7687,6.7687,6.7687,0.0,0.0,6.7687,6.7687,6.7687,6.7687,6.7687,6.7687,6.7687,6.7687,6.7687,6.7687,6.7687,6.7687,6.7687,6.7687,6.7504,6.6769,6.6549,6.6292,6.5595,6.4787,6.4237,6.4237,6.3429,6.278,6.278,6.278,6.278,6.278,6.278,6.278,6.278,0.0,0.0,6.278,6.2071,6.13,6.0566,5.9795,5.8671,5.7262,5.7299,5.7299,5.7226,5.7373,5.8143,5.9478,6.1006,6.1814,6.1887,5.7629,5.7556,0.0,0.0,0.0,0.0,0.0,0.0,0.0,0.0,0.0,0.0,0.0,0.0,0.0,0.0,0.0,6.1581,6.5092,6.8238,7.0513,7.1651,7.2275,7.2275,7.2422,7.2496,7.2496,7.2496,7.2496,7.2496,7.2496,7.2496,7.2496,7.2496,7.2202,7.1578,7.1513,7.1211,7.055,7.055,7.055,7.055,0.0,0.0,7.055,7.055,7.0477,7.033,7.033,6.9889,6.9119,6.9119,6.8641,6.7907,6.7907,6.7907,6.7907,6.7787,6.7687,6.7687,6.7687,6.7687,6.7687,6.7687,6.7687,6.7687,6.7687,6.7687,0.0,6.7687,6.7687,6.7687,6.7687,6.7687,6.7687,6.7687,6.7687,6.765,6.7504,6.6953,6.6439,6.6292,6.5632,6.5081,6.5081,6.3833,6.278,6.278,6.278,6.278,6.278,6.278,6.278,6.278,6.278,6.278,6.278,6.2071,6.152,6.1374,6.0603,6.0052,5.9722,6.0346,6.0382,5.9722,6.1006,6.1484,6.1153,6.2108,6.3282,6.4567,6.3649,6.3613,0.0,0.0,0.0,0.0,0.0,0.0,0.0,0.0,0.0,0.0,0.0,5.5111,5.5962,0.0,6.1263,6.4174,6.7026,6.9449,7.1101,7.1982,7.2496,7.2496,7.2496,7.2496,7.2496,7.2496,7.2496,7.2496,7.2496,7.2496,7.2496,7.2496,7.2129,7.1329,7.1293,7.0917,7.011,7.011,7.011,7.011,7.011,7.011,7.011,7.011,6.9889,6.9486,6.9486,6.9045,6.8311,6.8311,6.8311,6.8311,6.8311,6.8054,6.7724,6.8128,6.8054,6.7787,6.8164,6.8017,6.7687,6.7687,6.7687,6.7687,6.7687,6.7687,6.7687,6.7687,6.7687,6.7687,6.7687,6.7687,6.7687,6.7687,6.7687,6.7687,6.7687,6.7357,6.71,6.71,6.6439,6.5888,6.5888,6.4897,6.3906,6.3503,6.3466,6.3282,6.2853,6.3172,6.3466,6.3466,6.3833,6.4053,6.4053,6.3319,6.2842,6.2842,6.2071,6.1594,6.1594,6.1998,6.2218,6.2254,6.3025,6.3466,6.3466,6.4677,6.5668,6.6512,6.732,6.7504,0.0,0.0,0.0,0.0,0.0,0.0,0.0,0.0,5.3405,5.5074,5.6263,5.7593,5.9515,6.1887,6.4273,6.6586,6.8862,7.0624,7.1431,7.2092,7.2496,7.2496,7.2496,7.2496,7.2496,7.2496,7.2496,7.2496,7.2496,7.2496,7.2496,7.2496,7.2055,7.1101,7.1064,7.0624,6.9633,6.9633,6.9633,6.9633,6.9633,6.9633,6.9633,6.9633,6.9265,6.8678,6.8678,6.8311,6.7687,6.7687,6.8164,6.8898,6.8898,6.8605,6.8238,6.8898,6.8715,6.8238,6.8898,6.8605,6.7907,6.7907,6.7834,6.7687,6.7687,6.7687,6.7687,6.7687,6.7687,6.7687,6.7687,6.7687,6.7687,6.7687,6.7687,6.7687,6.7687,6.7687,6.7687,6.7687,6.7173,6.6733,6.6733,6.6219,6.5448,6.4457,6.431,6.409,6.3392,6.3906,6.431,6.431,6.4897,6.5301,6.5301,6.4714,6.431,6.431,6.3686,6.3319,6.3319,6.3319,6.3613,6.431,6.464,6.5118,6.5778,6.7393,6.8238,6.8421,6.9743,7.0,5.1683,5.1157,5.1522,5.2249,5.2593,5.3689,0.0,0.0,5.7624,5.9344,6.0909,6.2108,6.234,6.442,6.6659,6.8348,7.0073,7.1468,7.2275,7.2459,7.2496,7.2496,7.2496,7.2496,7.2496,7.2496,7.2496,7.2496,7.2496,7.2496,7.2496,7.2496,7.1798,7.0293,7.022,6.9486,6.7981,6.7944,6.7944,6.7944,6.7944,6.7944,6.7944,6.7944,6.7907,6.7834,6.7834,6.776,6.7687,6.7687,6.8164,6.8898,6.8898,6.9265,6.9816,6.9926,6.9889,6.9816,6.9926,6.9449,6.8788,6.8788,6.8274,6.7687,6.7687,6.7687,6.7687,6.7687,6.7687,6.7687,6.7687,6.7687,6.7687,6.7687,6.7687,6.7687,6.7687,6.7687,6.7687,6.7687,6.7614,6.7577,6.7577,6.7467,6.6916,6.5411,6.5191,6.5154,6.5044,6.5118,6.5191,6.5191,6.5264,6.5301,6.5301,6.5228,6.5191,6.5191,6.5081,6.5044,6.5044,6.5044,6.5081,6.5154,6.6549,6.732,6.743,6.9045,7.0183,7.0889,7.1101,7.1109,5.3733,5.3185,5.3217,0.0,5.5341,5.647,5.9163,5.954,5.9931,6.2108,6.3466,6.442,6.4861,6.6182,6.7724,0.0,7.0146,7.1064,7.2312,7.2092,7.1798,7.1798,7.1394,7.1468,7.2422,7.2496,7.2496,7.2496,7.2496,7.2312,7.1835,7.1798,7.1064,6.9449,6.9412,6.8862,6.7714,6.7687,6.7687,6.7687,6.7687,6.7687,6.7687,6.7687,6.7687,6.7687,6.7687,6.7687,6.7687,6.7687,6.8458,6.9596,6.9596,7.0367,7.1431,7.0991,7.0513,7.0183,7.066,7.0257,6.9596,6.9596,6.9376,6.9082,6.9082,6.9082,6.9082,6.9082,6.9082,6.9082,6.9082,6.9082,6.8972,6.8495,6.8385,6.8274,6.7797,6.7687,6.7687,6.7687,6.7687,6.7687,6.7687,6.7687,6.7467,6.6806,6.6292,6.5852,6.5375,6.5705,6.6182,6.6659,6.6696,6.6696,6.6696,6.6696,6.6696,6.6696,6.6696,6.6696,6.6696,6.6696,6.6916,6.7393,6.8054,6.8641,6.9082,7.0257,7.0991,7.1293,7.2275,7.2716,5.4106,5.4285,0.0,5.6264,5.7747,5.9236,6.0725,6.1263,6.2071,6.431,6.5228,6.5888,6.6659,6.7467,6.8421,6.9596,7.0146,7.077,7.1725,7.1358,7.0881,7.066,6.9926,6.9963,7.1358,7.1908,7.2165,7.2165,7.2165,7.1908,7.1329,7.1101,7.033,6.8935,6.8898,6.8495,6.7714,6.7687,6.7687,6.7687,6.7687,6.7687,6.7687,6.7687,6.7687,6.7687,6.7687,6.7687,6.7687,6.7687,6.8495,6.9779,6.9779,7.0624,7.1798,7.1431,7.1064,7.0844,7.1431,7.1101,7.044,7.044,7.0293,7.011,7.011,7.011,7.011,7.011,7.011,7.011,7.011,7.011,6.9963,6.9376,6.9229,6.9009,6.8201,6.8017,6.7944,6.7724,6.7687,6.7687,6.7687,6.7687,6.7687,6.7687,6.7173,6.6623,6.6035,6.6476,6.7026,6.7614,6.7687,6.7687,6.7687,6.7687,6.7687,6.7687,6.7687,6.7797,6.8017,6.8017,6.8421,6.9229,6.9449,6.9853,7.044,7.1248,7.1651,7.1688,7.3046,7.3817,0.0,0.0,5.639,5.6543,5.9064,6.1704,6.2548,6.3392,6.4457,6.6072,6.6439,6.6696,6.7504,6.8311,6.8898,6.8935,7.0257,7.1027,7.0293,7.0146,6.9853,6.9082,6.8238,6.8091,0.0,7.044,7.1329,7.1329,7.1329,7.1329,7.1293,7.055,6.9743,6.8935,6.8898,6.8495,6.7714,6.7687,6.7687,6.7687,6.7687,6.7687,6.7687,6.7687,6.7687,6.7687,6.7687,6.7687,6.7687,6.7687,6.8201,6.8935,6.8935,6.9449,7.0257,7.1027,7.1798,7.2422,7.2459,7.1945,7.1284,7.1284,7.0734,7.011,7.011,7.011,7.011,7.011,7.011,7.011,7.011,7.011,7.0073,7.0073,7.0073,6.9853,6.9045,6.8862,6.8641,6.7834,6.7687,6.7687,6.7687,6.7687,6.7687,6.7687,6.7677,6.7677,6.7614,6.7677,6.765,6.7687,6.7687,6.7687,6.7687,6.7687,6.7687,6.7687,6.7687,6.8054,6.8825,6.8862,6.9229,7.0036,7.0844,7.1219,7.1256,7.2092,7.2459,7.2496,7.3303,7.4111,5.4419,0.0,5.7201,5.9993,6.1569,6.2915,6.4824,6.5485,6.5852,6.6402,6.6072,6.5632,6.5338,6.5521,6.6072,6.7136,6.8201,6.9192,7.0,6.9633,6.9009,6.8201,6.7393,0.0,0.0,0.0,0.0,7.0477,7.0513,7.0257,6.9743,6.9449,6.8935,6.8128,6.8091,6.7944,6.7687,6.7687,6.7687,6.7687,6.7687,6.7687,6.7687,6.7687,6.7687,6.7687,6.7687,6.7687,6.7687,6.7687,6.8164,6.8898,6.8898,6.9376,7.0183,7.1027,7.1439,7.1798,7.2312,7.2312,7.2092,7.2092,7.1908,7.1688,7.1688,7.1688,7.1688,7.1688,7.1688,7.1688,7.1688,7.1688,7.1578,7.1027,7.0917,7.0697,6.9853,6.9706,6.9449,6.8641,6.8495,6.8311,6.7797,6.7687,6.7687,6.7687,6.7687,6.7687,6.7687,6.7687,6.7687,6.7687,6.7687,6.7687,6.7687,6.7687,6.7907,6.8458,6.8495,6.8862,6.9669,6.9706,7.0073,7.0881,7.1174,7.155,7.2092,7.2386,7.2789,7.3303,7.4111,7.4918,5.5921,5.7468,5.9066,6.2058,6.3466,6.453,6.6145,6.6512,6.6402,6.6145,6.5191,6.4273,6.3723,6.3172,6.3503,6.5705,6.6512,6.7393,6.9009,6.8568,6.7724,6.6953,6.6109,6.5742,0.0,0.0,0.0,6.9559,6.9669,6.9449,6.8935,6.8641,6.8238,6.7724,6.7687,6.7687,6.7687,6.7687,6.7687,6.7687,6.7687,6.7687,6.7687,6.7687,6.7687,6.7687,6.7687,6.7687,6.7687,6.7687,6.7981,6.8458,6.8458,6.8788,6.9376,7.0477,7.0881,7.1027,7.2129,7.2496,7.2496,7.2496,7.2496,7.2496,7.2496,7.2496,7.2496,7.2496,7.2496,7.2496,7.2496,7.2496,7.2386,7.1872,7.1725,7.1505,7.0697,7.055,7.0293,6.9486,6.9339,6.9155,6.8641,6.8531,6.8531,6.8531,6.8531,6.8348,6.776,6.7687,6.7687,6.7687,6.7944,6.8128,6.8128,6.8385,6.8788,6.9302,6.9339,6.9706,7.0513,7.055,7.0917,7.1725,7.1725,7.1982,7.2496,7.2789,7.3193,7.3707,7.4808,7.5616,5.6566,5.9151,6.18,6.2755,6.4751,6.6512,6.6512,6.6476,6.6219,6.5375,6.3833,6.2597,0.0,0.0,6.141,6.4604,6.5228,6.5852,6.7467,6.7026,6.6256,0.0,0.0,0.0,0.0,0.0,0.0,6.8605,0.0,6.8752,6.8788,6.8054,6.765,6.7687,6.7687,6.7687,6.7687,6.7687,6.7687,6.7687,6.7687,6.7687,6.7687,6.7687,6.7687,6.7687,6.7687,6.7687,6.7687,6.7687,6.7687,6.7687,6.7687,6.7687,6.7871,6.9486,7.011,7.033,7.1945,7.2496,7.2496,7.2496,7.2496,7.2496,7.2496,7.2496,7.2496,7.2496,7.2496,7.2496,7.2496,7.2496,7.2496,7.2496,7.2496,7.2312,7.1513,7.1329,7.1138,7.033,7.011,7.011,7.011,7.011,7.011,7.011,7.011,6.9559,6.8017,6.7797,6.7797,6.7797,6.8495,6.8972,6.8972,6.9669,7.011,7.0146,7.0146,7.0513,7.1329,7.1329,7.1725,7.2496,7.2496,7.2532,7.2569,7.334,7.3744,7.3854,7.5395,7.613,5.943,6.1361,6.2975,6.5044,6.6035,6.6512,6.6512,6.6035,6.5191,6.3734,6.1643,5.9918,0.0,0.0,0.0,6.2218,6.409,0.0,6.7467,6.7504,0.0,6.6292,0.0,6.5962,6.6182,6.6182,0.0,0.0,6.6549,6.6476,6.7063,6.6916,6.7063,6.7677,6.7687,6.7687,6.7687,6.7687,6.7687,6.7687,6.7687,6.7687,6.7687,6.7687,6.7687,6.7687,6.7687,6.7687,6.7687,6.7687,6.7687,6.7687,6.7687,6.7687,6.7871,6.9486,7.011,7.033,7.1945,7.2496,7.2496,7.2496,7.2496,7.2496,7.2496,7.2496,7.2496,7.2496,7.2496,7.2496,7.2496,7.2496,7.2496,7.2496,7.2496,7.2459,7.2239,7.2202,7.1982,7.1174,7.0513,7.011,7.011,7.011,7.011,7.011,7.011,6.9926,6.9522,6.9486,6.9486,6.9486,6.9669,6.9779,6.9779,6.9963,7.0367,7.0954,7.0991,7.1358,7.2165,7.2202,7.2312,7.2496,7.2496,7.2789,7.3377,7.3597,7.4331,7.5506,7.5909,7.6423,6.1386,6.3246,6.4751,6.6145,6.6512,6.6329,6.5595,6.453,6.3025,6.0676,5.8804,0.0,5.6565,5.7079,0.0,0.0,0.0,0.0,6.688,6.7173,6.699,0.0,6.6512,0.0,6.6512,6.6182,6.6109,0.0,6.6402,6.6402,6.6476,6.6843,6.721,6.7687,6.7687,6.7687,6.7687,6.7687,6.7687,6.7687,6.7687,6.7687,6.7687,6.7687,6.7687,6.7687,0.0,6.7687,6.7687,6.7687,6.7687,6.7687,6.7687,6.7687,6.7871,6.9486,7.011,7.033,7.1945,7.2496,7.2496,7.2496,7.2496,7.2496,7.2496,7.2496,7.2496,7.2496,7.2496,7.2496,7.2496,7.2496,7.2496,7.2496,7.2496,7.2496,7.2496,7.2496,7.2386,7.1908,7.1468,7.1138,7.1138,7.1138,7.1138,7.1138,7.1138,7.1138,7.1138,7.055,7.011,7.011,7.0403,7.0624,7.0624,7.0954,7.1358,7.1798,7.1835,7.2055,7.2496,7.2496,7.2679,7.301,7.3046,7.3413,7.4221,7.4588,7.5212,7.6093,7.646,7.69,6.2879,6.4787,6.6512,6.6512,6.6402,6.5888,6.4163,6.2401,6.0272,5.7262,0.0,5.4913,5.4363,5.4987,5.6602,5.9758,0.0,6.3686,6.6145,6.6512,6.6549,6.6659,6.6659,6.6659,6.6659,6.5925,6.5705,6.6292,6.699,6.71,6.6512,6.7063,6.7467,6.7687,6.7687,6.7687,6.7687,6.7687,6.7687,6.7687,6.7687,6.7687,6.7687,6.7687,6.7687,6.7687,6.7687,6.7687,6.7687,6.7687,6.7687,6.7687,6.7687,6.7687,6.7871,6.9486,7.011,7.033,7.1945,7.2496,7.2496,7.2496,7.2496,7.2496,7.2496,7.2496,7.2496,7.2496,7.2496,7.2496,7.2496,7.2496,7.2496,7.2496,7.2496,7.2496,7.2496,7.2496,7.2496,7.2496,7.2496,7.2496,7.2496,7.2496,7.2496,7.2496,7.2496,7.2496,7.2496,7.1284,7.0403,7.0403,7.1064,7.1468,7.1468,7.2092,7.2496,7.2496,7.2496,7.2496,7.2496,7.2606,7.2973,7.367,7.378,7.4258,7.5065,7.5763,7.6166,7.6276,7.6974,7.7273,6.4457,6.5668,6.6512,6.6512,6.5999,6.4897,6.2548,6.0272,0.0,0.0,5.4106,5.2784,5.3335,5.462,5.6418,5.8964,6.1312,6.3686,6.6145,6.6512,6.6733,0.0,6.7467,6.7467,6.7467,6.6769,0.0,0.0,6.5632,6.5962,6.6476,6.5999,6.6329,6.765,6.7687,6.7687,6.7687,6.7687,6.7687,6.7687,6.7687,6.7687,6.7687,6.7687,6.7687,6.7687,6.7687,0.0,6.7687,6.7687,6.7687,6.7687,6.7687,6.7687,6.7871,6.9486,7.011,7.033,7.1945,7.2496,7.2496,7.2496,7.2496,7.2496,7.2496,7.2496,7.2496,7.2496,7.2496,7.2496,7.2496,7.2496,7.2496,7.2496,7.2496,7.2496,7.2496,7.2496,7.2496,7.2496,7.2496,7.2496,7.2496,7.2496,7.2496,7.2496,7.2496,7.2496,7.2496,7.2275,7.2092,7.2092,7.2202,7.2312,7.2312,7.2422,7.2496,7.2496,7.2496,7.2496,7.2496,7.312,7.356,7.3707,7.4368,7.5102,7.5909,7.6019,7.646,7.709,7.7237,7.7273,6.5055,6.6182,6.7026,6.6586,6.5595,6.3796,6.0493,0.0,0.0,0.0,5.1867,5.1353,5.1316,5.2968,0.0,5.6455,5.8731,6.13,6.4163,6.4971,0.0,6.7504,6.7687,6.7687,0.0,6.6586,6.5888,6.5925,6.4751,6.4383,6.5191,6.5668,6.6292,6.7026,6.7467,6.7687,6.7687,6.7687,6.7687,6.7687,6.7687,6.7687,6.7687,6.7687,6.7687,6.7687,6.7687,6.7687,6.7687,6.7687,6.7687,6.7687,6.7687,6.7687,6.7871,6.9486,7.011,7.033,7.1945,7.2496,7.2496,7.2496,7.2496,7.2496,7.2496,7.2496,7.2496,7.2496,7.2496,7.2496,7.2496,7.2496,7.2496,7.2496,7.2496,7.2496,7.2496,7.2496,7.2496,7.2496,7.2496,7.2496,7.2496,7.2496,7.2496,7.2496,7.2496,7.2496,7.2496,7.2496,7.2496,7.2496,7.2496,7.2496,7.2496,7.2496,7.2679,7.3083,7.312,7.3303,7.3744,7.4111,7.4515,7.4955,7.5322,7.5946,7.6717,7.6717,7.6937,7.7273,7.7273,7.7561,6.5212,6.6366,6.7247,6.6439,6.4897,6.2548,5.8621,5.6345,0.0,0.0,4.9958,5.0141,4.9684,0.0,5.3078,0.0,5.6271,5.8877,6.2108,6.3429,6.4934,0.0,0.0,0.0,6.7687,6.6402,0.0,6.6219,6.4127,6.3172,6.4053,6.5448,6.6256,6.6256,6.7026,6.743,6.743,6.7614,6.7687,6.7687,6.7687,6.7687,6.7687,6.7687,6.7687,6.7687,6.7687,6.7687,6.7687,6.7687,6.7687,6.7687,6.7687,6.7687,6.7871,6.9302,6.9963,7.0293,7.1725,7.2349,7.2496,7.2496,7.2496,7.2496,7.2496,7.2496,7.2496,7.2496,7.2496,7.2496,7.2496,7.2496,7.2496,7.2496,7.2496,7.2496,7.2496,7.2496,7.2496,7.2496,7.2496,7.2496,7.2496,7.2496,7.2496,7.2496,7.2642,7.2753,7.2753,7.2899,7.301,7.301,7.2716,7.2569,7.2753,7.2753,7.3083,7.3891,7.3964,7.4258,7.4882,7.5065,7.5469,7.6093,7.6276,7.668,7.7273,7.7273,7.7273,7.7273,7.7494,7.7965,6.5066,6.5925,6.6402,6.5632,6.3613,6.097,5.7666,0.0,0.0,5.0124,4.904,4.8746,4.9463,5.0362,0.0,0.0,0.0,5.8033,6.1263,6.3099,6.4714,6.6402,0.0,0.0,6.7687,6.6916,6.6109,6.5485,6.3796,6.3172,6.4053,6.4934,6.5411,6.5411,6.6182,6.6623,6.6623,6.732,6.7687,6.7687,6.7687,6.7687,6.7687,6.7687,6.7687,6.7687,6.7687,6.7687,0.0,6.7687,6.7687,6.7687,6.7687,6.7687,6.7797,6.8678,6.9486,7.022,7.1101,7.1908,7.2496,7.2496,7.2496,7.2496,7.2496,7.2496,7.2496,7.2496,7.2496,7.2496,7.2496,7.2496,7.2496,7.2496,7.2496,7.2496,7.2496,7.2496,7.2496,7.2496,7.2496,7.2496,7.2496,7.2496,7.2496,7.2496,7.312,7.3597,7.3597,7.4221,7.4698,7.4698,7.3377,7.2789,7.3523,7.3597,7.3927,7.4735,7.4808,7.4845,7.4918,7.5616,7.6019,7.6093,7.6827,7.7237,7.7273,7.7273,7.7273,7.731,7.8112,7.8516,6.4778,6.5836,6.6329,6.5521,6.3429,6.0639,5.6932,0.0,5.238,4.9407,4.8526,4.8416,4.8746,4.9077,4.9774,0.0,0.0,0.0,5.7446,5.8988,6.1043,6.464,6.5778,0.0,0.0,0.0,6.5228,6.3906,6.3184,6.2952,6.3319,6.4127,6.4567,6.4567,6.5375,6.5999,6.6512,6.6806,6.721,6.7687,6.7687,6.7687,6.7687,6.7687,6.7687,6.7687,6.7687,6.7687,0.0,6.7687,6.7687,6.7687,6.7687,6.7687,6.7797,6.8605,6.9119,6.9559,7.0881,7.1541,7.1872,7.2349,7.2496,7.2496,7.2496,7.2496,7.2496,7.2496,7.2496,7.2496,7.2496,7.2496,7.2496,7.2496,7.2496,7.2496,7.2496,7.2496,7.2496,7.2496,7.2496,7.2642,7.312,7.323,7.3377,7.3891,7.4221,7.4441,7.4441,7.4698,7.4918,7.4918,7.4331,7.4074,7.4404,7.4441,7.4771,7.5579,7.5616,7.5836,7.6319,7.668,7.6827,7.6827,7.7127,7.7273,7.7273,7.7273,7.7273,7.731,7.8185,7.8846,6.4203,6.5296,6.5632,6.5081,6.2915,5.9942,0.0,5.4179,5.1977,4.893,4.8306,4.8306,4.8306,4.8306,4.86,4.9463,0.0,5.1557,5.5119,5.6492,5.8621,0.0,0.0,6.453,0.0,6.5118,6.4457,6.3282,6.2952,6.278,6.278,6.3392,6.3723,6.3723,6.453,6.5228,6.5778,6.6035,6.6549,6.7357,6.7357,6.7467,6.7687,6.7687,6.7687,6.7687,6.7687,0.0,0.0,6.7687,6.7687,6.7687,6.7687,6.7687,6.776,6.8348,6.8715,6.9119,7.0477,7.1101,7.1431,7.2239,7.2496,7.2496,7.2496,7.2496,7.2496,7.2496,7.2496,7.2496,7.2496,7.2496,7.2496,7.2496,7.2496,7.2496,7.2496,7.2496,7.2569,7.2826,7.2863,7.312,7.3927,7.4037,7.4258,7.4808,7.5102,7.5249,7.5249,7.5469,7.5586,7.5586,7.5586,7.5542,7.5285,7.5249,7.5616,7.6423,7.646,7.6717,7.7273,7.7273,7.7273,7.7273,7.7273,7.7273,7.7273,7.753,7.7708,7.7708,7.8809,7.9727,6.3195,6.4127,6.4127,6.409,6.1667,5.8584,0.0,5.3739,5.1316,4.882,4.8306,4.8306,4.8306,4.8306,4.86,4.9463,5.0932,0.0,5.5244,5.6969,5.8584,0.0,0.0,6.1961,6.2768,6.3613,6.409,6.409,6.3282,0.0,6.278,6.278,6.278,6.278,6.3649,6.4127,6.4127,6.4897,6.5742,6.6512,6.6512,6.6916,6.7687,6.7687,6.7687,6.7687,0.0,0.0,0.0,6.7687,6.7687,6.7687,6.7687,6.7687,6.7687,6.7714,6.8201,6.9009,6.9816,7.0624,7.1431,7.2239,7.2496,7.2496,7.2496,7.2496,7.2496,7.2496,7.2496,7.2496,7.2496,7.2496,7.2496,7.2496,7.2496,7.2496,7.2496,7.2496,7.2753,7.3523,7.367,7.3927,7.4771,7.4918,7.4918,7.4918,7.5579,7.6093,7.6093,7.679,7.7273,7.7273,7.7273,7.6943,7.6166,7.6093,7.6423,7.7237,7.7273,7.7273,7.7273,7.7273,7.7273,7.7273,7.7273,7.7273,7.7273,7.8185,7.8589,7.8626,8.0241,8.1415,5.931,6.0274,6.0493,5.9391,5.7519,5.5427,5.3555,5.2123,5.0618,4.871,4.8306,4.8306,4.8306,4.8306,4.8783,5.0178,5.0839,0.0,0.0,0.0,0.0,5.9294,6.1777,6.3392,0.0,0.0,6.3209,6.3209,6.2989,6.278,6.278,6.278,6.278,6.278,6.3062,6.3503,6.409,6.4347,6.4897,6.5705,6.5705,6.6109,6.688,6.688,6.7173,0.0,0.0,0.0,0.0,6.7687,6.7687,6.7687,6.7687,6.7687,6.7687,6.7687,6.7834,6.8201,6.9009,6.9816,7.0624,7.1431,7.2055,7.2496,7.2496,7.2496,7.2496,7.2496,7.2496,7.2496,7.2496,7.2496,7.2496,7.2496,7.2496,7.2496,7.2496,7.2936,7.3377,7.3634,7.4147,7.4771,7.5579,7.5726,7.5909,7.643,7.676,7.6937,7.6937,7.7127,7.7273,7.7273,7.7273,7.72,7.6937,7.6937,7.7017,7.7273,7.7273,7.7273,7.7273,7.7273,7.7273,7.7273,7.7892,7.8185,7.8185,7.9029,7.969,8.0241,8.0755,8.1158,5.6479,5.7414,5.7593,5.6602,5.5133,5.3628,5.2307,5.1132,4.9958,4.86,4.8306,4.8306,4.8306,4.8306,4.8636,4.9701,5.0398,0.0,0.0,0.0,0.0,5.8474,0.0,0.0,0.0,6.2952,6.278,6.278,6.278,6.278,6.278,6.278,6.278,6.278,6.278,6.3062,6.3613,6.3613,6.4016,6.4861,6.4861,6.5264,6.6035,6.6035,6.6476,0.0,0.0,0.0,0.0,6.7687,6.7687,6.7687,6.7687,6.7687,6.7687,6.7687,6.7687,6.7797,6.8605,6.9449,7.022,7.1064,7.1835,7.2496,7.2496,7.2496,7.2496,7.2496,7.2496,7.2496,7.2496,7.2496,7.2496,7.2496,7.2496,7.2496,7.2496,7.312,7.378,7.4074,7.4808,7.5616,7.6423,7.657,7.6717,7.72,7.7273,7.7273,7.7273,7.7273,7.7273,7.7273,7.7273,7.7273,7.7273,7.7273,7.7273,7.7273,7.7273,7.7273,7.7273,7.7604,7.7818,7.7818,7.8626,7.9029,7.9029,7.9837,8.0681,8.1452,8.1452,8.1305,0.0,5.517,5.5207,5.5097,5.3959,5.2674,5.1903,5.0602,0.0,4.8489,4.8306,4.8306,4.8306,4.8269,4.8269,4.8379,4.9738,0.0,0.0,5.3995,0.0,0.0,5.9648,0.0,6.1594,6.2365,6.278,6.278,6.278,6.278,6.278,6.278,6.278,6.278,6.278,6.278,6.278,6.278,6.3209,6.4016,6.4016,6.442,6.5228,6.5228,6.5668,0.0,0.0,0.0,0.0,6.7677,6.7687,6.7687,6.7687,6.7687,6.7687,6.7687,6.7687,6.7797,6.8568,6.9339,7.0146,7.1027,7.1835,7.2496,7.2496,7.2496,7.2496,7.2496,7.2496,7.2496,7.2496,7.2496,7.2496,7.2496,7.2496,7.2496,7.2496,7.3193,7.4001,7.4771,7.5616,7.6423,7.7163,7.7273,7.7273,7.7273,7.7273,7.7273,7.7273,7.7273,7.7273,7.7273,7.7273,7.7273,7.7273,7.7273,7.7273,7.7273,7.7273,7.731,7.7384,7.8185,7.8626,7.8662,7.947,7.991,7.9947,8.0718,8.1489,8.2186,8.215,8.1672,4.9771,0.0,5.161,5.0325,4.9738,4.9407,0.0,4.8893,4.8563,4.8343,4.8306,4.8306,4.8306,4.7773,4.7773,4.9077,0.0,0.0,5.2123,0.0,0.0,6.0456,6.163,6.2328,6.2511,6.2695,6.278,6.278,6.278,6.278,6.278,6.278,6.278,6.278,6.278,6.278,6.278,6.278,6.2915,6.3099,6.3099,6.3539,6.4383,6.4383,6.4824,0.0,0.0,0.0,6.6843,6.743,6.7687,6.7687,6.7687,6.7687,6.7687,6.7687,6.7687,6.7724,6.7907,6.8495,6.9412,7.0844,7.1835,7.2496,7.2496,7.2496,7.2496,7.2496,7.2496,7.2496,7.2496,7.2496,7.2496,7.2496,7.2496,7.2496,7.2496,7.3634,7.4698,7.4882,7.6056,7.7053,7.7273,7.7273,7.7273,7.7273,7.7273,7.7273,7.7273,7.7273,7.7273,7.7273,7.7273,7.7273,7.7273,7.7273,7.7273,7.7273,7.7273,7.7598,7.8259,7.8479,7.8883,7.9507,8.0314,8.1012,8.1636,8.1819,8.2003,8.2186,8.1562,8.0865,4.8267,4.8967,4.9444,4.8526,4.8306,4.8306,4.8306,4.8306,4.8196,4.781,4.7736,4.7626,4.7278,4.7149,4.7516,0.0,4.9994,0.0,0.0,0.0,5.9318,6.1337,6.2328,6.278,0.0,6.278,6.278,6.278,6.278,6.278,6.278,6.278,6.278,6.278,6.278,6.278,6.278,6.278,6.278,6.278,6.278,6.3062,6.3503,6.3503,6.3943,0.0,0.0,0.0,6.6512,6.6953,6.7357,6.7687,6.7687,6.7687,6.7687,6.7687,6.7687,6.7687,6.7687,6.8458,6.9669,7.0917,7.1835,7.2496,7.2496,7.2496,7.2496,7.2496,7.2496,7.2496,7.2496,7.2496,7.2496,7.2496,7.2496,7.2606,7.2973,7.4037,7.5028,7.5395,7.646,7.7273,7.7273,7.7273,7.7273,7.7273,7.7273,7.7273,7.7273,7.7273,7.7273,7.7273,7.7273,7.7273,7.7273,7.7273,7.7273,7.7273,7.7708,7.8112,7.8589,7.9323,8.0094,8.0865,8.1342,8.1746,8.2186,8.2186,8.2003,8.1636,8.1195,8.0571,4.847,4.8489,4.8489,4.8343,4.8306,4.8306,4.8306,4.8196,4.7939,4.7223,0.0,0.0,0.0,4.6764,0.0,0.0,0.0,0.0,5.6638,5.8474,5.9979,6.1594,6.2401,0.0,6.278,6.278,6.278,6.278,6.278,6.278,6.278,6.278,6.278,6.278,6.278,6.278,6.278,6.278,6.278,6.278,6.278,6.278,6.278,6.278,6.3209,6.3906,0.0,0.0,6.6145,6.6402,6.688,6.7504,6.7677,6.7687,6.7687,6.7687,6.7687,6.7687,6.7687,6.8752,7.022,7.0917,7.1762,7.2496,7.2496,7.2496,7.2496,7.2496,7.2496,7.2496,7.2496,7.2496,7.2496,7.2496,7.2606,7.2863,7.356,7.4441,7.5285,7.5983,7.6754,7.7273,7.7273,7.7273,7.7273,7.7273,7.7273,7.7273,7.7273,7.7273,7.7273,7.7273,7.7273,7.7273,7.7273,7.742,7.7494,7.7494,7.8185,7.8699,7.8956,8.0388,8.1489,8.2186,8.2186,8.2186,8.2186,8.2186,8.1782,8.1012,8.0865,8.0461,4.9187,4.939,4.9243,4.8489,4.8306,4.8306,4.8306,4.7773,4.7259,0.0,0.0,0.0,0.0,4.7553,4.8416,0.0,0.0,5.5023,0.0,0.0,6.0823,6.2438,0.0,6.278,6.278,6.278,6.278,6.278,6.278,6.278,6.278,6.278,6.278,6.278,6.278,6.278,6.278,6.278,6.278,6.278,6.278,6.278,6.278,6.278,6.2879,6.3062,0.0,6.4237,6.4567,6.5925,6.6549,6.6733,6.743,6.7687,6.7687,6.7687,6.7687,6.7687,6.7687,6.8752,7.011,7.022,7.1284,7.2496,7.2496,7.2496,7.2496,7.2496,7.2496,7.2496,7.2496,7.2496,7.2496,7.2496,7.301,7.356,7.367,7.4882,7.5946,7.6093,7.6754,7.7273,7.7273,7.7273,7.7273,7.7273,7.7273,7.7273,7.7273,7.7273,7.7273,7.7273,7.7273,7.7273,7.7273,7.8002,7.8405,7.8405,7.8516,7.9213,8.0571,8.1525,8.2076,8.2186,8.2186,8.2186,8.2186,8.2186,8.1782,8.0975,8.0277,7.991,4.8159,4.8269,4.8489,4.9407,4.9334,4.8893,4.8416,4.8012,4.7626,0.0,0.0,0.0,0.0,0.0,4.9848,5.2438,0.0,5.7005,5.8927,5.9905,6.086,0.0,0.0,6.278,6.278,6.278,6.278,6.278,6.278,6.278,6.278,6.278,6.278,6.278,6.278,6.278,6.278,6.278,6.278,6.278,6.278,6.278,6.278,6.278,6.278,6.2817,0.0,6.3649,6.4163,6.4897,6.5705,6.6549,6.6916,6.732,6.7687,6.7687,6.7687,6.7687,6.7687,6.8752,7.011,7.011,7.1174,7.2496,7.2496,7.2496,7.2496,7.2496,7.2496,7.2496,7.2496,7.2496,7.2496,7.2496,7.312,7.3817,7.4258,7.5285,7.624,7.668,7.7047,7.7273,7.7273,7.7273,7.7273,7.7273,7.7273,7.7273,7.7273,7.7273,7.7273,7.7273,7.7273,7.7273,7.7273,7.7671,7.8479,7.98,7.991,8.0241,8.0975,8.1782,8.2003,8.1562,8.1966,8.2186,8.2186,8.1746,8.1122,8.0351,7.9947,7.98,4.7333,4.7223,4.759,4.9701,4.9738,4.9297,4.9407,4.8857,4.8233,4.7993,0.0,0.0,0.0,4.9481,0.0,5.5596,5.7666,5.8988,5.9404,6.0346,6.1117,6.1557,6.2328,6.278,6.278,6.278,6.278,6.278,6.278,6.278,6.278,6.278,6.278,6.278,6.278,6.278,6.278,6.278,6.278,6.278,6.278,6.278,6.278,6.278,6.278,6.278,6.278,6.3172,6.3796,6.4016,6.4934,6.6256,6.6439,6.699,6.7687,6.7687,6.7687,6.7687,6.7687,6.8752,7.011,7.011,7.1174,7.2496,7.2496,7.2496,7.2496,7.2496,7.2496,7.2496,7.2496,7.2496,7.2569,7.2753,7.3413,7.4184,7.5028,7.5836,7.657,7.7163,7.7273,7.7273,7.7273,7.7273,7.7273,7.7273,7.7273,7.7273,7.7273,7.7273,7.7273,7.7273,7.7273,7.7384,7.7567,7.7598,7.8516,8.0608,8.0718,8.0718,8.0718,8.1305,8.1452,8.1012,8.1599,8.1929,8.1929,8.1305,8.0571,7.98,7.98,7.9874,4.8012,4.7663,4.7333,4.8269,4.8453,4.9187,5.2197,5.0508,4.871,5.0215,0.0,0.0,0.0,5.2585,5.5757,5.7519,5.9795,6.108,6.0419,0.0,6.2365,6.1667,6.2328,6.278,6.278,6.278,6.278,6.278,6.278,6.278,6.278,6.278,6.278,6.278,6.278,6.278,6.278,6.278,6.278,6.278,6.278,6.278,6.278,6.278,6.278,6.278,6.278,6.2842,6.2989,6.3759,6.4604,6.5485,6.6219,6.699,6.7687,6.7687,6.7687,6.7687,6.7687,6.8752,7.011,7.011,7.1174,7.2496,7.2496,7.2496,7.2496,7.2496,7.2496,7.2496,7.2496,7.2496,7.2679,7.345,7.4221,7.5028,7.5836,7.6644,7.7237,7.7273,7.7273,7.7273,7.7273,7.7273,7.7273,7.7273,7.7273,7.7273,7.7273,7.7273,7.7273,7.7273,7.7273,7.7635,7.8442,7.8516,7.8883,7.98,7.9874,7.9874,7.9874,7.991,8.0277,8.1012,8.1048,8.1085,8.1085,8.1048,8.0571,7.98,7.98,8.0204,4.6728,4.6581,4.6911,4.926,4.9481,4.9554,5.1316,5.1132,5.0912,5.205,5.1793,0.0,0.0,0.0,5.6859,5.8474,6.0346,6.1484,6.119,6.2108,6.2328,6.1006,6.1557,6.2034,6.2034,6.2034,6.2034,6.2034,6.2511,6.2585,6.2071,6.2548,6.278,6.278,6.278,6.278,6.278,6.278,6.278,6.278,6.278,6.278,6.278,6.278,6.278,6.278,6.278,6.278,6.2817,6.3172,6.409,6.5448,6.6733,6.743,6.7687,6.7687,6.7687,6.7687,6.7687,6.8752,7.011,7.011,7.1174,7.2496,7.2496,7.2496,7.2496,7.2496,7.2496,7.2496,7.2496,7.2863,7.3303,7.3634,7.4698,7.5726,7.6019,7.6754,7.7273,7.7273,7.7273,7.7273,7.7273,7.7273,7.7273,7.7273,7.7273,7.7273,7.7273,7.7273,7.7273,7.7273,7.7273,7.742,7.7781,7.7818,7.7928,7.8222,7.9213,7.958,7.9066,7.9507,7.969,7.9507,7.9984,8.0241,8.0241,8.0241,8.0094,7.98,8.0314,8.0718,4.5516,4.5333,4.581,4.8563,4.9224,4.9591,5.1206,5.1977,5.2747,5.4069,5.3922,5.3812,5.462,0.0,0.0,0.0,6.0566,6.1594,6.1594,6.2291,6.2193,6.0603,6.1117,6.1484,6.1263,6.1227,6.1337,6.1557,6.2108,6.2291,6.1998,6.2511,6.278,6.278,6.278,6.278,6.278,6.278,6.278,6.278,6.278,6.278,6.278,6.278,6.278,6.278,6.278,6.278,6.278,6.278,6.3771,6.5485,6.7063,6.7687,6.7687,6.7687,6.7687,6.7687,6.7687,6.8752,7.011,7.011,7.1174,7.2496,7.2496,7.2496,7.2496,7.2496,7.2496,7.2496,7.2496,7.3083,7.3744,7.4001,7.5102,7.6166,7.6423,7.6937,7.7273,7.7273,7.7273,7.7273,7.7273,7.7273,7.7273,7.7273,7.7273,7.7273,7.7273,7.7273,7.7273,7.7273,7.7273,7.7273,7.7273,7.7273,7.7273,7.7273,7.8369,7.8772,7.8222,7.8736,7.8883,7.8589,7.914,7.9396,7.9396,7.9653,7.98,7.98,8.0645,8.1158,4.4691,4.4121,4.3919,4.5516,4.7131,4.9187,5.2491,5.3203,5.3922,5.6345,5.5537,5.4656,5.5464,5.6271,0.0,5.8927,6.0566,6.1594,6.1594,6.2291,6.2218,6.0603,6.1117,6.1263,6.0493,6.0419,6.075,6.152,6.1594,6.1961,6.2743,6.278,6.278,6.278,6.278,6.278,6.278,6.278,6.278,6.278,6.278,6.278,6.278,6.278,6.278,6.278,6.278,6.278,6.278,6.278,6.3796,6.5485,6.7063,6.7687,6.7687,6.7687,6.7687,6.7687,6.7687,6.8752,7.0073,7.011,7.1174,7.2496,7.2496,7.2496,7.2496,7.2496,7.2496,7.2496,7.2496,7.3083,7.3891,7.4735,7.5542,7.635,7.7127,7.7273,7.7273,7.7273,7.7273,7.7273,7.7273,7.7273,7.7273,7.7273,7.7273,7.7273,7.7273,7.7273,7.7273,7.7273,7.7273,7.7273,7.7273,7.7273,7.7273,7.7273,7.7273,7.7273,7.7273,7.7273,7.7708,7.8552,7.8589,7.8589,7.8589,7.9396,7.98,7.98,8.0645,8.1452,4.4856,4.4929,4.5553,4.7205,0.0,0.0,0.0,5.4876,0.0,0.0,5.6822,5.6161,5.6418,0.0,0.0,5.9038,6.0566,6.1777,6.2365,6.2658,6.2438,6.1374,6.097,6.0676,6.0419,6.0419,6.0493,6.075,6.1814,6.2291,6.1961,6.2511,6.278,6.278,6.2254,6.2218,6.278,6.2254,6.2254,6.278,6.278,6.278,6.278,6.278,6.278,6.278,6.278,6.278,6.2879,6.3466,6.4347,6.5411,6.6439,6.7173,6.7687,6.7687,6.7687,6.7687,6.7687,6.8385,6.9339,6.9926,7.0807,7.1762,7.2349,7.2496,7.2496,7.2496,7.2496,7.2496,7.2496,7.3083,7.3891,7.4735,7.5946,7.698,7.7237,7.7273,7.7273,7.7273,7.7273,7.7273,7.7273,7.7273,7.7273,7.7273,7.7273,7.7273,7.7273,7.7273,7.7273,7.7273,7.7273,7.7273,7.7273,7.7273,7.7273,7.7273,7.7273,7.7273,7.7273,7.7273,7.742,7.7708,7.7708,7.7708,7.7708,7.9103,7.98,7.98,8.1195,8.1966,4.5608,4.6012,4.6764,4.8416,5.0398,5.2711,5.5464,0.0,0.0,0.0,5.7373,5.6895,5.7226,5.7409,0.0,5.9001,6.0015,6.0933,6.1741,6.1851,6.1667,6.119,6.0713,6.0419,6.0419,6.0419,6.0529,6.086,6.1777,6.2254,6.2108,6.2218,6.2328,6.2328,6.1557,6.1374,6.1851,6.1374,6.152,6.2328,6.2328,6.2511,6.278,6.278,6.278,6.278,6.278,6.278,6.2879,6.3723,6.4567,6.5375,6.6182,6.699,6.7687,6.7687,6.7687,6.7687,6.7687,6.8238,6.9045,6.9853,7.066,7.1439,7.2275,7.2496,7.2496,7.2496,7.2496,7.2496,7.2496,7.3083,7.3891,7.4735,7.5909,7.6937,7.7237,7.7273,7.7273,7.7273,7.7273,7.7273,7.7273,7.7273,7.7273,7.7273,7.7273,7.7273,7.7273,7.7273,7.7273,7.7273,7.7273,7.7273,7.7273,7.7273,7.7273,7.7273,7.7273,7.7273,7.7273,7.7273,7.7273,7.7273,7.7273,7.7273,7.7273,7.8993,7.98,7.9869,8.1452,8.2186,4.6599,4.7113,4.7626,4.939,5.1153,0.0,5.6235,5.7483,5.7997,5.7997,0.0,5.7152,5.7886,5.7483,5.7519,5.8964,5.9258,5.9551,6.0309,6.0419,6.0419,6.0419,6.0346,6.0309,6.0382,6.0419,6.075,6.152,6.1667,0.0,6.2658,6.1998,6.1557,6.1484,6.0713,6.0346,6.0419,6.0346,6.075,6.1594,6.1594,6.2034,6.278,6.278,6.278,6.278,6.278,6.278,6.2853,6.3649,6.4457,6.5264,6.6072,6.688,6.7577,6.765,6.7687,6.7687,6.7687,6.8164,6.8935,6.9743,7.055,7.1329,7.2165,7.2459,7.2496,7.2496,7.2496,7.2496,7.2496,7.3046,7.3817,7.4698,7.5506,7.6313,7.7127,7.7273,7.7273,7.7273,7.7273,7.7273,7.7273,7.7273,7.7273,7.7273,7.7273,7.7273,7.7273,7.7273,7.7273,7.7273,7.7273,7.7273,7.7273,7.7273,7.7273,7.7273,7.7273,7.7273,7.7273,7.7273,7.7273,7.7273,7.7273,7.7273,7.7273,7.8993,7.98,7.9869,8.1452,8.2186,4.6067,4.7095,4.86,5.0912,5.3628,5.6124,5.7446,5.7886,5.7997,5.7997,5.785,5.7776,5.796,5.8364,5.8781,5.9148,5.9735,6.0199,6.0382,6.0419,6.0419,6.0419,5.9832,5.9698,6.0346,6.0419,6.075,0.0,0.0,0.0,6.1887,6.1704,6.13,6.0676,5.9905,5.9735,6.0382,5.9795,6.0199,0.0,6.1594,6.2034,6.278,6.278,6.278,6.278,6.278,6.278,6.278,6.3025,6.3576,6.442,6.5228,6.6035,6.6843,6.7467,6.7687,6.7687,6.7687,6.7797,6.8091,6.8898,6.9706,7.0513,7.1321,7.2018,7.2496,7.2496,7.2496,7.2496,7.2496,7.2642,7.312,7.4588,7.5506,7.6313,7.7127,7.7273,7.7273,7.7273,7.7273,7.7273,7.7273,7.7273,7.7273,7.7273,7.7273,7.7273,7.7273,7.7273,7.7273,7.7273,7.7273,7.7273,7.7273,7.7273,7.7273,7.7273,7.7273,7.7273,7.7273,7.7273,7.7273,7.7273,7.7273,7.7273,7.7273,7.8993,7.98,7.9869,8.1452,8.2186,4.7241,4.8269,0.0,5.2894,0.0,5.7005,5.7813,5.7997,5.7997,5.7997,5.7997,5.7997,5.7997,5.8327,5.8621,5.8621,5.8988,5.9245,5.9245,5.9245,5.9391,5.9795,5.9441,5.9515,6.0309,6.0419,0.0,0.0,0.0,6.1484,6.1043,6.0676,6.0272,5.9832,5.9061,5.8841,5.9245,5.8841,5.9245,6.0456,6.086,6.1667,6.278,6.278,6.278,6.278,6.278,6.278,6.278,6.278,6.3319,6.4163,6.5007,6.5778,6.6586,6.7393,6.7687,6.7687,6.7687,6.7687,6.7834,6.8641,6.9449,7.0257,7.1064,7.1872,7.2496,7.2496,7.2496,7.2496,7.2496,7.2496,7.2899,7.4515,7.5212,7.5873,7.7017,7.7273,7.7273,7.7273,7.7273,7.7273,7.7273,7.7273,7.7273,7.7273,7.7273,7.7273,7.7273,7.7273,7.7273,7.7273,7.7273,7.7273,7.7273,7.7273,7.7273,7.7273,7.7273,7.7273,7.7273,7.7273,7.7273,7.7273,7.7273,7.7273,7.7273,7.8993,7.98,7.9869,8.1452,8.2186,4.8177,4.95,5.0932,5.4678,5.6198,0.0,5.7813,5.7997,5.7997,5.7997,5.7997,5.7997,5.7997,5.7997,5.7997,5.7997,5.7997,5.7997,5.7997,5.7997,5.8253,5.8891,5.8964,5.9318,6.0126,0.0,0.0,0.0,0.0,6.0346,6.0199,5.9551,5.9148,5.9001,5.8364,5.7997,5.7997,5.7997,5.84,5.9184,6.0162,6.1374,6.278,6.278,6.278,6.278,6.278,6.278,6.278,6.278,6.3209,6.3943,6.4787,6.5595,6.6402,6.7173,6.7577,6.7687,6.7687,6.7687,6.7797,6.8495,6.9339,7.022,7.0881,7.1762,7.2496,7.2496,7.2496,7.2496,7.2496,7.2496,7.2899,7.4515,7.4808,7.5139,7.6754,7.72,7.7237,7.709,7.72,7.7273,7.7273,7.7273,7.7273,7.7273,7.7273,7.7273,7.7273,7.7273,7.7273,7.7273,7.7273,7.7273,7.7273,7.7273,7.7273,7.7273,7.7273,7.7273,7.7273,7.7273,7.7273,7.7273,7.7273,7.7347,7.753,7.9066,7.9874,8.0021,8.1525,8.2186,4.6085,0.0,5.2307,0.0,5.6198,5.7005,0.0,0.0,5.7997,0.0,5.7997,5.7997,5.7997,5.7997,5.7997,5.7997,5.7997,5.7997,5.7997,5.7997,5.8033,5.8143,5.8143,5.8474,0.0,0.0,0.0,0.0,6.0419,6.0126,5.9404,5.9258,5.8854,5.818,5.807,5.7997,5.7997,5.7997,5.84,5.9221,6.0713,6.1924,6.278,6.278,6.278,6.278,6.278,6.278,6.278,6.278,6.2879,6.3062,6.3906,6.4751,6.5558,6.6366,6.71,6.7687,6.7687,6.7687,6.7724,6.7834,6.8862,7.011,7.022,7.1321,7.2496,7.2496,7.2496,7.2496,7.2496,7.2496,7.2899,7.4515,7.4368,7.4294,7.5909,7.6827,7.709,7.6387,7.6827,7.7273,7.7273,7.7273,7.7273,7.7273,7.7273,7.7273,7.7273,7.7273,7.7273,7.7273,7.7273,7.7273,7.7273,7.7273,7.7273,7.7273,7.7273,7.7273,7.7273,7.7273,7.7273,7.7273,7.7273,7.7671,7.8442,7.9323,8.0167,8.0865,8.1782,8.2186,4.6507,4.9554,5.2454,0.0,5.5868,5.6895,5.7262,0.0,5.7997,5.7997,5.7997,5.7997,5.7997,5.7997,5.7997,5.7997,5.7997,5.7997,5.7997,5.7997,5.7997,5.7997,5.7997,0.0,0.0,0.0,0.0,0.0,5.9061,5.8914,5.8547,5.8547,5.8364,5.7997,5.7997,5.7997,5.7997,5.7997,5.84,5.9184,5.9942,6.0933,6.2144,6.2144,6.2365,6.278,6.278,6.278,6.278,6.278,6.278,6.289,6.3759,6.4604,6.5411,6.6219,6.699,6.7687,6.7687,6.7687,6.7687,6.7687,6.8458,6.9522,6.9963,7.0917,7.1945,7.2386,7.2496,7.2496,7.2496,7.2496,7.2789,7.3964,7.3964,7.4001,7.5175,7.6056,7.668,7.6754,7.7053,7.7273,7.7273,7.7273,7.7273,7.7273,7.7273,7.7273,7.7273,7.7273,7.7273,7.7273,7.7273,7.7273,7.7273,7.7273,7.7273,7.7273,7.7273,7.7273,7.7273,7.7273,7.7273,7.7273,7.7781,7.8222,7.8589,7.9874,8.0645,8.1012,8.1819,8.2186,0.0,0.0,5.0986,5.3225,5.484,5.6051,0.0,0.0,5.774,0.0,5.7997,5.7997,5.7997,5.7997,5.7997,5.7997,5.7997,5.7997,5.7997,5.7997,5.7997,5.7997,0.0,0.0,0.0,0.0,0.0,0.0,5.7997,5.7997,5.7997,5.7997,5.7997,5.7997,5.7997,5.7997,5.7997,5.7997,5.84,5.9184,5.9404,6.0236,6.1594,6.1814,6.2218,6.278,6.278,6.278,6.278,6.278,6.278,6.2853,6.3503,6.4383,6.5375,6.5962,6.6843,6.7687,6.7687,6.7687,6.7687,6.7687,6.8238,6.9045,6.9853,7.066,7.1439,7.2275,7.2496,7.2496,7.2496,7.2496,7.2716,7.3487,7.3707,7.3964,7.4992,7.5689,7.635,7.7127,7.7273,7.7273,7.7273,7.7273,7.7273,7.7273,7.7273,7.7273,7.7273,7.7273,7.7273,7.7273,7.7273,7.7273,7.7273,7.7273,7.7273,7.7273,7.7273,7.7273,7.7273,7.7494,7.7635,7.7635,7.8662,7.9103,7.8919,8.0314,8.1122,8.1342,8.1929,8.2186,0.0,4.5498,0.0,5.1132,5.2747,0.0,0.0,0.0,5.7079,5.785,5.7997,5.7997,5.7997,5.7997,5.7997,5.7997,5.7997,5.7997,5.7997,5.7997,5.7997,0.0,0.0,0.0,0.0,0.0,0.0,0.0,5.7997,5.7997,5.7997,5.7997,5.7997,5.7997,5.7997,5.7997,5.7997,5.7997,5.84,5.9184,5.9979,6.0786,6.163,6.2401,6.2768,6.278,6.278,6.278,6.278,6.278,6.278,6.278,6.2853,6.387,6.5301,6.5375,6.6366,6.7687,6.7687,6.7687,6.7687,6.7687,6.8238,6.9045,6.9853,7.066,7.1439,7.2275,7.2496,7.2496,7.2496,7.2496,7.2716,7.3487,7.3707,7.4111,7.5689,7.6056,7.635,7.7127,7.7273,7.7273,7.7273,7.7273,7.7273,7.7273,7.7273,7.7273,7.7273,7.7273,7.7273,7.7273,7.7273,7.7273,7.7273,7.7273,7.7273,7.7273,7.7273,7.7273,7.7273,7.8112,7.8516,7.8516,8.0057,8.0498,7.9727,8.0571,8.1379,8.215,8.2186,8.2186,0.0,0.0,0.0,4.836,5.0655,5.2674,5.3518,5.4913,5.6271,5.7079,5.7226,5.7409,5.7886,5.7997,5.7997,5.7997,5.7997,5.7997,5.7997,5.7997,0.0,0.0,0.0,0.0,0.0,0.0,0.0,0.0,0.0,5.7997,5.7997,5.7997,5.7997,5.7997,5.7997,5.7997,5.7997,5.7997,5.8143,5.8437,5.9245,5.9795,6.0089,6.0896,6.1557,6.2034,6.2034,6.2328,6.278,6.278,6.278,6.278,6.278,6.3807,6.5301,6.5301,6.6329,6.7687,6.7687,6.7687,6.7687,6.7687,6.8238,6.9045,6.9853,7.066,7.1439,7.2275,7.2496,7.2496,7.2496,7.2496,7.2716,7.3487,7.4478,7.5395,7.5983,7.6533,7.6943,7.7237,7.7273,7.7273,7.7273,7.7273,7.7127,7.6607,7.6974,7.709,7.6607,7.698,7.7273,7.7273,7.7273,7.7273,7.7273,7.7273,7.7273,7.7273,7.7818,7.8148,7.8148,7.8919,7.936,7.936,8.0424,8.0865,8.0571,8.1379,8.1929,8.2186,8.2186,8.2186,4.1754,0.0,0.0,0.0,0.0,5.0802,5.2417,0.0,5.5097,5.6198,5.6602,5.6969,5.7483,5.7813,5.7997,5.7997,5.7997,5.7997,5.7997,0.0,0.0,0.0,0.0,0.0,0.0,0.0,0.0,0.0,0.0,0.0,5.7997,5.7997,5.7997,5.7997,5.7997,5.7997,5.7997,5.7997,5.8143,5.84,5.9245,5.9588,5.9625,6.0713,6.1337,6.163,6.1887,6.2328,6.278,6.278,6.278,6.278,6.278,6.3807,6.5301,6.5301,6.6329,6.7687,6.7687,6.7687,6.7724,6.8017,6.8458,6.9119,7.0183,7.0881,7.1439,7.2275,7.2496,7.2496,7.2496,7.2716,7.3156,7.4258,7.5322,7.6166,7.646,7.6937,7.7273,7.7273,7.7273,7.7273,7.7273,7.7273,7.709,7.6607,7.6943,7.709,7.657,7.6974,7.7273,7.7273,7.7273,7.7273,7.7273,7.7273,7.742,7.7745,7.8295,7.8699,7.8993,7.9764,8.0204,8.0204,8.0975,8.1415,8.1415,8.1929,8.2186,8.2186,8.2186,8.2186,0.0,0.0,0.0,0.0,0.0,0.0,5.3041,0.0,5.3518,5.5133,5.6124,5.6675,5.6748,5.7409,5.796,5.796,5.796,5.7997,5.7997,0.0,0.0,0.0,0.0,0.0,0.0,0.0,0.0,0.0,5.7997,5.7997,5.7997,5.7997,5.7997,5.7997,5.7997,5.7997,5.7997,5.7997,5.84,5.9184,6.0015,6.0382,6.0419,6.1998,6.2291,6.1594,6.2401,6.2768,6.278,6.278,6.278,6.278,6.278,6.3807,6.5301,6.5301,6.6329,6.7687,6.7687,6.7687,6.7834,6.8641,6.8935,6.9229,7.0844,7.1293,7.1476,7.2275,7.2496,7.2496,7.2532,7.3156,7.4147,7.5726,7.613,7.635,7.7127,7.7273,7.7273,7.7273,7.7273,7.7273,7.7273,7.7273,7.7273,7.7273,7.7237,7.7237,7.7237,7.7237,7.7273,7.7273,7.7273,7.7273,7.7273,7.731,7.7708,7.8552,7.8626,7.9029,7.98,8.0608,8.1048,8.1048,8.1782,8.2186,8.2186,8.2186,8.2186,8.2186,8.2186,8.2186,3.9489,0.0,0.0,0.0,0.0,0.0,0.0,0.0,5.0288,5.2527,5.3151,5.3849,5.5611,5.6602,5.7152,5.7152,5.7629,5.7997,0.0,0.0,0.0,0.0,0.0,0.0,0.0,0.0,0.0,0.0,5.7997,5.7997,5.7997,5.7997,5.7997,5.7997,5.7997,5.7997,5.7997,5.7997,5.84,5.9184,5.9404,5.9515,5.9551,5.9992,6.0382,6.075,6.097,6.1741,6.278,6.278,6.278,6.278,6.278,6.3807,6.5301,6.5301,6.6329,6.7687,6.7687,6.7687,6.7834,6.8641,6.9302,6.9963,7.0991,7.1725,7.2202,7.2459,7.2496,7.2642,7.323,7.4404,7.5542,7.5983,7.6533,7.7017,7.7237,7.7273,7.7273,7.7273,7.7273,7.7273,7.7273,7.7273,7.709,7.6533,7.6423,7.6423,7.6423,7.6423,7.6644,7.7237,7.7273,7.7273,7.7273,7.7892,7.8332,7.8589,7.969,8.0424,8.0645,8.1452,8.1856,8.1856,8.2076,8.2186,8.2186,8.2186,8.2186,8.2186,8.2186,8.2186,3.9619,0.0,0.0,0.0,0.0,0.0,0.0,4.7772,0.0,0.0,5.2527,5.3408,5.484,5.5757,5.6418,5.6748,5.7189,0.0,0.0,0.0,0.0,0.0,0.0,0.0,0.0,5.7997,5.7997,5.7997,5.7997,5.7997,5.7997,5.7997,5.7997,5.7997,5.7997,5.7997,5.7997,5.7997,5.84,5.9184,5.9184,5.9368,5.9698,5.9698,6.0162,6.0896,6.0896,6.163,6.278,6.278,6.278,6.2842,6.3209,6.4163,6.5338,6.5705,6.6623,6.7687,6.7687,6.7907,6.8311,6.9155,6.9926,7.077,7.1578,7.2129,7.2496,7.2496,7.2753,7.3266,7.4404,7.5395,7.6166,7.6533,7.6943,7.7273,7.7273,7.7273,7.7273,7.7273,7.7273,7.7273,7.7273,7.7273,7.7127,7.668,7.6607,7.6607,7.6607,7.6607,7.679,7.7237,7.7273,7.7273,7.7273,7.8112,7.8736,7.9066,8.0314,8.1158,8.1489,8.1929,8.2186,8.2186,8.2186,8.2186,8.2186,8.2186,8.2186,8.2186,8.2186,8.2186,3.9985,4.0672,0.0,0.0,0.0,0.0,4.7765,4.87,4.9325,0.0,5.2433,5.3497,5.3702,5.4473,5.528,5.6014,5.6455,0.0,0.0,0.0,0.0,0.0,0.0,0.0,5.7997,5.7997,5.7997,5.7997,5.7997,5.7997,5.7997,5.7997,5.7997,5.7997,5.7997,5.7997,5.7997,5.8107,5.851,5.9184,5.9294,5.9698,6.0419,6.0419,6.086,6.1594,6.1594,6.2071,6.278,6.278,6.278,6.289,6.3759,6.4604,6.5411,6.6219,6.699,6.7687,6.7687,6.8238,6.9045,6.9853,7.066,7.1439,7.2275,7.2496,7.2532,7.2606,7.3193,7.4184,7.5726,7.6166,7.6423,7.7127,7.7273,7.7273,7.7273,7.7273,7.7273,7.7273,7.7273,7.7273,7.7273,7.7273,7.7273,7.7273,7.72,7.72,7.7273,7.72,7.72,7.7273,7.7273,7.7273,7.7273,7.8185,7.9029,7.9727,8.0645,8.1452,8.215,8.2186,8.2186,8.2186,8.2186,8.2186,8.2186,8.2186,8.2186,8.2186,8.2186,8.2186,4.1162,4.1035,4.1035,4.2105,0.0,0.0,4.3378,4.4455,4.5678,0.0,4.7238,4.788,4.9241,5.0729,5.1793,5.194,0.0,0.0,0.0,0.0,0.0,0.0,0.0,0.0,5.7997,5.7997,5.7997,5.7997,5.7997,5.7997,5.7997,5.7997,5.7997,5.7997,5.7997,5.7997,5.7997,5.8657,5.9038,5.9184,5.9869,6.0272,6.0419,6.0419,6.086,6.1594,6.1594,6.2071,6.278,6.278,6.278,6.289,6.3759,6.4604,6.5411,6.6219,6.699,6.7687,6.7687,6.8238,6.9045,6.9853,7.066,7.1439,7.2275,7.2496,7.2642,7.3266,7.4037,7.4882,7.5836,7.6607,7.709,7.7237,7.7273,7.7273,7.7273,7.7273,7.7273,7.7273,7.7273,7.7273,7.7273,7.7273,7.7273,7.7273,7.6754,7.657,7.72,7.6754,7.6607,7.7237,7.7273,7.7273,7.7273,7.8699,7.9617,7.9764,8.1158,8.2039,8.2186,8.2186,8.2186,8.2186,8.2186,8.2186,8.2186,8.2186,8.2186,8.2186,8.2186,8.2186,4.1198,4.1089,4.1397,4.2685,0.0,0.0,0.0,0.0,4.5219,4.6099,4.663,0.0,0.0,0.0,4.9748,0.0,0.0,0.0,0.0,0.0,0.0,0.0,0.0,0.0,5.7997,5.7997,5.7997,5.7997,5.7997,5.7997,5.7997,5.7997,5.7997,5.7997,5.84,5.8621,5.8621,5.9391,5.9795,5.9795,6.0236,6.0419,6.0419,6.0419,6.086,6.1594,6.1594,6.2071,6.278,6.278,6.3062,6.3539,6.4383,6.4934,6.5448,6.6659,6.7357,6.7687,6.7687,6.8495,6.9559,6.9963,7.0917,7.1982,7.2386,7.2789,7.3266,7.4074,7.4882,7.5689,7.6497,7.7011,7.7273,7.7273,7.7273,7.7273,7.7273,7.7273,7.7273,7.7273,7.7273,7.7273,7.7273,7.7273,7.7273,7.7273,7.6943,7.6864,7.7237,7.6974,7.6864,7.7237,7.7273,7.7273,7.7273,7.8846,7.98,7.98,8.1305,8.2186,8.2186,8.2186,8.2186,8.2186,8.2186,8.2186,8.2186,8.2186,8.2186,8.2186,8.2186,8.2186,0.0,0.0,0.0,0.0,0.0,4.3645,0.0,0.0,0.0,0.0,0.0,0.0,0.0,0.0,0.0,0.0,0.0,0.0,0.0,0.0,0.0,0.0,0.0,0.0,5.774,5.7629,5.7666,5.796,5.7703,5.7666,5.796,5.8143,5.8217,5.8217,5.9024,5.9404,5.9404,6.0236,6.0566,6.0419,6.0566,6.0566,6.0419,6.0566,6.1006,6.1594,6.1741,6.2218,6.278,6.278,6.3319,6.4163,6.5007,6.5411,6.5705,6.7136,6.7687,6.7724,6.7871,6.8862,7.011,7.0293,7.1321,7.2496,7.2496,7.3046,7.3824,7.4512,7.5379,7.6246,7.6899,7.7181,7.7273,7.7273,7.7273,7.7273,7.7273,7.7273,7.7273,7.7273,7.7273,7.7273,7.7273,7.7273,7.7273,7.7273,7.7273,7.7273,7.7273,7.7273,7.7273,7.7273,7.7273,7.7347,7.7561,7.8919,7.9874,8.0021,8.1379,8.2186,8.2186,8.2186,8.2186,8.2186,8.2186,8.2186,8.2186,8.2186,8.2186,8.2186,8.2186,8.2186,0.0,0.0,0.0,0.0,4.4548,0.0,0.0,0.0,0.0,0.0,0.0,0.0,0.0,0.0,0.0,0.0,0.0,0.0,0.0,0.0,0.0,0.0,0.0,0.0,0.0,5.6271,5.6455,5.7886,5.6675,5.6492,5.7923,5.8694,5.9038,5.9038,5.9832,6.0272,6.0272,6.1043,6.1117,6.0419,6.1117,6.108,6.0419,6.1153,6.152,6.163,6.2365,6.2732,6.278,6.278,6.3319,6.4163,6.5007,6.5742,6.6476,6.7357,6.7687,6.7797,6.8531,6.9339,7.022,7.0954,7.1762,7.2496,7.2496,7.3046,7.3736,7.3888,7.4973,7.6155,7.6287,7.6797,7.7273,7.7273,7.7273,7.7273,7.7273,7.7273,7.7273,7.7273,7.7273,7.7273,7.7273,7.7273,7.7273,7.7273,7.7273,7.7273,7.7273,7.7273,7.7273,7.7273,7.7273,7.7604,7.8405,7.9286,8.0094,8.0828,8.1709,8.2186,8.2186,8.2186,8.2186,8.2186,8.2186,8.2186,8.2186,8.2186,8.2186,8.2186,8.2186,8.2186,0.0,0.0,0.0,0.0,0.0,0.0,4.3751,0.0,4.3336,0.0,0.0,0.0,0.0,0.0,0.0,0.0,0.0,0.0,0.0,0.0,0.0,0.0,0.0,0.0,0.0,0.0,0.0,0.0,5.6235,5.6088,5.7226,5.807,5.8731,5.9184,5.9979,6.0639,6.108,6.1887,6.1887,6.108,6.1447,6.0933,5.9758,6.1006,6.1337,6.097,6.2254,6.278,6.278,6.278,6.3613,6.4824,6.5191,6.5778,6.6586,6.7393,6.7687,6.7797,6.8605,6.9449,7.0293,7.1578,7.2239,7.2496,7.2496,7.3111,7.3765,7.3805,7.495,7.6166,7.6197,7.6733,7.7273,7.7273,7.7273,7.7273,7.7273,7.7273,7.7273,7.7273,7.7273,7.7273,7.7273,7.7273,7.7273,7.7273,7.7273,7.7273,7.7273,7.7273,7.7273,7.7273,7.7273,7.7671,7.8516,7.9323,8.0131,8.0938,8.1746,8.2186,8.2186,8.2186,8.2186,8.2186,8.2186,8.2186,8.2186,8.2186,8.2186,8.2186,8.2186,8.2186,4.5381,0.0,0.0,0.0,0.0,0.0,0.0,0.0,0.0,0.0,0.0,0.0,0.0,0.0,0.0,0.0,0.0,0.0,0.0,0.0,0.0,0.0,0.0,0.0,0.0,0.0,0.0,0.0,0.0,5.5244,5.6712,5.7776,5.8694,5.9478,6.0529,6.1337,6.1924,6.2291,6.2181,6.1594,6.1153,6.0456,5.9551,6.075,6.108,6.0823,6.2218,6.278,6.2817,6.2848,6.3826,6.5312,6.5337,6.5833,6.6601,6.7213,6.7662,6.81,6.8742,6.975,7.0954,7.2129,7.2496,7.2504,7.2519,7.311,7.3819,7.3802,7.495,7.6203,7.6203,7.6733,7.7273,7.7273,7.7273,7.7273,7.7273,7.7273,7.7273,7.7273,7.7273,7.7273,7.7273,7.7273,7.7273,7.7273,7.7273,7.7273,7.7273,7.7273,7.7273,7.7273,7.7494,7.8002,7.8846,7.9653,8.0461,8.1269,8.1893,8.2186,8.2186,8.2186,8.2186,8.2186,8.2186,8.2186,8.2186,8.2186,8.2186,8.2186,8.2186,8.2186,0.0,0.0,0.0,4.5888,0.0,0.0,0.0,0.0,4.4041,0.0,0.0,0.0,0.0,0.0,0.0,0.0,0.0,0.0,0.0,0.0,0.0,0.0,0.0,0.0,0.0,0.0,0.0,0.0,5.2962,0.0,5.6638,5.8304,5.9515,6.0346,6.1924,6.2743,6.2768,6.1998,6.163,6.1557,6.0015,5.9685,6.0382,6.0419,6.086,6.1594,6.2438,6.278,6.2828,6.2948,6.3893,6.5322,6.5347,6.5946,6.67,6.6736,6.7656,6.8889,6.9048,7.0565,7.2422,7.2496,7.2496,7.2526,7.259,7.3164,7.3829,7.3796,7.4936,7.6203,7.6203,7.6733,7.7273,7.7273,7.7273,7.7273,7.7273,7.7273,7.7273,7.7273,7.7273,7.7273,7.7273,7.7273,7.7273,7.7273,7.7273,7.7273,7.7273,7.7273,7.7273,7.7273,7.8075,7.8883,7.969,8.0498,8.1305,8.2113,8.2186,8.2186,8.2186,8.2186,8.2186,8.2186,8.2186,8.2186,8.2186,8.2186,8.2186,8.2186,8.2186,8.2186,0.0,0.0,4.922,4.7373,0.0,0.0,0.0,0.0,0.0,0.0,0.0,0.0,0.0,0.0,0.0,0.0,0.0,0.0,0.0,0.0,0.0,0.0,0.0,0.0,0.0,0.0,0.0,0.0,5.2556,0.0,5.5904,5.7042,5.8474,6.0346,6.0933,6.1741,6.278,6.1998,6.1337,6.0786,5.9698,5.9331,5.9625,6.0162,6.086,6.163,6.2438,6.2567,6.2238,6.2785,6.3646,6.4648,6.4711,6.5533,6.6736,6.7202,6.7713,6.8386,6.9485,7.098,7.2351,7.1354,7.1354,7.1755,7.1842,7.2084,7.2439,7.3366,7.4403,7.5263,7.5263,7.5792,7.6403,7.6534,7.6603,7.67,7.7181,7.7273,7.7273,7.7273,7.7273,7.7273,7.7273,7.7273,7.7273,7.7273,7.7273,7.7273,7.7273,7.7273,7.7273,7.7273,7.8075,7.8919,7.9727,8.1012,8.1893,8.2186,8.2186,8.2186,8.2186,8.2186,8.2186,8.2186,8.2186,8.2186,8.2186,8.2186,8.2186,8.2223,8.2737,8.2994,5.0257,5.0329,0.0,4.8894,4.817,0.0,4.5743,0.0,0.0,0.0,0.0,0.0,0.0,0.0,0.0,0.0,0.0,0.0,0.0,0.0,0.0,0.0,0.0,0.0,0.0,0.0,5.0155,5.1179,5.1615,0.0,0.0,0.0,5.7923,6.0309,6.0676,6.1484,6.278,6.1531,6.0725,6.0382,5.9383,5.9127,5.9661,6.0262,6.1066,6.2046,6.2105,6.2059,6.1942,6.2507,6.3232,6.3984,6.4322,6.5102,6.6043,6.6722,6.7431,6.8199,6.9713,7.0893,7.1578,7.0604,7.0604,7.1087,7.1339,7.1394,7.1686,7.2977,7.3837,7.4376,7.4677,7.5191,7.5652,7.6102,7.6169,7.6303,7.7056,7.715,7.7118,7.7181,7.7248,7.7248,7.7273,7.7273,7.7273,7.7273,7.7273,7.7273,7.7273,7.7273,7.742,7.7745,7.8516,7.947,8.0534,8.1599,8.2186,8.2186,8.2186,8.2186,8.2186,8.2186,8.2186,8.2186,8.2186,8.2186,8.2186,8.2186,8.2186,8.2223,8.303,8.3581]}]]